Wetterdaten: Donnerstag, 03.05.2012
Datum Zeit Temp. A. Feuchte A. Regen Wind Richtung Richtung Taupunkt Windchill Windben
03.05.2012 00:00 10,7 C 82 % 0,0 l/m 1,1 km/h (1 Bft) O 90 7,8 C 8,7 C 1,6 km/h (1 Bft)
03.05.2012 00:01 10,8 C 82 % 0,0 l/m 0,8 km/h (0 Bft) NO 45 7,9 C 8,7 C 1,6 km/h (1 Bft)
03.05.2012 00:02 10,8 C 82 % 0,0 l/m 0,8 km/h (0 Bft) NO 45 7,9 C 8,7 C 1,6 km/h (1 Bft)
03.05.2012 00:03 10,8 C 82 % 0,0 l/m 0,8 km/h (0 Bft) NO 45 7,9 C 8,7 C 2,1 km/h (1 Bft)
03.05.2012 00:04 10,8 C 82 % 0,0 l/m 0,8 km/h (0 Bft) NO 45 7,9 C 8,7 C 2,1 km/h (1 Bft)
03.05.2012 00:05 10,8 C 82 % 0,0 l/m 0,6 km/h (0 Bft) O 90 7,9 C 8,7 C 0,0 km/h (0 Bft)
03.05.2012 00:06 10,8 C 82 % 0,0 l/m 0,6 km/h (0 Bft) O 90 7,9 C 8,7 C 0,0 km/h (0 Bft)
03.05.2012 00:07 10,8 C 82 % 0,0 l/m 0,8 km/h (0 Bft) NO 45 7,9 C 8,7 C 3,2 km/h (1 Bft)
03.05.2012 00:08 10,8 C 82 % 0,0 l/m 0,8 km/h (0 Bft) NO 45 7,9 C 8,7 C 3,2 km/h (1 Bft)
03.05.2012 00:09 10,7 C 82 % 0,0 l/m 1,1 km/h (1 Bft) O-SO 112 7,8 C 8,7 C 3,4 km/h (1 Bft)
03.05.2012 00:10 10,7 C 82 % 0,0 l/m 1,1 km/h (1 Bft) O-SO 112 7,8 C 8,7 C 3,4 km/h (1 Bft)
03.05.2012 00:11 10,7 C 83 % 0,7 l/m 1,4 km/h (1 Bft) NO 45 7,9 C 8,7 C 3,1 km/h (1 Bft)
03.05.2012 00:12 10,7 C 83 % 0,0 l/m 1,4 km/h (1 Bft) NO 45 7,9 C 8,7 C 3,1 km/h (1 Bft)
03.05.2012 00:13 10,6 C 83 % 0,0 l/m 1,6 km/h (1 Bft) O-NO 67 7,8 C 8,7 C 4,3 km/h (1 Bft)
03.05.2012 00:14 10,6 C 83 % 0,0 l/m 1,6 km/h (1 Bft) O-NO 67 7,8 C 8,7 C 4,3 km/h (1 Bft)
03.05.2012 00:15 10,7 C 83 % 0,0 l/m 2,3 km/h (1 Bft) O-SO 112 7,9 C 8,7 C 5,8 km/h (2 Bft)
03.05.2012 00:16 10,7 C 83 % 0,0 l/m 2,3 km/h (1 Bft) O-SO 112 7,9 C 8,7 C 5,8 km/h (2 Bft)
03.05.2012 00:17 10,7 C 83 % 0,0 l/m 2,9 km/h (1 Bft) N-NO 22 7,9 C 8,7 C 3,9 km/h (1 Bft)
03.05.2012 00:18 10,7 C 83 % 0,0 l/m 2,9 km/h (1 Bft) N-NO 22 7,9 C 8,7 C 3,9 km/h (1 Bft)
03.05.2012 00:19 10,7 C 83 % 0,0 l/m 3,1 km/h (1 Bft) O-NO 67 7,9 C 8,7 C 3,9 km/h (1 Bft)
03.05.2012 00:20 10,7 C 83 % 0,0 l/m 3,1 km/h (1 Bft) O-NO 67 7,9 C 8,7 C 5,8 km/h (2 Bft)
03.05.2012 00:21 10,6 C 83 % 0,0 l/m 3,1 km/h (1 Bft) NO 45 7,8 C 8,7 C 8,0 km/h (2 Bft)
03.05.2012 00:22 10,6 C 83 % 0,0 l/m 3,1 km/h (1 Bft) NO 45 7,8 C 8,7 C 8,0 km/h (2 Bft)
03.05.2012 00:23 10,5 C 83 % 0,0 l/m 3,1 km/h (1 Bft) NO 45 7,7 C 8,7 C 6,6 km/h (2 Bft)
03.05.2012 00:24 10,5 C 83 % 0,0 l/m 3,1 km/h (1 Bft) NO 45 7,7 C 8,7 C 6,6 km/h (2 Bft)
03.05.2012 00:25 10,6 C 83 % 0,0 l/m 3,2 km/h (1 Bft) O 90 7,8 C 8,7 C 4,2 km/h (1 Bft)
03.05.2012 00:26 10,6 C 83 % 0,0 l/m 3,2 km/h (1 Bft) O 90 7,8 C 8,7 C 4,2 km/h (1 Bft)
03.05.2012 00:27 10,7 C 82 % 0,0 l/m 3,5 km/h (1 Bft) O-SO 112 7,8 C 8,7 C 6,4 km/h (2 Bft)
03.05.2012 00:28 10,7 C 82 % 0,0 l/m 3,5 km/h (1 Bft) O-SO 112 7,8 C 8,7 C 6,4 km/h (2 Bft)
03.05.2012 00:29 10,7 C 82 % 0,0 l/m 4,2 km/h (1 Bft) SO 135 7,8 C 8,6 C 7,1 km/h (2 Bft)
03.05.2012 00:30 10,7 C 82 % 0,0 l/m 4,2 km/h (1 Bft) SO 135 7,8 C 8,6 C 9,5 km/h (2 Bft)
03.05.2012 00:31 10,7 C 82 % 0,0 l/m 4,7 km/h (1 Bft) O 90 7,8 C 8,4 C 6,3 km/h (2 Bft)
03.05.2012 00:32 10,7 C 82 % 0,0 l/m 4,7 km/h (1 Bft) O 90 7,8 C 8,4 C 6,3 km/h (2 Bft)
03.05.2012 00:33 10,6 C 81 % 0,0 l/m 5,3 km/h (1 Bft) SO 135 7,5 C 8,2 C 9,3 km/h (2 Bft)
03.05.2012 00:34 10,6 C 81 % 0,0 l/m 5,3 km/h (1 Bft) SO 135 7,5 C 8,2 C 9,3 km/h (2 Bft)
03.05.2012 00:35 10,7 C 81 % 0,0 l/m 5,8 km/h (2 Bft) O-SO 112 7,6 C 8,1 C 8,2 km/h (2 Bft)
03.05.2012 00:36 10,7 C 81 % 0,0 l/m 5,8 km/h (2 Bft) O-SO 112 7,6 C 8,1 C 8,2 km/h (2 Bft)
03.05.2012 00:37 10,6 C 81 % 0,0 l/m 6,1 km/h (2 Bft) O-SO 112 7,5 C 7,9 C 8,7 km/h (2 Bft)
03.05.2012 00:38 10,6 C 81 % 0,0 l/m 6,1 km/h (2 Bft) O-SO 112 7,5 C 7,9 C 8,7 km/h (2 Bft)
03.05.2012 00:39 10,7 C 81 % 0,0 l/m 6,1 km/h (2 Bft) O-SO 112 7,6 C 7,9 C 8,0 km/h (2 Bft)
03.05.2012 00:40 10,7 C 81 % 0,0 l/m 6,1 km/h (2 Bft) O-SO 112 7,6 C 7,9 C 8,0 km/h (2 Bft)
03.05.2012 00:41 10,7 C 81 % 0,0 l/m 5,5 km/h (1 Bft) O 90 7,6 C 8,2 C 2,9 km/h (1 Bft)
03.05.2012 00:42 10,7 C 81 % 0,0 l/m 5,5 km/h (1 Bft) O 90 7,6 C 8,2 C 2,9 km/h (1 Bft)
03.05.2012 00:43 10,5 C 81 % 0,0 l/m 5,1 km/h (1 Bft) O 90 7,4 C 8,2 C 2,7 km/h (1 Bft)
03.05.2012 00:44 10,5 C 81 % 0,0 l/m 5,1 km/h (1 Bft) O 90 7,4 C 8,2 C 2,7 km/h (1 Bft)
03.05.2012 00:45 10,5 C 81 % 0,0 l/m 4,5 km/h (1 Bft) O-NO 67 7,4 C 8,4 C 3,9 km/h (1 Bft)
03.05.2012 00:46 10,5 C 81 % 0,0 l/m 4,5 km/h (1 Bft) O-NO 67 7,4 C 8,4 C 3,9 km/h (1 Bft)
03.05.2012 00:47 10,4 C 81 % 0,0 l/m 4,2 km/h (1 Bft) N-NO 22 7,3 C 8,4 C 6,1 km/h (2 Bft)
03.05.2012 00:48 10,4 C 81 % 0,0 l/m 4,2 km/h (1 Bft) N-NO 22 7,3 C 8,4 C 6,1 km/h (2 Bft)
03.05.2012 00:49 10,4 C 81 % 0,0 l/m 3,9 km/h (1 Bft) O-SO 112 7,3 C 8,6 C 4,0 km/h (1 Bft)
03.05.2012 00:50 10,4 C 81 % 0,0 l/m 3,9 km/h (1 Bft) O-SO 112 7,3 C 8,6 C 4,0 km/h (1 Bft)
03.05.2012 00:51 10,4 C 81 % 0,0 l/m 3,4 km/h (1 Bft) NO 45 7,3 C 8,6 C 5,3 km/h (1 Bft)
03.05.2012 00:52 10,4 C 81 % 0,0 l/m 3,4 km/h (1 Bft) NO 45 7,3 C 8,6 C 5,3 km/h (1 Bft)
03.05.2012 00:53 10,3 C 81 % 0,0 l/m 3,4 km/h (1 Bft) O-SO 112 7,2 C 8,5 C 3,5 km/h (1 Bft)
03.05.2012 00:54 10,3 C 81 % 0,0 l/m 3,4 km/h (1 Bft) O-SO 112 7,2 C 8,5 C 3,5 km/h (1 Bft)
03.05.2012 00:55 10,3 C 81 % 0,0 l/m 3,2 km/h (1 Bft) O 90 7,2 C 8,5 C 2,1 km/h (1 Bft)
03.05.2012 00:56 10,3 C 81 % 0,0 l/m 3,2 km/h (1 Bft) O 90 7,2 C 8,5 C 2,1 km/h (1 Bft)
03.05.2012 00:57 10,3 C 81 % 0,0 l/m 2,7 km/h (1 Bft) NO 45 7,2 C 8,4 C 3,5 km/h (1 Bft)
03.05.2012 00:58 10,3 C 81 % 0,0 l/m 2,7 km/h (1 Bft) NO 45 7,2 C 8,4 C 3,5 km/h (1 Bft)
03.05.2012 00:59 10,3 C 81 % 0,0 l/m 2,4 km/h (1 Bft) O-SO 112 7,2 C 8,4 C 3,1 km/h (1 Bft)
03.05.2012 01:00 10,3 C 81 % 0,0 l/m 2,4 km/h (1 Bft) O-SO 112 7,2 C 8,4 C 3,1 km/h (1 Bft)
03.05.2012 01:01 10,3 C 81 % 0,0 l/m 2,3 km/h (1 Bft) N-NO 22 7,2 C 8,4 C 2,3 km/h (1 Bft)
03.05.2012 01:02 10,3 C 81 % 0,0 l/m 2,3 km/h (1 Bft) N-NO 22 7,2 C 8,4 C 2,3 km/h (1 Bft)
03.05.2012 01:03 10,3 C 81 % 0,0 l/m 2,1 km/h (1 Bft) O-SO 112 7,2 C 8,3 C 5,6 km/h (1 Bft)
03.05.2012 01:04 10,3 C 81 % 0,0 l/m 2,1 km/h (1 Bft) O-SO 112 7,2 C 8,3 C 5,6 km/h (1 Bft)
03.05.2012 01:05 10,3 C 81 % 0,0 l/m 2,1 km/h (1 Bft) SO 135 7,2 C 8,2 C 2,6 km/h (1 Bft)
03.05.2012 01:06 10,3 C 81 % 0,0 l/m 2,1 km/h (1 Bft) SO 135 7,2 C 8,2 C 2,6 km/h (1 Bft)
03.05.2012 01:07 10,3 C 81 % 0,0 l/m 2,4 km/h (1 Bft) O 90 7,2 C 8,2 C 3,7 km/h (1 Bft)
03.05.2012 01:08 10,3 C 81 % 0,0 l/m 2,4 km/h (1 Bft) O 90 7,2 C 8,2 C 3,7 km/h (1 Bft)
03.05.2012 01:09 10,2 C 81 % 0,7 l/m 2,7 km/h (1 Bft) O-SO 112 7,1 C 8,1 C 3,5 km/h (1 Bft)
03.05.2012 01:10 10,2 C 81 % 0,0 l/m 2,7 km/h (1 Bft) O-SO 112 7,1 C 8,1 C 10,1 km/h (2 Bft)
03.05.2012 01:11 10,3 C 81 % 0,0 l/m 3,2 km/h (1 Bft) O 90 7,2 C 8,1 C 4,0 km/h (1 Bft)
03.05.2012 01:12 10,3 C 81 % 0,0 l/m 3,2 km/h (1 Bft) O 90 7,2 C 8,1 C 4,0 km/h (1 Bft)
03.05.2012 01:13 10,2 C 81 % 0,0 l/m 3,4 km/h (1 Bft) O-SO 112 7,1 C 8,1 C 2,1 km/h (1 Bft)
03.05.2012 01:14 10,2 C 81 % 0,0 l/m 3,4 km/h (1 Bft) O-SO 112 7,1 C 8,1 C 2,1 km/h (1 Bft)
03.05.2012 01:15 10,3 C 81 % 0,0 l/m 3,4 km/h (1 Bft) SO 135 7,2 C 8,1 C 4,5 km/h (1 Bft)
03.05.2012 01:16 10,3 C 81 % 0,0 l/m 3,4 km/h (1 Bft) SO 135 7,2 C 8,1 C 4,5 km/h (1 Bft)
03.05.2012 01:17 10,3 C 81 % 0,0 l/m 3,2 km/h (1 Bft) O-SO 112 7,2 C 8,1 C 1,8 km/h (1 Bft)
03.05.2012 01:18 10,3 C 81 % 0,0 l/m 3,2 km/h (1 Bft) O-SO 112 7,2 C 8,1 C 1,8 km/h (1 Bft)
03.05.2012 01:19 10,3 C 81 % 0,0 l/m 2,9 km/h (1 Bft) NO 45 7,2 C 8,1 C 4,0 km/h (1 Bft)
03.05.2012 01:20 10,3 C 81 % 0,0 l/m 2,9 km/h (1 Bft) NO 45 7,2 C 8,1 C 4,0 km/h (1 Bft)
03.05.2012 01:21 10,3 C 81 % 0,0 l/m 2,6 km/h (1 Bft) N-NW 337 7,2 C 8,1 C 0,0 km/h (0 Bft)
03.05.2012 01:22 10,3 C 81 % 0,0 l/m 2,6 km/h (1 Bft) N-NW 337 7,2 C 8,1 C 0,0 km/h (0 Bft)
03.05.2012 01:23 10,3 C 81 % 0,0 l/m 2,6 km/h (1 Bft) O-SO 112 7,2 C 8,1 C 5,3 km/h (1 Bft)
03.05.2012 01:24 10,3 C 81 % 0,0 l/m 2,6 km/h (1 Bft) O-SO 112 7,2 C 8,1 C 5,3 km/h (1 Bft)
03.05.2012 01:25 10,3 C 81 % 0,0 l/m 2,4 km/h (1 Bft) O-NO 67 7,2 C 8,1 C 2,1 km/h (1 Bft)
03.05.2012 01:26 10,3 C 81 % 0,0 l/m 2,4 km/h (1 Bft) O-NO 67 7,2 C 8,1 C 2,1 km/h (1 Bft)
03.05.2012 01:27 10,2 C 81 % 0,0 l/m 2,1 km/h (1 Bft) N 360 7,1 C 8,1 C 1,8 km/h (1 Bft)
03.05.2012 01:28 10,2 C 81 % 0,0 l/m 2,1 km/h (1 Bft) N 360 7,1 C 8,1 C 1,8 km/h (1 Bft)
03.05.2012 01:29 10,2 C 81 % 0,0 l/m 1,9 km/h (1 Bft) NO 45 7,1 C 8,1 C 4,7 km/h (1 Bft)
03.05.2012 01:30 10,2 C 81 % 0,0 l/m 1,9 km/h (1 Bft) NO 45 7,1 C 8,1 C 4,7 km/h (1 Bft)
03.05.2012 01:31 10,1 C 81 % 0,0 l/m 1,8 km/h (1 Bft) N-NW 337 7,0 C 8,1 C 3,7 km/h (1 Bft)
03.05.2012 01:32 10,1 C 81 % 0,0 l/m 1,8 km/h (1 Bft) N-NW 337 7,0 C 8,1 C 3,7 km/h (1 Bft)
03.05.2012 01:33 10,1 C 82 % 0,0 l/m 2,1 km/h (1 Bft) N 360 7,2 C 8,1 C 3,1 km/h (1 Bft)
03.05.2012 01:34 10,1 C 82 % 0,0 l/m 2,1 km/h (1 Bft) N 360 7,2 C 8,1 C 3,1 km/h (1 Bft)
03.05.2012 01:35 10,0 C 81 % 0,0 l/m 1,9 km/h (1 Bft) O-SO 112 6,9 C 8,1 C 2,1 km/h (1 Bft)
03.05.2012 01:36 10,0 C 81 % 0,0 l/m 1,9 km/h (1 Bft) O-SO 112 6,9 C 8,1 C 2,1 km/h (1 Bft)
03.05.2012 01:37 10,0 C 81 % 0,0 l/m 2,3 km/h (1 Bft) N-NO 22 6,9 C 8,1 C 1,9 km/h (1 Bft)
03.05.2012 01:38 10,0 C 81 % 0,0 l/m 2,3 km/h (1 Bft) N-NO 22 6,9 C 8,1 C 1,9 km/h (1 Bft)
03.05.2012 01:39 10,0 C 81 % 0,0 l/m 2,4 km/h (1 Bft) O-SO 112 6,9 C 8,1 C 5,5 km/h (1 Bft)
03.05.2012 01:40 10,0 C 81 % 0,0 l/m 2,4 km/h (1 Bft) O-SO 112 6,9 C 8,1 C 5,5 km/h (1 Bft)
03.05.2012 01:41 10,0 C 82 % 0,0 l/m 2,4 km/h (1 Bft) N 360 7,1 C 8,1 C 0,0 km/h (0 Bft)
03.05.2012 01:42 10,0 C 82 % 0,0 l/m 2,4 km/h (1 Bft) N 360 7,1 C 8,1 C 0,0 km/h (0 Bft)
03.05.2012 01:43 10,0 C 82 % 0,0 l/m 1,8 km/h (1 Bft) N-NO 22 7,1 C 8,1 C 2,6 km/h (1 Bft)
03.05.2012 01:44 10,0 C 82 % 0,0 l/m 1,8 km/h (1 Bft) N-NO 22 7,1 C 8,1 C 2,6 km/h (1 Bft)
03.05.2012 01:45 9,9 C 82 % 0,0 l/m 1,6 km/h (1 Bft) N 360 7,0 C 8,1 C 2,6 km/h (1 Bft)
03.05.2012 01:46 9,9 C 82 % 0,0 l/m 1,6 km/h (1 Bft) N 360 7,0 C 8,1 C 2,6 km/h (1 Bft)
03.05.2012 01:47 9,9 C 82 % 0,0 l/m 1,1 km/h (1 Bft) W 270 7,0 C 8,1 C 0,0 km/h (0 Bft)
03.05.2012 01:48 9,9 C 82 % 0,0 l/m 1,1 km/h (1 Bft) W 270 7,0 C 8,1 C 0,0 km/h (0 Bft)
03.05.2012 01:49 9,9 C 82 % 0,0 l/m 1,0 km/h (0 Bft) O-SO 112 7,0 C 8,1 C 0,0 km/h (0 Bft)
03.05.2012 01:50 9,9 C 82 % 0,0 l/m 1,0 km/h (0 Bft) O-SO 112 7,0 C 8,1 C 0,0 km/h (0 Bft)
03.05.2012 01:51 9,9 C 82 % 0,0 l/m 0,6 km/h (0 Bft) N-NW 337 7,0 C 8,1 C 0,0 km/h (0 Bft)
03.05.2012 01:52 9,9 C 82 % 0,0 l/m 0,6 km/h (0 Bft) N-NW 337 7,0 C 8,1 C 0,0 km/h (0 Bft)
03.05.2012 01:53 9,9 C 82 % 0,0 l/m 0,5 km/h (0 Bft) W 270 7,0 C 8,1 C 0,0 km/h (0 Bft)
03.05.2012 01:54 9,9 C 82 % 0,0 l/m 0,5 km/h (0 Bft) W 270 7,0 C 8,1 C 0,0 km/h (0 Bft)
03.05.2012 01:55 9,9 C 83 % 0,0 l/m 0,6 km/h (0 Bft) N-NO 22 7,2 C 8,0 C 2,6 km/h (1 Bft)
03.05.2012 01:56 9,9 C 83 % 0,0 l/m 0,6 km/h (0 Bft) N-NO 22 7,2 C 8,0 C 2,6 km/h (1 Bft)
03.05.2012 01:57 9,8 C 83 % 0,0 l/m 0,8 km/h (0 Bft) NO 45 7,1 C 8,0 C 2,6 km/h (1 Bft)
03.05.2012 01:58 9,8 C 83 % 0,0 l/m 0,8 km/h (0 Bft) NO 45 7,1 C 8,0 C 2,6 km/h (1 Bft)
03.05.2012 01:59 9,9 C 83 % 0,0 l/m 0,8 km/h (0 Bft) N-NW 337 7,2 C 8,0 C 0,0 km/h (0 Bft)
03.05.2012 02:00 9,9 C 83 % 0,0 l/m 0,8 km/h (0 Bft) N-NW 337 7,2 C 8,0 C 0,0 km/h (0 Bft)
03.05.2012 02:01 9,8 C 83 % 0,0 l/m 1,0 km/h (0 Bft) N-NO 22 7,1 C 8,0 C 1,6 km/h (1 Bft)
03.05.2012 02:02 9,8 C 83 % 0,0 l/m 1,0 km/h (0 Bft) N-NO 22 7,1 C 8,0 C 1,6 km/h (1 Bft)
03.05.2012 02:03 9,9 C 83 % 0,0 l/m 1,1 km/h (1 Bft) N 360 7,2 C 8,0 C 1,9 km/h (1 Bft)
03.05.2012 02:04 9,9 C 83 % 0,0 l/m 1,1 km/h (1 Bft) N 360 7,2 C 8,0 C 1,9 km/h (1 Bft)
03.05.2012 02:05 9,8 C 83 % 0,0 l/m 1,0 km/h (0 Bft) S 180 7,1 C 8,0 C 0,0 km/h (0 Bft)
03.05.2012 02:06 9,8 C 83 % 0,0 l/m 1,0 km/h (0 Bft) S 180 7,1 C 8,0 C 0,0 km/h (0 Bft)
03.05.2012 02:07 9,7 C 83 % 0,0 l/m 0,8 km/h (0 Bft) N-NW 337 7,0 C 8,0 C 2,3 km/h (1 Bft)
03.05.2012 02:08 9,7 C 83 % 0,0 l/m 0,8 km/h (0 Bft) N-NW 337 7,0 C 8,0 C 2,3 km/h (1 Bft)
03.05.2012 02:09 9,8 C 83 % 0,0 l/m 0,8 km/h (0 Bft) O-NO 67 7,1 C 8,0 C 0,0 km/h (0 Bft)
03.05.2012 02:10 9,8 C 83 % 0,0 l/m 0,8 km/h (0 Bft) O-NO 67 7,1 C 8,0 C 0,0 km/h (0 Bft)
03.05.2012 02:11 9,9 C 83 % 0,0 l/m 0,6 km/h (0 Bft) N-NO 22 7,2 C 8,0 C 1,8 km/h (1 Bft)
03.05.2012 02:12 9,9 C 83 % 0,0 l/m 0,6 km/h (0 Bft) N-NO 22 7,2 C 8,0 C 1,8 km/h (1 Bft)
03.05.2012 02:13 9,8 C 83 % 0,0 l/m 0,6 km/h (0 Bft) N 360 7,1 C 8,0 C 1,9 km/h (1 Bft)
03.05.2012 02:14 9,8 C 83 % 0,0 l/m 0,6 km/h (0 Bft) N 360 7,1 C 8,0 C 1,9 km/h (1 Bft)
03.05.2012 02:15 9,8 C 83 % 0,0 l/m 0,6 km/h (0 Bft) NO 45 7,1 C 8,0 C 0,0 km/h (0 Bft)
03.05.2012 02:16 9,8 C 83 % 0,0 l/m 0,6 km/h (0 Bft) NO 45 7,1 C 8,0 C 0,0 km/h (0 Bft)
03.05.2012 02:17 9,7 C 83 % 0,0 l/m 0,6 km/h (0 Bft) N 360 7,0 C 8,0 C 0,0 km/h (0 Bft)
03.05.2012 02:18 9,7 C 83 % 0,0 l/m 0,6 km/h (0 Bft) N 360 7,0 C 8,0 C 0,0 km/h (0 Bft)
03.05.2012 02:19 9,7 C 83 % 0,0 l/m 0,5 km/h (0 Bft) NO 45 7,0 C 8,0 C 0,0 km/h (0 Bft)
03.05.2012 02:20 9,7 C 83 % 0,0 l/m 0,5 km/h (0 Bft) NO 45 7,0 C 8,0 C 0,0 km/h (0 Bft)
03.05.2012 02:21 9,7 C 83 % 0,0 l/m 0,6 km/h (0 Bft) N-NO 22 7,0 C 8,0 C 0,0 km/h (0 Bft)
03.05.2012 02:22 9,7 C 83 % 0,0 l/m 0,6 km/h (0 Bft) N-NO 22 7,0 C 8,0 C 0,0 km/h (0 Bft)
03.05.2012 02:23 9,6 C 83 % 0,0 l/m 0,5 km/h (0 Bft) W 270 6,9 C 8,0 C 1,6 km/h (1 Bft)
03.05.2012 02:24 9,6 C 83 % 0,0 l/m 0,5 km/h (0 Bft) W 270 6,9 C 8,0 C 1,6 km/h (1 Bft)
03.05.2012 02:25 9,6 C 83 % 0,0 l/m 0,3 km/h (0 Bft) SO 135 6,9 C 8,0 C 2,4 km/h (1 Bft)
03.05.2012 02:26 9,6 C 83 % 0,0 l/m 0,3 km/h (0 Bft) SO 135 6,9 C 8,0 C 2,4 km/h (1 Bft)
03.05.2012 02:27 9,6 C 83 % 0,0 l/m 0,3 km/h (0 Bft) O-SO 112 6,9 C 8,0 C 0,0 km/h (0 Bft)
03.05.2012 02:28 9,6 C 83 % 0,0 l/m 0,3 km/h (0 Bft) O-SO 112 6,9 C 8,0 C 0,0 km/h (0 Bft)
03.05.2012 02:29 9,6 C 83 % 0,0 l/m 0,5 km/h (0 Bft) NO 45 6,9 C 8,0 C 1,6 km/h (1 Bft)
03.05.2012 02:30 9,6 C 83 % 0,0 l/m 0,5 km/h (0 Bft) NO 45 6,9 C 8,0 C 1,6 km/h (1 Bft)
03.05.2012 02:31 9,7 C 83 % 0,0 l/m 0,5 km/h (0 Bft) N-NO 22 7,0 C 8,0 C 0,0 km/h (0 Bft)
03.05.2012 02:32 9,7 C 83 % 0,0 l/m 0,5 km/h (0 Bft) N-NO 22 7,0 C 8,0 C 0,0 km/h (0 Bft)
03.05.2012 02:33 9,7 C 83 % 0,0 l/m 0,5 km/h (0 Bft) S-SO 157 7,0 C 8,0 C 0,0 km/h (0 Bft)
03.05.2012 02:34 9,7 C 83 % 0,0 l/m 0,5 km/h (0 Bft) S-SO 157 7,0 C 8,0 C 0,0 km/h (0 Bft)
03.05.2012 02:35 9,7 C 83 % 0,0 l/m 0,6 km/h (0 Bft) N 360 7,0 C 8,0 C 2,1 km/h (1 Bft)
03.05.2012 02:36 9,7 C 83 % 0,0 l/m 0,6 km/h (0 Bft) N 360 7,0 C 8,0 C 2,1 km/h (1 Bft)
03.05.2012 02:37 9,7 C 83 % 0,0 l/m 0,6 km/h (0 Bft) O-NO 67 7,0 C 8,0 C 2,4 km/h (1 Bft)
03.05.2012 02:38 9,7 C 83 % 0,0 l/m 0,6 km/h (0 Bft) O-NO 67 7,0 C 8,0 C 2,4 km/h (1 Bft)
03.05.2012 02:39 9,7 C 83 % 0,0 l/m 0,5 km/h (0 Bft) N 360 7,0 C 8,0 C 0,0 km/h (0 Bft)
03.05.2012 02:40 9,7 C 83 % 0,0 l/m 0,5 km/h (0 Bft) N 360 7,0 C 8,0 C 0,0 km/h (0 Bft)
03.05.2012 02:41 9,6 C 83 % 0,0 l/m 0,3 km/h (0 Bft) S-SO 157 6,9 C 8,0 C 0,0 km/h (0 Bft)
03.05.2012 02:42 9,6 C 83 % 0,0 l/m 0,3 km/h (0 Bft) S-SO 157 6,9 C 8,0 C 0,0 km/h (0 Bft)
03.05.2012 02:43 9,6 C 83 % 0,0 l/m 0,5 km/h (0 Bft) N 360 6,9 C 7,9 C 0,0 km/h (0 Bft)
03.05.2012 02:44 9,6 C 83 % 0,0 l/m 0,5 km/h (0 Bft) N 360 6,9 C 7,9 C 0,0 km/h (0 Bft)
03.05.2012 02:45 9,5 C 83 % 0,0 l/m 0,5 km/h (0 Bft) O-SO 112 6,8 C 7,9 C 2,1 km/h (1 Bft)
03.05.2012 02:46 9,5 C 83 % 0,0 l/m 0,5 km/h (0 Bft) O-SO 112 6,8 C 7,9 C 2,1 km/h (1 Bft)
03.05.2012 02:47 9,5 C 83 % 0,0 l/m 0,3 km/h (0 Bft) N 360 6,8 C 7,9 C 1,6 km/h (1 Bft)
03.05.2012 02:48 9,5 C 83 % 0,0 l/m 0,3 km/h (0 Bft) N 360 6,8 C 7,9 C 1,6 km/h (1 Bft)
03.05.2012 02:49 9,5 C 83 % 0,0 l/m 0,3 km/h (0 Bft) O 90 6,8 C 7,8 C 0,0 km/h (0 Bft)
03.05.2012 02:50 9,5 C 83 % 0,0 l/m 0,3 km/h (0 Bft) O 90 6,8 C 7,8 C 0,0 km/h (0 Bft)
03.05.2012 02:51 9,5 C 83 % 0,0 l/m 0,3 km/h (0 Bft) N 360 6,8 C 7,8 C 0,0 km/h (0 Bft)
03.05.2012 02:52 9,5 C 83 % 0,0 l/m 0,3 km/h (0 Bft) N 360 6,8 C 7,8 C 0,0 km/h (0 Bft)
03.05.2012 02:53 9,5 C 83 % 0,0 l/m 0,5 km/h (0 Bft) N-NO 22 6,8 C 7,8 C 2,4 km/h (1 Bft)
03.05.2012 02:54 9,5 C 83 % 0,0 l/m 0,5 km/h (0 Bft) N-NO 22 6,8 C 7,8 C 2,4 km/h (1 Bft)
03.05.2012 02:55 9,5 C 83 % 0,0 l/m 0,5 km/h (0 Bft) O-SO 112 6,8 C 7,8 C 1,6 km/h (1 Bft)
03.05.2012 02:56 9,5 C 83 % 0,0 l/m 0,5 km/h (0 Bft) O-SO 112 6,8 C 7,8 C 1,6 km/h (1 Bft)
03.05.2012 02:57 9,5 C 83 % 0,0 l/m 0,5 km/h (0 Bft) SO 135 6,8 C 7,8 C 2,6 km/h (1 Bft)
03.05.2012 02:58 9,5 C 83 % 0,0 l/m 0,5 km/h (0 Bft) SO 135 6,8 C 7,8 C 2,6 km/h (1 Bft)
03.05.2012 02:59 9,5 C 83 % 0,0 l/m 0,6 km/h (0 Bft) N 360 6,8 C 7,9 C 2,3 km/h (1 Bft)
03.05.2012 03:00 9,5 C 83 % 0,0 l/m 0,6 km/h (0 Bft) N 360 6,8 C 7,9 C 2,3 km/h (1 Bft)
03.05.2012 03:01 9,4 C 83 % 0,0 l/m 0,6 km/h (0 Bft) SO 135 6,7 C 7,9 C 0,0 km/h (0 Bft)
03.05.2012 03:02 9,4 C 83 % 0,0 l/m 0,6 km/h (0 Bft) SO 135 6,7 C 7,9 C 0,0 km/h (0 Bft)
03.05.2012 03:03 9,5 C 83 % 0,0 l/m 0,6 km/h (0 Bft) O-NO 67 6,8 C 7,9 C 0,0 km/h (0 Bft)
03.05.2012 03:04 9,5 C 83 % 0,0 l/m 0,6 km/h (0 Bft) O-NO 67 6,8 C 7,9 C 0,0 km/h (0 Bft)
03.05.2012 03:05 9,5 C 83 % 0,0 l/m 0,6 km/h (0 Bft) NO 45 6,8 C 7,9 C 2,3 km/h (1 Bft)
03.05.2012 03:06 9,5 C 83 % 0,0 l/m 0,6 km/h (0 Bft) NO 45 6,8 C 7,9 C 2,3 km/h (1 Bft)
03.05.2012 03:07 9,5 C 83 % 0,0 l/m 0,8 km/h (0 Bft) O-SO 112 6,8 C 7,9 C 2,4 km/h (1 Bft)
03.05.2012 03:08 9,5 C 83 % 0,0 l/m 0,8 km/h (0 Bft) O-SO 112 6,8 C 7,9 C 2,4 km/h (1 Bft)
03.05.2012 03:09 9,5 C 83 % 0,0 l/m 1,1 km/h (1 Bft) O-SO 112 6,8 C 8,0 C 4,8 km/h (1 Bft)
03.05.2012 03:10 9,5 C 83 % 0,0 l/m 1,1 km/h (1 Bft) O-SO 112 6,8 C 8,0 C 4,8 km/h (1 Bft)
03.05.2012 03:11 9,5 C 83 % 0,0 l/m 1,4 km/h (1 Bft) SO 135 6,8 C 8,1 C 0,0 km/h (0 Bft)
03.05.2012 03:12 9,5 C 83 % 0,0 l/m 1,4 km/h (1 Bft) SO 135 6,8 C 8,1 C 0,0 km/h (0 Bft)
03.05.2012 03:13 9,5 C 82 % 0,0 l/m 1,9 km/h (1 Bft) SO 135 6,6 C 8,1 C 4,3 km/h (1 Bft)
03.05.2012 03:14 9,5 C 82 % 0,0 l/m 1,9 km/h (1 Bft) SO 135 6,6 C 8,1 C 4,3 km/h (1 Bft)
03.05.2012 03:15 9,6 C 82 % 0,0 l/m 2,4 km/h (1 Bft) O-SO 112 6,7 C 8,1 C 3,2 km/h (1 Bft)
03.05.2012 03:16 9,6 C 82 % 0,0 l/m 2,4 km/h (1 Bft) O-SO 112 6,7 C 8,1 C 3,2 km/h (1 Bft)
03.05.2012 03:17 9,6 C 82 % 0,0 l/m 2,7 km/h (1 Bft) O-SO 112 6,7 C 8,2 C 4,0 km/h (1 Bft)
03.05.2012 03:18 9,6 C 82 % 0,0 l/m 2,7 km/h (1 Bft) O-SO 112 6,7 C 8,2 C 4,0 km/h (1 Bft)
03.05.2012 03:19 9,7 C 82 % 0,0 l/m 2,7 km/h (1 Bft) N-NO 22 6,8 C 8,2 C 2,7 km/h (1 Bft)
03.05.2012 03:20 9,7 C 82 % 0,0 l/m 2,7 km/h (1 Bft) N-NO 22 6,8 C 8,2 C 2,7 km/h (1 Bft)
03.05.2012 03:21 9,6 C 82 % 0,0 l/m 2,6 km/h (1 Bft) SO 135 6,7 C 8,2 C 6,0 km/h (2 Bft)
03.05.2012 03:22 9,6 C 82 % 0,0 l/m 2,6 km/h (1 Bft) SO 135 6,7 C 8,2 C 6,0 km/h (2 Bft)
03.05.2012 03:23 9,7 C 82 % 0,0 l/m 2,6 km/h (1 Bft) NO 45 6,8 C 8,2 C 1,9 km/h (1 Bft)
03.05.2012 03:24 9,7 C 82 % 0,0 l/m 2,6 km/h (1 Bft) NO 45 6,8 C 8,2 C 1,9 km/h (1 Bft)
03.05.2012 03:25 9,6 C 82 % 0,0 l/m 2,3 km/h (1 Bft) O-NO 67 6,7 C 8,1 C 0,0 km/h (0 Bft)
03.05.2012 03:26 9,6 C 82 % 0,0 l/m 2,3 km/h (1 Bft) O-NO 67 6,7 C 8,1 C 0,0 km/h (0 Bft)
03.05.2012 03:27 9,6 C 82 % 0,0 l/m 1,8 km/h (1 Bft) N-NW 337 6,7 C 8,1 C 0,0 km/h (0 Bft)
03.05.2012 03:28 9,6 C 82 % 0,0 l/m 1,8 km/h (1 Bft) N-NW 337 6,7 C 8,1 C 0,0 km/h (0 Bft)
03.05.2012 03:29 9,6 C 82 % 0,0 l/m 1,4 km/h (1 Bft) N-NO 22 6,7 C 8,1 C 0,0 km/h (0 Bft)
03.05.2012 03:30 9,6 C 82 % 0,0 l/m 1,4 km/h (1 Bft) N-NO 22 6,7 C 8,1 C 0,0 km/h (0 Bft)
03.05.2012 03:31 9,6 C 82 % 0,0 l/m 1,1 km/h (1 Bft) O-SO 112 6,7 C 8,0 C 0,0 km/h (0 Bft)
03.05.2012 03:32 9,6 C 82 % 0,0 l/m 1,1 km/h (1 Bft) O-SO 112 6,7 C 8,0 C 0,0 km/h (0 Bft)
03.05.2012 03:33 9,6 C 82 % 0,0 l/m 0,8 km/h (0 Bft) SO 135 6,7 C 8,0 C 2,1 km/h (1 Bft)
03.05.2012 03:34 9,6 C 82 % 0,0 l/m 0,8 km/h (0 Bft) SO 135 6,7 C 8,0 C 2,1 km/h (1 Bft)
03.05.2012 03:35 9,5 C 83 % 0,0 l/m 1,0 km/h (0 Bft) SO 135 6,8 C 8,0 C 3,7 km/h (1 Bft)
03.05.2012 03:36 9,5 C 83 % 0,0 l/m 1,0 km/h (0 Bft) SO 135 6,8 C 8,0 C 3,7 km/h (1 Bft)
03.05.2012 03:37 9,5 C 83 % 0,0 l/m 1,0 km/h (0 Bft) W-NW 292 6,8 C 8,0 C 0,0 km/h (0 Bft)
03.05.2012 03:38 9,5 C 83 % 0,0 l/m 1,0 km/h (0 Bft) W-NW 292 6,8 C 8,0 C 0,0 km/h (0 Bft)
03.05.2012 03:39 9,5 C 83 % 0,0 l/m 0,8 km/h (0 Bft) SO 135 6,8 C 8,0 C 1,8 km/h (1 Bft)
03.05.2012 03:40 9,5 C 83 % 0,0 l/m 0,8 km/h (0 Bft) SO 135 6,8 C 8,0 C 1,8 km/h (1 Bft)
03.05.2012 03:41 9,5 C 83 % 0,0 l/m 1,0 km/h (0 Bft) O 90 6,8 C 8,0 C 2,6 km/h (1 Bft)
03.05.2012 03:42 9,5 C 83 % 0,0 l/m 1,0 km/h (0 Bft) O 90 6,8 C 8,0 C 2,6 km/h (1 Bft)
03.05.2012 03:43 9,5 C 83 % 0,0 l/m 1,0 km/h (0 Bft) N-NO 22 6,8 C 8,0 C 0,0 km/h (0 Bft)
03.05.2012 03:44 9,5 C 83 % 0,0 l/m 1,0 km/h (0 Bft) N-NO 22 6,8 C 8,0 C 0,0 km/h (0 Bft)
03.05.2012 03:45 9,5 C 83 % 0,0 l/m 0,8 km/h (0 Bft) O 90 6,8 C 8,0 C 0,0 km/h (0 Bft)
03.05.2012 03:46 9,5 C 83 % 0,0 l/m 0,8 km/h (0 Bft) O 90 6,8 C 8,0 C 0,0 km/h (0 Bft)
03.05.2012 03:47 9,5 C 83 % 0,0 l/m 0,8 km/h (0 Bft) SO 135 6,8 C 8,0 C 3,5 km/h (1 Bft)
03.05.2012 03:48 9,5 C 83 % 0,0 l/m 0,8 km/h (0 Bft) SO 135 6,8 C 8,0 C 3,5 km/h (1 Bft)
03.05.2012 03:49 9,5 C 83 % 0,0 l/m 1,0 km/h (0 Bft) O-SO 112 6,8 C 8,0 C 1,9 km/h (1 Bft)
03.05.2012 03:50 9,5 C 83 % 0,0 l/m 1,0 km/h (0 Bft) O-SO 112 6,8 C 8,0 C 1,9 km/h (1 Bft)
03.05.2012 03:51 9,5 C 83 % 0,0 l/m 0,8 km/h (0 Bft) O-SO 112 6,8 C 8,1 C 0,0 km/h (0 Bft)
03.05.2012 03:52 9,5 C 83 % 0,0 l/m 0,8 km/h (0 Bft) O-SO 112 6,8 C 8,1 C 0,0 km/h (0 Bft)
03.05.2012 03:53 9,4 C 83 % 0,0 l/m 0,6 km/h (0 Bft) N-NO 22 6,7 C 8,1 C 0,0 km/h (0 Bft)
03.05.2012 03:54 9,4 C 83 % 0,0 l/m 0,6 km/h (0 Bft) N-NO 22 6,7 C 8,1 C 0,0 km/h (0 Bft)
03.05.2012 03:55 9,4 C 83 % 0,0 l/m 0,6 km/h (0 Bft) S 180 6,7 C 8,0 C 0,0 km/h (0 Bft)
03.05.2012 03:56 9,4 C 83 % 0,0 l/m 0,6 km/h (0 Bft) S 180 6,7 C 8,0 C 0,0 km/h (0 Bft)
03.05.2012 03:57 9,5 C 83 % 0,0 l/m 0,5 km/h (0 Bft) O-NO 67 6,8 C 8,0 C 0,0 km/h (0 Bft)
03.05.2012 03:58 9,5 C 83 % 0,0 l/m 0,5 km/h (0 Bft) O-NO 67 6,8 C 8,0 C 0,0 km/h (0 Bft)
03.05.2012 03:59 9,4 C 83 % 0,0 l/m 0,2 km/h (0 Bft) N-NW 337 6,7 C 7,9 C 0,0 km/h (0 Bft)
03.05.2012 04:00 9,4 C 83 % 0,0 l/m 0,2 km/h (0 Bft) N-NW 337 6,7 C 7,9 C 0,0 km/h (0 Bft)
03.05.2012 04:01 9,3 C 84 % 0,0 l/m 0,0 km/h (0 Bft) N-NW 337 6,7 C 7,9 C 0,0 km/h (0 Bft)
03.05.2012 04:02 9,3 C 84 % 0,0 l/m 0,0 km/h (0 Bft) N-NW 337 6,7 C 7,9 C 0,0 km/h (0 Bft)
03.05.2012 04:03 9,3 C 84 % 0,0 l/m 0,0 km/h (0 Bft) N 360 6,7 C 7,9 C 0,0 km/h (0 Bft)
03.05.2012 04:04 9,3 C 84 % 0,0 l/m 0,0 km/h (0 Bft) N 360 6,7 C 7,9 C 0,0 km/h (0 Bft)
03.05.2012 04:05 9,3 C 84 % 0,0 l/m 0,0 km/h (0 Bft) N-NO 22 6,7 C 7,8 C 0,0 km/h (0 Bft)
03.05.2012 04:06 9,3 C 84 % 0,0 l/m 0,0 km/h (0 Bft) N-NO 22 6,7 C 7,8 C 0,0 km/h (0 Bft)
03.05.2012 04:07 9,3 C 84 % 0,0 l/m 0,0 km/h (0 Bft) N-NO 22 6,7 C 7,8 C 0,0 km/h (0 Bft)
03.05.2012 04:08 9,3 C 84 % 0,0 l/m 0,0 km/h (0 Bft) N-NO 22 6,7 C 7,8 C 0,0 km/h (0 Bft)
03.05.2012 04:09 9,3 C 84 % 0,0 l/m 0,0 km/h (0 Bft) N-NW 337 6,7 C 7,8 C 1,6 km/h (1 Bft)
03.05.2012 04:10 9,3 C 84 % 0,0 l/m 0,0 km/h (0 Bft) N-NW 337 6,7 C 7,8 C 1,6 km/h (1 Bft)
03.05.2012 04:11 9,5 C 84 % 0,0 l/m 0,0 km/h (0 Bft) S-SW 202 6,9 C 7,8 C 0,0 km/h (0 Bft)
03.05.2012 04:12 9,5 C 84 % 0,0 l/m 0,0 km/h (0 Bft) S-SW 202 6,9 C 7,8 C 0,0 km/h (0 Bft)
03.05.2012 04:13 9,5 C 84 % 0,0 l/m 0,0 km/h (0 Bft) SO 135 6,9 C 7,8 C 0,0 km/h (0 Bft)
03.05.2012 04:14 9,5 C 84 % 0,0 l/m 0,0 km/h (0 Bft) SO 135 6,9 C 7,8 C 0,0 km/h (0 Bft)
03.05.2012 04:15 9,5 C 84 % 0,0 l/m 0,3 km/h (0 Bft) SO 135 6,9 C 7,8 C 0,0 km/h (0 Bft)
03.05.2012 04:16 9,5 C 84 % 0,0 l/m 0,3 km/h (0 Bft) SO 135 6,9 C 7,8 C 0,0 km/h (0 Bft)
03.05.2012 04:17 9,5 C 84 % 0,0 l/m 0,6 km/h (0 Bft) O-SO 112 6,9 C 7,8 C 4,2 km/h (1 Bft)
03.05.2012 04:18 9,5 C 84 % 0,0 l/m 0,6 km/h (0 Bft) O-SO 112 6,9 C 7,8 C 4,2 km/h (1 Bft)
03.05.2012 04:19 9,5 C 84 % 0,0 l/m 1,1 km/h (1 Bft) O-SO 112 6,9 C 7,8 C 3,9 km/h (1 Bft)
03.05.2012 04:20 9,5 C 84 % 0,0 l/m 1,1 km/h (1 Bft) O-SO 112 6,9 C 7,8 C 3,9 km/h (1 Bft)
03.05.2012 04:21 9,4 C 83 % 0,0 l/m 1,9 km/h (1 Bft) S 180 6,7 C 7,9 C 3,9 km/h (1 Bft)
03.05.2012 04:22 9,4 C 83 % 0,0 l/m 1,9 km/h (1 Bft) S 180 6,7 C 7,9 C 3,9 km/h (1 Bft)
03.05.2012 04:23 9,5 C 83 % 0,0 l/m 2,6 km/h (1 Bft) O-SO 112 6,8 C 8,0 C 4,8 km/h (1 Bft)
03.05.2012 04:24 9,5 C 83 % 0,0 l/m 2,6 km/h (1 Bft) O-SO 112 6,8 C 8,0 C 4,8 km/h (1 Bft)
03.05.2012 04:25 9,4 C 83 % 0,0 l/m 2,9 km/h (1 Bft) S-SO 157 6,7 C 8,0 C 3,1 km/h (1 Bft)
03.05.2012 04:26 9,4 C 83 % 0,0 l/m 2,9 km/h (1 Bft) S-SO 157 6,7 C 8,0 C 3,1 km/h (1 Bft)
03.05.2012 04:27 9,5 C 83 % 0,0 l/m 3,2 km/h (1 Bft) O-SO 112 6,8 C 8,0 C 2,7 km/h (1 Bft)
03.05.2012 04:28 9,5 C 83 % 0,0 l/m 3,2 km/h (1 Bft) O-SO 112 6,8 C 8,0 C 2,7 km/h (1 Bft)
03.05.2012 04:29 9,5 C 83 % 0,0 l/m 2,7 km/h (1 Bft) S-SO 157 6,8 C 8,1 C 0,0 km/h (0 Bft)
03.05.2012 04:30 9,5 C 83 % 0,0 l/m 2,7 km/h (1 Bft) S-SO 157 6,8 C 8,1 C 0,0 km/h (0 Bft)
03.05.2012 04:31 9,5 C 83 % 0,0 l/m 2,3 km/h (1 Bft) N 360 6,8 C 8,1 C 0,0 km/h (0 Bft)
03.05.2012 04:32 9,5 C 83 % 0,0 l/m 2,3 km/h (1 Bft) N 360 6,8 C 8,1 C 0,0 km/h (0 Bft)
03.05.2012 04:33 9,4 C 83 % 0,0 l/m 1,6 km/h (1 Bft) W-NW 292 6,7 C 8,1 C 0,0 km/h (0 Bft)
03.05.2012 04:34 9,4 C 83 % 0,0 l/m 1,6 km/h (1 Bft) W-NW 292 6,7 C 8,1 C 0,0 km/h (0 Bft)
03.05.2012 04:35 9,5 C 83 % 0,0 l/m 1,0 km/h (0 Bft) N-NO 22 6,8 C 8,0 C 1,6 km/h (1 Bft)
03.05.2012 04:36 9,5 C 83 % 0,0 l/m 1,0 km/h (0 Bft) N-NO 22 6,8 C 8,0 C 1,6 km/h (1 Bft)
03.05.2012 04:37 9,5 C 83 % 0,0 l/m 0,5 km/h (0 Bft) N-NO 22 6,8 C 8,0 C 0,0 km/h (0 Bft)
03.05.2012 04:38 9,5 C 83 % 0,0 l/m 0,5 km/h (0 Bft) N-NO 22 6,8 C 8,0 C 0,0 km/h (0 Bft)
03.05.2012 04:39 9,5 C 83 % 0,0 l/m 0,2 km/h (0 Bft) N-NW 337 6,8 C 7,9 C 0,0 km/h (0 Bft)
03.05.2012 04:40 9,5 C 83 % 0,0 l/m 0,2 km/h (0 Bft) N-NW 337 6,8 C 7,9 C 0,0 km/h (0 Bft)
03.05.2012 04:41 9,5 C 84 % 0,0 l/m 0,3 km/h (0 Bft) S 180 6,9 C 7,9 C 2,3 km/h (1 Bft)
03.05.2012 04:42 9,5 C 84 % 0,0 l/m 0,3 km/h (0 Bft) S 180 6,9 C 7,9 C 2,3 km/h (1 Bft)
03.05.2012 04:43 9,5 C 83 % 0,0 l/m 1,0 km/h (0 Bft) SO 135 6,8 C 7,9 C 4,0 km/h (1 Bft)
03.05.2012 04:44 9,5 C 83 % 0,0 l/m 1,0 km/h (0 Bft) SO 135 6,8 C 7,9 C 4,0 km/h (1 Bft)
03.05.2012 04:45 9,5 C 83 % 0,0 l/m 1,4 km/h (1 Bft) SO 135 6,8 C 7,9 C 4,5 km/h (1 Bft)
03.05.2012 04:46 9,5 C 83 % 0,0 l/m 1,4 km/h (1 Bft) SO 135 6,8 C 7,9 C 4,5 km/h (1 Bft)
03.05.2012 04:47 9,5 C 83 % 0,0 l/m 1,8 km/h (1 Bft) O-SO 112 6,8 C 8,0 C 1,8 km/h (1 Bft)
03.05.2012 04:48 9,5 C 83 % 0,0 l/m 1,8 km/h (1 Bft) O-SO 112 6,8 C 8,0 C 1,8 km/h (1 Bft)
03.05.2012 04:49 9,5 C 83 % 0,0 l/m 1,9 km/h (1 Bft) O-SO 112 6,8 C 8,0 C 0,0 km/h (0 Bft)
03.05.2012 04:50 9,5 C 83 % 0,0 l/m 1,9 km/h (1 Bft) O-SO 112 6,8 C 8,0 C 0,0 km/h (0 Bft)
03.05.2012 04:51 9,5 C 83 % 0,0 l/m 1,9 km/h (1 Bft) N-NO 22 6,8 C 8,0 C 1,8 km/h (1 Bft)
03.05.2012 04:52 9,5 C 83 % 0,0 l/m 1,9 km/h (1 Bft) N-NO 22 6,8 C 8,0 C 1,8 km/h (1 Bft)
03.05.2012 04:53 9,3 C 83 % 0,0 l/m 1,4 km/h (1 Bft) O-SO 112 6,6 C 8,0 C 0,0 km/h (0 Bft)
03.05.2012 04:54 9,3 C 83 % 0,0 l/m 1,4 km/h (1 Bft) O-SO 112 6,6 C 8,0 C 0,0 km/h (0 Bft)
03.05.2012 04:55 9,3 C 83 % 0,0 l/m 1,0 km/h (0 Bft) N 360 6,6 C 7,9 C 1,6 km/h (1 Bft)
03.05.2012 04:56 9,3 C 83 % 0,0 l/m 1,0 km/h (0 Bft) N 360 6,6 C 7,9 C 1,6 km/h (1 Bft)
03.05.2012 04:57 9,3 C 83 % 0,0 l/m 0,5 km/h (0 Bft) N 360 6,6 C 7,9 C 0,0 km/h (0 Bft)
03.05.2012 04:58 9,3 C 83 % 0,0 l/m 0,5 km/h (0 Bft) N 360 6,6 C 7,9 C 0,0 km/h (0 Bft)
03.05.2012 04:59 9,3 C 83 % 0,0 l/m 0,3 km/h (0 Bft) N-NW 337 6,6 C 7,8 C 0,0 km/h (0 Bft)
03.05.2012 05:00 9,3 C 83 % 0,0 l/m 0,3 km/h (0 Bft) N-NW 337 6,6 C 7,8 C 0,0 km/h (0 Bft)
03.05.2012 05:01 9,2 C 83 % 0,0 l/m 0,3 km/h (0 Bft) N-NO 22 6,5 C 7,8 C 0,0 km/h (0 Bft)
03.05.2012 05:02 9,2 C 83 % 0,0 l/m 0,3 km/h (0 Bft) N-NO 22 6,5 C 7,8 C 0,0 km/h (0 Bft)
03.05.2012 05:03 9,2 C 83 % 0,0 l/m 0,3 km/h (0 Bft) N-NW 337 6,5 C 7,8 C 2,7 km/h (1 Bft)
03.05.2012 05:04 9,2 C 83 % 0,0 l/m 0,3 km/h (0 Bft) N-NW 337 6,5 C 7,8 C 2,7 km/h (1 Bft)
03.05.2012 05:05 9,2 C 83 % 0,0 l/m 0,3 km/h (0 Bft) O 90 6,5 C 7,8 C 2,1 km/h (1 Bft)
03.05.2012 05:06 9,2 C 83 % 0,0 l/m 0,3 km/h (0 Bft) O 90 6,5 C 7,8 C 2,1 km/h (1 Bft)
03.05.2012 05:07 9,3 C 83 % 0,0 l/m 0,6 km/h (0 Bft) O-SO 112 6,6 C 7,8 C 1,8 km/h (1 Bft)
03.05.2012 05:08 9,3 C 83 % 0,0 l/m 0,6 km/h (0 Bft) O-SO 112 6,6 C 7,8 C 1,8 km/h (1 Bft)
03.05.2012 05:09 9,3 C 83 % 0,0 l/m 0,6 km/h (0 Bft) NO 45 6,6 C 7,8 C 0,0 km/h (0 Bft)
03.05.2012 05:10 9,3 C 83 % 0,0 l/m 0,6 km/h (0 Bft) NO 45 6,6 C 7,8 C 0,0 km/h (0 Bft)
03.05.2012 05:11 9,3 C 83 % 0,0 l/m 1,0 km/h (0 Bft) SO 135 6,6 C 7,8 C 3,7 km/h (1 Bft)
03.05.2012 05:12 9,3 C 83 % 0,0 l/m 1,0 km/h (0 Bft) SO 135 6,6 C 7,8 C 3,7 km/h (1 Bft)
03.05.2012 05:13 9,3 C 83 % 0,0 l/m 1,4 km/h (1 Bft) SO 135 6,6 C 7,8 C 1,9 km/h (1 Bft)
03.05.2012 05:14 9,3 C 83 % 0,0 l/m 1,4 km/h (1 Bft) SO 135 6,6 C 7,8 C 1,9 km/h (1 Bft)
03.05.2012 05:15 9,3 C 83 % 0,0 l/m 1,8 km/h (1 Bft) O-SO 112 6,6 C 7,8 C 0,0 km/h (0 Bft)
03.05.2012 05:16 9,3 C 83 % 0,0 l/m 1,8 km/h (1 Bft) O-SO 112 6,6 C 7,8 C 0,0 km/h (0 Bft)
03.05.2012 05:17 9,2 C 83 % 0,0 l/m 1,6 km/h (1 Bft) O-NO 67 6,5 C 7,9 C 0,0 km/h (0 Bft)
03.05.2012 05:18 9,2 C 83 % 0,0 l/m 1,6 km/h (1 Bft) O-NO 67 6,5 C 7,9 C 0,0 km/h (0 Bft)
03.05.2012 05:19 9,1 C 83 % 0,0 l/m 1,6 km/h (1 Bft) NO 45 6,4 C 7,9 C 3,4 km/h (1 Bft)
03.05.2012 05:20 9,1 C 83 % 0,0 l/m 1,6 km/h (1 Bft) NO 45 6,4 C 7,9 C 3,4 km/h (1 Bft)
03.05.2012 05:21 9,2 C 83 % 0,0 l/m 2,3 km/h (1 Bft) O-SO 112 6,5 C 7,9 C 4,5 km/h (1 Bft)
03.05.2012 05:22 9,2 C 83 % 0,0 l/m 2,3 km/h (1 Bft) O-SO 112 6,5 C 7,9 C 4,5 km/h (1 Bft)
03.05.2012 05:23 9,2 C 83 % 0,0 l/m 1,9 km/h (1 Bft) NO 45 6,5 C 7,9 C 1,6 km/h (1 Bft)
03.05.2012 05:24 9,2 C 83 % 0,0 l/m 1,9 km/h (1 Bft) NO 45 6,5 C 7,9 C 1,6 km/h (1 Bft)
03.05.2012 05:25 9,2 C 83 % 0,0 l/m 1,6 km/h (1 Bft) N 360 6,5 C 8,0 C 1,6 km/h (1 Bft)
03.05.2012 05:26 9,2 C 83 % 0,0 l/m 1,6 km/h (1 Bft) N 360 6,5 C 8,0 C 1,6 km/h (1 Bft)
03.05.2012 05:27 9,3 C 83 % 0,0 l/m 1,6 km/h (1 Bft) N-NO 22 6,6 C 7,9 C 1,9 km/h (1 Bft)
03.05.2012 05:28 9,3 C 83 % 0,0 l/m 1,6 km/h (1 Bft) N-NO 22 6,6 C 7,9 C 1,9 km/h (1 Bft)
03.05.2012 05:29 9,3 C 83 % 0,0 l/m 1,6 km/h (1 Bft) N 360 6,6 C 7,9 C 0,0 km/h (0 Bft)
03.05.2012 05:30 9,3 C 83 % 0,0 l/m 1,6 km/h (1 Bft) N 360 6,6 C 7,9 C 0,0 km/h (0 Bft)
03.05.2012 05:31 9,2 C 83 % 0,0 l/m 1,1 km/h (1 Bft) N-NO 22 6,5 C 7,9 C 0,0 km/h (0 Bft)
03.05.2012 05:32 9,2 C 83 % 0,0 l/m 1,1 km/h (1 Bft) N-NO 22 6,5 C 7,9 C 0,0 km/h (0 Bft)
03.05.2012 05:33 9,1 C 83 % 0,0 l/m 0,5 km/h (0 Bft) S-SO 157 6,4 C 7,8 C 0,0 km/h (0 Bft)
03.05.2012 05:34 9,1 C 83 % 0,0 l/m 0,5 km/h (0 Bft) S-SO 157 6,4 C 7,8 C 0,0 km/h (0 Bft)
03.05.2012 05:35 9,1 C 84 % 0,0 l/m 0,5 km/h (0 Bft) N-NO 22 6,5 C 7,8 C 0,0 km/h (0 Bft)
03.05.2012 05:36 9,1 C 84 % 0,0 l/m 0,5 km/h (0 Bft) N-NO 22 6,5 C 7,8 C 0,0 km/h (0 Bft)
03.05.2012 05:37 9,3 C 84 % 0,0 l/m 0,2 km/h (0 Bft) O-SO 112 6,7 C 7,8 C 0,0 km/h (0 Bft)
03.05.2012 05:38 9,3 C 84 % 0,0 l/m 0,2 km/h (0 Bft) O-SO 112 6,7 C 7,8 C 0,0 km/h (0 Bft)
03.05.2012 05:39 9,2 C 84 % 0,0 l/m 0,0 km/h (0 Bft) SO 135 6,6 C 7,7 C 0,0 km/h (0 Bft)
03.05.2012 05:40 9,2 C 84 % 0,0 l/m 0,0 km/h (0 Bft) SO 135 6,6 C 7,7 C 0,0 km/h (0 Bft)
03.05.2012 05:41 9,3 C 84 % 0,0 l/m 0,2 km/h (0 Bft) NO 45 6,7 C 7,7 C 2,4 km/h (1 Bft)
03.05.2012 05:42 9,3 C 84 % 0,0 l/m 0,2 km/h (0 Bft) NO 45 6,7 C 7,7 C 2,4 km/h (1 Bft)
03.05.2012 05:43 9,2 C 83 % 0,0 l/m 0,5 km/h (0 Bft) O 90 6,5 C 7,7 C 3,2 km/h (1 Bft)
03.05.2012 05:44 9,2 C 83 % 0,0 l/m 0,5 km/h (0 Bft) O 90 6,5 C 7,7 C 3,2 km/h (1 Bft)
03.05.2012 05:45 9,3 C 83 % 0,0 l/m 1,1 km/h (1 Bft) O-SO 112 6,6 C 7,8 C 2,7 km/h (1 Bft)
03.05.2012 05:46 9,3 C 83 % 0,0 l/m 1,1 km/h (1 Bft) O-SO 112 6,6 C 7,8 C 2,7 km/h (1 Bft)
03.05.2012 05:47 9,3 C 83 % 0,0 l/m 1,3 km/h (1 Bft) O-SO 112 6,6 C 7,8 C 1,9 km/h (1 Bft)
03.05.2012 05:48 9,3 C 83 % 0,0 l/m 1,3 km/h (1 Bft) O-SO 112 6,6 C 7,8 C 1,9 km/h (1 Bft)
03.05.2012 05:49 9,2 C 83 % 0,0 l/m 1,4 km/h (1 Bft) NO 45 6,5 C 7,8 C 0,0 km/h (0 Bft)
03.05.2012 05:50 9,2 C 83 % 0,0 l/m 1,4 km/h (1 Bft) NO 45 6,5 C 7,8 C 0,0 km/h (0 Bft)
03.05.2012 05:51 9,2 C 83 % 0,0 l/m 1,8 km/h (1 Bft) O-NO 67 6,5 C 7,8 C 2,1 km/h (1 Bft)
03.05.2012 05:52 9,2 C 83 % 0,0 l/m 1,8 km/h (1 Bft) O-NO 67 6,5 C 7,8 C 2,1 km/h (1 Bft)
03.05.2012 05:53 9,2 C 83 % 0,0 l/m 1,6 km/h (1 Bft) N 360 6,5 C 7,8 C 0,0 km/h (0 Bft)
03.05.2012 05:54 9,2 C 83 % 0,0 l/m 1,6 km/h (1 Bft) N 360 6,5 C 7,8 C 0,0 km/h (0 Bft)
03.05.2012 05:55 9,2 C 83 % 0,0 l/m 1,1 km/h (1 Bft) N-NW 337 6,5 C 7,8 C 0,0 km/h (0 Bft)
03.05.2012 05:56 9,2 C 83 % 0,0 l/m 1,1 km/h (1 Bft) N-NW 337 6,5 C 7,8 C 0,0 km/h (0 Bft)
03.05.2012 05:57 9,2 C 83 % 0,0 l/m 0,8 km/h (0 Bft) N-NW 337 6,5 C 7,8 C 0,0 km/h (0 Bft)
03.05.2012 05:58 9,2 C 83 % 0,0 l/m 0,8 km/h (0 Bft) N-NW 337 6,5 C 7,8 C 0,0 km/h (0 Bft)
03.05.2012 05:59 9,2 C 83 % 0,0 l/m 0,6 km/h (0 Bft) N 360 6,5 C 7,8 C 0,0 km/h (0 Bft)
03.05.2012 06:00 9,2 C 83 % 0,0 l/m 0,6 km/h (0 Bft) N 360 6,5 C 7,8 C 0,0 km/h (0 Bft)
03.05.2012 06:01 9,1 C 83 % 0,0 l/m 0,6 km/h (0 Bft) N-NO 22 6,4 C 7,8 C 0,0 km/h (0 Bft)
03.05.2012 06:02 9,1 C 83 % 0,0 l/m 0,6 km/h (0 Bft) N-NO 22 6,4 C 7,8 C 0,0 km/h (0 Bft)
03.05.2012 06:03 9,0 C 83 % 0,0 l/m 0,3 km/h (0 Bft) W-NW 292 6,3 C 7,7 C 0,0 km/h (0 Bft)
03.05.2012 06:04 9,0 C 83 % 0,0 l/m 0,3 km/h (0 Bft) W-NW 292 6,3 C 7,7 C 0,0 km/h (0 Bft)
03.05.2012 06:05 9,1 C 83 % 0,0 l/m 0,2 km/h (0 Bft) N-NW 337 6,4 C 7,7 C 0,0 km/h (0 Bft)
03.05.2012 06:06 9,1 C 83 % 0,0 l/m 0,2 km/h (0 Bft) N-NW 337 6,4 C 7,7 C 0,0 km/h (0 Bft)
03.05.2012 06:07 9,1 C 83 % 0,0 l/m 0,2 km/h (0 Bft) N 360 6,4 C 7,6 C 0,0 km/h (0 Bft)
03.05.2012 06:08 9,1 C 83 % 0,0 l/m 0,2 km/h (0 Bft) N 360 6,4 C 7,6 C 0,0 km/h (0 Bft)
03.05.2012 06:09 9,2 C 83 % 0,0 l/m 0,0 km/h (0 Bft) W-SW 247 6,5 C 7,6 C 0,0 km/h (0 Bft)
03.05.2012 06:10 9,2 C 83 % 0,0 l/m 0,0 km/h (0 Bft) W-SW 247 6,5 C 7,6 C 0,0 km/h (0 Bft)
03.05.2012 06:11 9,1 C 83 % 0,0 l/m 0,0 km/h (0 Bft) SO 135 6,4 C 7,6 C 0,0 km/h (0 Bft)
03.05.2012 06:12 9,1 C 83 % 0,0 l/m 0,0 km/h (0 Bft) SO 135 6,4 C 7,6 C 0,0 km/h (0 Bft)
03.05.2012 06:13 9,1 C 83 % 0,0 l/m 0,0 km/h (0 Bft) N 360 6,4 C 7,6 C 0,0 km/h (0 Bft)
03.05.2012 06:14 9,1 C 83 % 0,0 l/m 0,0 km/h (0 Bft) N 360 6,4 C 7,6 C 0,0 km/h (0 Bft)
03.05.2012 06:15 9,2 C 84 % 0,0 l/m 0,0 km/h (0 Bft) N 360 6,6 C 7,6 C 0,0 km/h (0 Bft)
03.05.2012 06:16 9,2 C 84 % 0,0 l/m 0,0 km/h (0 Bft) N 360 6,6 C 7,6 C 0,0 km/h (0 Bft)
03.05.2012 06:17 9,2 C 84 % 0,0 l/m 0,2 km/h (0 Bft) O-SO 112 6,6 C 7,6 C 3,7 km/h (1 Bft)
03.05.2012 06:18 9,2 C 84 % 0,0 l/m 0,2 km/h (0 Bft) O-SO 112 6,6 C 7,6 C 3,7 km/h (1 Bft)
03.05.2012 06:19 9,2 C 84 % 0,0 l/m 0,6 km/h (0 Bft) O-SO 112 6,6 C 7,6 C 3,4 km/h (1 Bft)
03.05.2012 06:20 9,2 C 84 % 0,0 l/m 0,6 km/h (0 Bft) O-SO 112 6,6 C 7,6 C 3,4 km/h (1 Bft)
03.05.2012 06:21 9,2 C 84 % 0,0 l/m 0,8 km/h (0 Bft) N-NW 337 6,6 C 7,7 C 0,0 km/h (0 Bft)
03.05.2012 06:22 9,2 C 84 % 0,0 l/m 0,8 km/h (0 Bft) N-NW 337 6,6 C 7,7 C 0,0 km/h (0 Bft)
03.05.2012 06:23 9,2 C 84 % 0,0 l/m 0,8 km/h (0 Bft) NO 45 6,6 C 7,8 C 0,0 km/h (0 Bft)
03.05.2012 06:24 9,2 C 84 % 0,0 l/m 0,8 km/h (0 Bft) NO 45 6,6 C 7,8 C 0,0 km/h (0 Bft)
03.05.2012 06:25 9,3 C 84 % 0,0 l/m 1,0 km/h (0 Bft) SO 135 6,7 C 7,8 C 0,0 km/h (0 Bft)
03.05.2012 06:26 9,3 C 84 % 0,0 l/m 1,0 km/h (0 Bft) SO 135 6,7 C 7,8 C 0,0 km/h (0 Bft)
03.05.2012 06:27 9,3 C 84 % 0,0 l/m 1,0 km/h (0 Bft) N-NO 22 6,7 C 7,8 C 0,0 km/h (0 Bft)
03.05.2012 06:28 9,3 C 84 % 0,0 l/m 1,0 km/h (0 Bft) N-NO 22 6,7 C 7,8 C 0,0 km/h (0 Bft)
03.05.2012 06:29 9,2 C 84 % 0,0 l/m 0,6 km/h (0 Bft) NO 45 6,6 C 7,8 C 1,8 km/h (1 Bft)
03.05.2012 06:30 9,2 C 84 % 0,0 l/m 0,6 km/h (0 Bft) NO 45 6,6 C 7,8 C 1,8 km/h (1 Bft)
03.05.2012 06:31 9,2 C 84 % 0,0 l/m 0,3 km/h (0 Bft) N-NO 22 6,6 C 7,8 C 0,0 km/h (0 Bft)
03.05.2012 06:32 9,2 C 84 % 0,0 l/m 0,3 km/h (0 Bft) N-NO 22 6,6 C 7,8 C 0,0 km/h (0 Bft)
03.05.2012 06:33 9,2 C 84 % 0,0 l/m 0,2 km/h (0 Bft) N-NO 22 6,6 C 7,8 C 0,0 km/h (0 Bft)
03.05.2012 06:34 9,2 C 84 % 0,0 l/m 0,2 km/h (0 Bft) N-NO 22 6,6 C 7,8 C 0,0 km/h (0 Bft)
03.05.2012 06:35 9,2 C 84 % 0,0 l/m 0,2 km/h (0 Bft) NO 45 6,6 C 7,8 C 0,0 km/h (0 Bft)
03.05.2012 06:36 9,2 C 84 % 0,0 l/m 0,2 km/h (0 Bft) NO 45 6,6 C 7,8 C 0,0 km/h (0 Bft)
03.05.2012 06:37 9,2 C 84 % 0,0 l/m 0,0 km/h (0 Bft) N-NO 22 6,6 C 7,8 C 0,0 km/h (0 Bft)
03.05.2012 06:38 9,2 C 84 % 0,0 l/m 0,0 km/h (0 Bft) N-NO 22 6,6 C 7,8 C 0,0 km/h (0 Bft)
03.05.2012 06:39 9,3 C 84 % 0,0 l/m 0,0 km/h (0 Bft) W 270 6,7 C 7,8 C 0,0 km/h (0 Bft)
03.05.2012 06:40 9,3 C 84 % 0,0 l/m 0,0 km/h (0 Bft) W 270 6,7 C 7,8 C 0,0 km/h (0 Bft)
03.05.2012 06:41 9,3 C 84 % 0,0 l/m 0,0 km/h (0 Bft) W 270 6,7 C 7,8 C 0,0 km/h (0 Bft)
03.05.2012 06:42 9,3 C 84 % 0,0 l/m 0,0 km/h (0 Bft) W 270 6,7 C 7,8 C 0,0 km/h (0 Bft)
03.05.2012 06:43 9,5 C 84 % 0,0 l/m 0,0 km/h (0 Bft) W-NW 292 6,9 C 7,8 C 0,0 km/h (0 Bft)
03.05.2012 06:44 9,5 C 84 % 0,0 l/m 0,0 km/h (0 Bft) W-NW 292 6,9 C 7,8 C 0,0 km/h (0 Bft)
03.05.2012 06:45 9,4 C 84 % 0,0 l/m 0,0 km/h (0 Bft) W-SW 247 6,8 C 7,8 C 0,0 km/h (0 Bft)
03.05.2012 06:46 9,4 C 84 % 0,0 l/m 0,0 km/h (0 Bft) W-SW 247 6,8 C 7,8 C 0,0 km/h (0 Bft)
03.05.2012 06:47 9,4 C 84 % 0,0 l/m 0,0 km/h (0 Bft) S 180 6,8 C 7,8 C 0,0 km/h (0 Bft)
03.05.2012 06:48 9,4 C 84 % 0,0 l/m 0,0 km/h (0 Bft) S 180 6,8 C 7,8 C 0,0 km/h (0 Bft)
03.05.2012 06:49 9,5 C 84 % 0,0 l/m 0,2 km/h (0 Bft) NO 45 6,9 C 7,9 C 2,1 km/h (1 Bft)
03.05.2012 06:50 9,5 C 84 % 0,0 l/m 0,2 km/h (0 Bft) NO 45 6,9 C 7,9 C 2,1 km/h (1 Bft)
03.05.2012 06:51 9,5 C 84 % 0,0 l/m 0,8 km/h (0 Bft) O-NO 67 6,9 C 8,0 C 3,5 km/h (1 Bft)
03.05.2012 06:52 9,5 C 84 % 0,0 l/m 0,8 km/h (0 Bft) O-NO 67 6,9 C 8,0 C 3,5 km/h (1 Bft)
03.05.2012 06:53 9,5 C 83 % 0,0 l/m 1,3 km/h (1 Bft) O-NO 67 6,8 C 8,1 C 4,5 km/h (1 Bft)
03.05.2012 06:54 9,5 C 83 % 0,0 l/m 1,3 km/h (1 Bft) O-NO 67 6,8 C 8,1 C 4,5 km/h (1 Bft)
03.05.2012 06:55 9,5 C 83 % 0,0 l/m 1,6 km/h (1 Bft) W-SW 247 6,8 C 8,1 C 1,8 km/h (1 Bft)
03.05.2012 06:56 9,5 C 83 % 0,0 l/m 1,6 km/h (1 Bft) W-SW 247 6,8 C 8,1 C 1,8 km/h (1 Bft)
03.05.2012 06:57 9,5 C 83 % 0,0 l/m 1,8 km/h (1 Bft) S 180 6,8 C 8,2 C 0,0 km/h (0 Bft)
03.05.2012 06:58 9,5 C 83 % 0,0 l/m 1,8 km/h (1 Bft) S 180 6,8 C 8,2 C 0,0 km/h (0 Bft)
03.05.2012 06:59 9,4 C 83 % 0,0 l/m 1,6 km/h (1 Bft) SO 135 6,7 C 8,3 C 0,0 km/h (0 Bft)
03.05.2012 07:00 9,4 C 83 % 0,0 l/m 1,6 km/h (1 Bft) SO 135 6,7 C 8,3 C 0,0 km/h (0 Bft)
03.05.2012 07:01 9,5 C 83 % 0,0 l/m 1,3 km/h (1 Bft) N-NW 337 6,8 C 8,3 C 0,0 km/h (0 Bft)
03.05.2012 07:02 9,5 C 83 % 0,0 l/m 1,3 km/h (1 Bft) N-NW 337 6,8 C 8,3 C 0,0 km/h (0 Bft)
03.05.2012 07:03 9,6 C 84 % 0,0 l/m 0,8 km/h (0 Bft) NO 45 7,0 C 8,4 C 0,0 km/h (0 Bft)
03.05.2012 07:04 9,6 C 84 % 0,0 l/m 0,8 km/h (0 Bft) NO 45 7,0 C 8,4 C 0,0 km/h (0 Bft)
03.05.2012 07:05 9,6 C 84 % 0,0 l/m 0,3 km/h (0 Bft) N 360 7,0 C 8,4 C 0,0 km/h (0 Bft)
03.05.2012 07:06 9,6 C 84 % 0,0 l/m 0,3 km/h (0 Bft) N 360 7,0 C 8,4 C 0,0 km/h (0 Bft)
03.05.2012 07:07 9,9 C 84 % 0,0 l/m 0,0 km/h (0 Bft) O-NO 67 7,3 C 8,5 C 0,0 km/h (0 Bft)
03.05.2012 07:08 9,9 C 84 % 0,0 l/m 0,0 km/h (0 Bft) O-NO 67 7,3 C 8,5 C 0,0 km/h (0 Bft)
03.05.2012 07:09 10,0 C 84 % 0,0 l/m 0,0 km/h (0 Bft) W-SW 247 7,4 C 8,7 C 0,0 km/h (0 Bft)
03.05.2012 07:10 10,0 C 84 % 0,0 l/m 0,0 km/h (0 Bft) W-SW 247 7,4 C 8,7 C 0,0 km/h (0 Bft)
03.05.2012 07:11 10,3 C 84 % 0,0 l/m 0,2 km/h (0 Bft) W-NW 292 7,7 C 8,9 C 1,6 km/h (1 Bft)
03.05.2012 07:12 10,3 C 84 % 0,0 l/m 0,2 km/h (0 Bft) W-NW 292 7,7 C 8,9 C 1,6 km/h (1 Bft)
03.05.2012 07:13 10,3 C 83 % 0,0 l/m 0,2 km/h (0 Bft) SO 135 7,5 C 9,2 C 0,0 km/h (0 Bft)
03.05.2012 07:14 10,3 C 83 % 0,0 l/m 0,2 km/h (0 Bft) SO 135 7,5 C 9,2 C 0,0 km/h (0 Bft)
03.05.2012 07:15 10,4 C 83 % 0,0 l/m 0,2 km/h (0 Bft) W 270 7,6 C 9,3 C 0,0 km/h (0 Bft)
03.05.2012 07:16 10,4 C 83 % 0,0 l/m 0,2 km/h (0 Bft) W 270 7,6 C 9,3 C 0,0 km/h (0 Bft)
03.05.2012 07:17 10,5 C 83 % 0,0 l/m 0,2 km/h (0 Bft) NW 315 7,7 C 9,5 C 0,0 km/h (0 Bft)
03.05.2012 07:18 10,5 C 83 % 0,0 l/m 0,2 km/h (0 Bft) NW 315 7,7 C 9,5 C 0,0 km/h (0 Bft)
03.05.2012 07:19 10,5 C 83 % 0,0 l/m 0,5 km/h (0 Bft) O-NO 67 7,7 C 9,6 C 1,8 km/h (1 Bft)
03.05.2012 07:20 10,5 C 83 % 0,0 l/m 0,5 km/h (0 Bft) O-NO 67 7,7 C 9,6 C 1,8 km/h (1 Bft)
03.05.2012 07:21 10,6 C 83 % 0,0 l/m 0,3 km/h (0 Bft) SO 135 7,8 C 9,8 C 0,0 km/h (0 Bft)
03.05.2012 07:22 10,6 C 83 % 0,0 l/m 0,3 km/h (0 Bft) SO 135 7,8 C 9,8 C 0,0 km/h (0 Bft)
03.05.2012 07:23 10,6 C 82 % 0,0 l/m 0,6 km/h (0 Bft) O-SO 112 7,7 C 9,9 C 0,0 km/h (0 Bft)
03.05.2012 07:24 10,6 C 82 % 0,0 l/m 0,6 km/h (0 Bft) O-SO 112 7,7 C 9,9 C 0,0 km/h (0 Bft)
03.05.2012 07:25 10,7 C 82 % 0,0 l/m 1,0 km/h (0 Bft) O-SO 112 7,8 C 10,0 C 4,3 km/h (1 Bft)
03.05.2012 07:26 10,7 C 82 % 0,0 l/m 1,0 km/h (0 Bft) O-SO 112 7,8 C 10,0 C 4,3 km/h (1 Bft)
03.05.2012 07:27 10,9 C 81 % 0,0 l/m 1,3 km/h (1 Bft) N-NW 337 7,8 C 10,1 C 0,0 km/h (0 Bft)
03.05.2012 07:28 10,9 C 81 % 0,0 l/m 1,3 km/h (1 Bft) N-NW 337 7,8 C 10,1 C 0,0 km/h (0 Bft)
03.05.2012 07:29 10,8 C 81 % 0,0 l/m 1,6 km/h (1 Bft) O-SO 112 7,7 C 10,2 C 0,0 km/h (0 Bft)
03.05.2012 07:30 10,8 C 81 % 0,0 l/m 1,6 km/h (1 Bft) O-SO 112 7,7 C 10,2 C 0,0 km/h (0 Bft)
03.05.2012 07:31 10,9 C 81 % 0,0 l/m 1,3 km/h (1 Bft) NW 315 7,8 C 10,4 C 0,0 km/h (0 Bft)
03.05.2012 07:32 10,9 C 81 % 0,0 l/m 1,3 km/h (1 Bft) NW 315 7,8 C 10,4 C 0,0 km/h (0 Bft)
03.05.2012 07:33 11,0 C 81 % 0,0 l/m 1,1 km/h (1 Bft) W 270 7,9 C 10,4 C 0,0 km/h (0 Bft)
03.05.2012 07:34 11,0 C 81 % 0,0 l/m 1,1 km/h (1 Bft) W 270 7,9 C 10,4 C 0,0 km/h (0 Bft)
03.05.2012 07:35 10,9 C 81 % 0,0 l/m 1,0 km/h (0 Bft) O-SO 112 7,8 C 10,5 C 0,0 km/h (0 Bft)
03.05.2012 07:36 10,9 C 81 % 0,0 l/m 1,0 km/h (0 Bft) O-SO 112 7,8 C 10,5 C 0,0 km/h (0 Bft)
03.05.2012 07:37 10,9 C 81 % 0,0 l/m 0,3 km/h (0 Bft) W 270 7,8 C 10,5 C 0,0 km/h (0 Bft)
03.05.2012 07:38 10,9 C 81 % 0,0 l/m 0,3 km/h (0 Bft) W 270 7,8 C 10,5 C 0,0 km/h (0 Bft)
03.05.2012 07:39 11,1 C 81 % 0,0 l/m 0,2 km/h (0 Bft) S-SW 202 8,0 C 10,5 C 0,0 km/h (0 Bft)
03.05.2012 07:40 11,1 C 81 % 0,0 l/m 0,2 km/h (0 Bft) S-SW 202 8,0 C 10,5 C 0,0 km/h (0 Bft)
03.05.2012 07:41 11,0 C 81 % 0,0 l/m 0,3 km/h (0 Bft) N 360 7,9 C 10,5 C 2,1 km/h (1 Bft)
03.05.2012 07:42 11,0 C 81 % 0,0 l/m 0,3 km/h (0 Bft) N 360 7,9 C 10,5 C 2,1 km/h (1 Bft)
03.05.2012 07:43 11,1 C 80 % 0,0 l/m 0,3 km/h (0 Bft) S 180 7,8 C 10,4 C 0,0 km/h (0 Bft)
03.05.2012 07:44 11,1 C 80 % 0,0 l/m 0,3 km/h (0 Bft) S 180 7,8 C 10,4 C 0,0 km/h (0 Bft)
03.05.2012 07:45 11,1 C 80 % 0,0 l/m 0,8 km/h (0 Bft) O-SO 112 7,8 C 10,4 C 6,4 km/h (2 Bft)
03.05.2012 07:46 11,1 C 80 % 0,0 l/m 0,8 km/h (0 Bft) O-SO 112 7,8 C 10,4 C 6,4 km/h (2 Bft)
03.05.2012 07:47 11,1 C 80 % 0,0 l/m 1,3 km/h (1 Bft) SO 135 7,8 C 10,4 C 2,4 km/h (1 Bft)
03.05.2012 07:48 11,1 C 80 % 0,0 l/m 1,3 km/h (1 Bft) SO 135 7,8 C 10,4 C 2,4 km/h (1 Bft)
03.05.2012 07:49 11,0 C 80 % 0,0 l/m 1,4 km/h (1 Bft) N 360 7,7 C 10,4 C 2,6 km/h (1 Bft)
03.05.2012 07:50 11,0 C 80 % 0,0 l/m 1,4 km/h (1 Bft) N 360 7,7 C 10,4 C 2,6 km/h (1 Bft)
03.05.2012 07:51 11,1 C 80 % 0,0 l/m 1,6 km/h (1 Bft) O 90 7,8 C 10,4 C 3,7 km/h (1 Bft)
03.05.2012 07:52 11,1 C 80 % 0,0 l/m 1,6 km/h (1 Bft) O 90 7,8 C 10,4 C 3,7 km/h (1 Bft)
03.05.2012 07:53 11,0 C 79 % 0,0 l/m 2,1 km/h (1 Bft) O 90 7,5 C 10,4 C 6,1 km/h (2 Bft)
03.05.2012 07:54 11,0 C 79 % 0,0 l/m 2,1 km/h (1 Bft) O 90 7,5 C 10,4 C 6,1 km/h (2 Bft)
03.05.2012 07:55 11,1 C 79 % 0,0 l/m 2,1 km/h (1 Bft) W 270 7,6 C 10,4 C 0,0 km/h (0 Bft)
03.05.2012 07:56 11,1 C 79 % 0,0 l/m 2,1 km/h (1 Bft) W 270 7,6 C 10,4 C 0,0 km/h (0 Bft)
03.05.2012 07:57 11,2 C 80 % 0,0 l/m 1,4 km/h (1 Bft) N-NO 22 7,9 C 10,4 C 0,0 km/h (0 Bft)
03.05.2012 07:58 11,2 C 80 % 0,0 l/m 1,4 km/h (1 Bft) N-NO 22 7,9 C 10,4 C 0,0 km/h (0 Bft)
03.05.2012 07:59 11,2 C 80 % 0,0 l/m 1,6 km/h (1 Bft) S-SO 157 7,9 C 10,5 C 3,7 km/h (1 Bft)
03.05.2012 08:00 11,2 C 80 % 0,0 l/m 1,6 km/h (1 Bft) S-SO 157 7,9 C 10,5 C 3,7 km/h (1 Bft)
03.05.2012 08:01 11,2 C 80 % 0,0 l/m 1,9 km/h (1 Bft) O-SO 112 7,9 C 10,6 C 2,7 km/h (1 Bft)
03.05.2012 08:02 11,2 C 80 % 0,0 l/m 1,9 km/h (1 Bft) O-SO 112 7,9 C 10,6 C 2,7 km/h (1 Bft)
03.05.2012 08:03 11,3 C 80 % 0,0 l/m 1,6 km/h (1 Bft) N-NW 337 8,0 C 10,5 C 0,0 km/h (0 Bft)
03.05.2012 08:04 11,3 C 80 % 0,0 l/m 1,6 km/h (1 Bft) N-NW 337 8,0 C 10,5 C 0,0 km/h (0 Bft)
03.05.2012 08:05 11,3 C 80 % 0,0 l/m 1,0 km/h (0 Bft) O-SO 112 8,0 C 10,6 C 0,0 km/h (0 Bft)
03.05.2012 08:06 11,3 C 80 % 0,0 l/m 1,0 km/h (0 Bft) O-SO 112 8,0 C 10,6 C 0,0 km/h (0 Bft)
03.05.2012 08:07 11,5 C 80 % 0,0 l/m 1,0 km/h (0 Bft) N-NW 337 8,2 C 10,7 C 0,0 km/h (0 Bft)
03.05.2012 08:08 11,5 C 80 % 0,0 l/m 1,0 km/h (0 Bft) N-NW 337 8,2 C 10,7 C 0,0 km/h (0 Bft)
03.05.2012 08:09 11,4 C 79 % 0,0 l/m 1,0 km/h (0 Bft) NO 45 7,9 C 10,8 C 0,0 km/h (0 Bft)
03.05.2012 08:10 11,4 C 79 % 0,0 l/m 1,0 km/h (0 Bft) NO 45 7,9 C 10,8 C 0,0 km/h (0 Bft)
03.05.2012 08:11 11,5 C 80 % 0,0 l/m 0,5 km/h (0 Bft) S-SO 157 8,2 C 10,8 C 0,0 km/h (0 Bft)
03.05.2012 08:12 11,5 C 80 % 0,0 l/m 0,5 km/h (0 Bft) S-SO 157 8,2 C 10,8 C 0,0 km/h (0 Bft)
03.05.2012 08:13 11,6 C 80 % 0,0 l/m 0,3 km/h (0 Bft) NO 45 8,3 C 10,9 C 1,6 km/h (1 Bft)
03.05.2012 08:14 11,6 C 80 % 0,0 l/m 0,3 km/h (0 Bft) NO 45 8,3 C 10,9 C 1,6 km/h (1 Bft)
03.05.2012 08:15 11,5 C 80 % 0,0 l/m 0,5 km/h (0 Bft) N 360 8,2 C 11,0 C 2,3 km/h (1 Bft)
03.05.2012 08:16 11,5 C 80 % 0,0 l/m 0,5 km/h (0 Bft) N 360 8,2 C 11,0 C 2,3 km/h (1 Bft)
03.05.2012 08:17 11,6 C 80 % 0,0 l/m 0,3 km/h (0 Bft) O-SO 112 8,3 C 11,0 C 0,0 km/h (0 Bft)
03.05.2012 08:18 11,6 C 80 % 0,0 l/m 0,3 km/h (0 Bft) O-SO 112 8,3 C 11,0 C 0,0 km/h (0 Bft)
03.05.2012 08:19 11,7 C 79 % 0,0 l/m 0,3 km/h (0 Bft) S 180 8,2 C 11,0 C 1,9 km/h (1 Bft)
03.05.2012 08:20 11,7 C 79 % 0,0 l/m 0,3 km/h (0 Bft) S 180 8,2 C 11,0 C 1,9 km/h (1 Bft)
03.05.2012 08:21 11,6 C 78 % 0,0 l/m 0,6 km/h (0 Bft) W-SW 247 7,9 C 11,0 C 2,3 km/h (1 Bft)
03.05.2012 08:22 11,6 C 78 % 0,0 l/m 0,6 km/h (0 Bft) W-SW 247 7,9 C 11,0 C 2,3 km/h (1 Bft)
03.05.2012 08:23 11,6 C 78 % 0,0 l/m 0,6 km/h (0 Bft) W-NW 292 7,9 C 11,0 C 0,0 km/h (0 Bft)
03.05.2012 08:24 11,6 C 78 % 0,0 l/m 0,6 km/h (0 Bft) W-NW 292 7,9 C 11,0 C 0,0 km/h (0 Bft)
03.05.2012 08:25 11,6 C 78 % 0,0 l/m 0,8 km/h (0 Bft) SW 225 7,9 C 11,0 C 2,3 km/h (1 Bft)
03.05.2012 08:26 11,6 C 78 % 0,0 l/m 0,8 km/h (0 Bft) SW 225 7,9 C 11,0 C 2,3 km/h (1 Bft)
03.05.2012 08:27 11,6 C 78 % 0,0 l/m 0,8 km/h (0 Bft) S-SO 157 7,9 C 11,0 C 2,4 km/h (1 Bft)
03.05.2012 08:28 11,6 C 78 % 0,0 l/m 0,8 km/h (0 Bft) S-SO 157 7,9 C 11,0 C 2,4 km/h (1 Bft)
03.05.2012 08:29 11,7 C 78 % 0,0 l/m 0,8 km/h (0 Bft) SO 135 8,0 C 11,0 C 1,6 km/h (1 Bft)
03.05.2012 08:30 11,7 C 78 % 0,0 l/m 0,8 km/h (0 Bft) SO 135 8,0 C 11,0 C 1,6 km/h (1 Bft)
03.05.2012 08:31 11,6 C 78 % 0,0 l/m 0,6 km/h (0 Bft) O-SO 112 7,9 C 11,0 C 0,0 km/h (0 Bft)
03.05.2012 08:32 11,6 C 78 % 0,0 l/m 0,6 km/h (0 Bft) O-SO 112 7,9 C 11,0 C 0,0 km/h (0 Bft)
03.05.2012 08:33 11,6 C 78 % 0,0 l/m 0,5 km/h (0 Bft) O 90 7,9 C 11,0 C 1,8 km/h (1 Bft)
03.05.2012 08:34 11,6 C 78 % 0,0 l/m 0,5 km/h (0 Bft) O 90 7,9 C 11,0 C 1,8 km/h (1 Bft)
03.05.2012 08:35 11,5 C 78 % 0,0 l/m 0,3 km/h (0 Bft) SO 135 7,8 C 11,1 C 0,0 km/h (0 Bft)
03.05.2012 08:36 11,5 C 78 % 0,0 l/m 0,3 km/h (0 Bft) SO 135 7,8 C 11,1 C 0,0 km/h (0 Bft)
03.05.2012 08:37 11,6 C 78 % 0,0 l/m 0,2 km/h (0 Bft) S-SO 157 7,9 C 11,1 C 0,0 km/h (0 Bft)
03.05.2012 08:38 11,6 C 78 % 0,0 l/m 0,2 km/h (0 Bft) S-SO 157 7,9 C 11,1 C 0,0 km/h (0 Bft)
03.05.2012 08:39 11,7 C 78 % 0,0 l/m 0,2 km/h (0 Bft) O-NO 67 8,0 C 11,2 C 0,0 km/h (0 Bft)
03.05.2012 08:40 11,7 C 78 % 0,0 l/m 0,2 km/h (0 Bft) O-NO 67 8,0 C 11,2 C 0,0 km/h (0 Bft)
03.05.2012 08:41 11,8 C 78 % 0,0 l/m 0,2 km/h (0 Bft) SW 225 8,1 C 11,3 C 0,0 km/h (0 Bft)
03.05.2012 08:42 11,8 C 78 % 0,0 l/m 0,2 km/h (0 Bft) SW 225 8,1 C 11,3 C 0,0 km/h (0 Bft)
03.05.2012 08:43 11,9 C 78 % 0,0 l/m 0,2 km/h (0 Bft) O-SO 112 8,2 C 11,3 C 0,0 km/h (0 Bft)
03.05.2012 08:44 11,9 C 78 % 0,0 l/m 0,2 km/h (0 Bft) O-SO 112 8,2 C 11,3 C 0,0 km/h (0 Bft)
03.05.2012 08:45 11,9 C 78 % 0,0 l/m 0,0 km/h (0 Bft) N-NO 22 8,2 C 11,4 C 0,0 km/h (0 Bft)
03.05.2012 08:46 11,9 C 78 % 0,0 l/m 0,0 km/h (0 Bft) N-NO 22 8,2 C 11,4 C 0,0 km/h (0 Bft)
03.05.2012 08:47 12,1 C 78 % 0,0 l/m 0,0 km/h (0 Bft) N-NW 337 8,4 C 11,5 C 0,0 km/h (0 Bft)
03.05.2012 08:48 12,1 C 78 % 0,0 l/m 0,0 km/h (0 Bft) N-NW 337 8,4 C 11,5 C 0,0 km/h (0 Bft)
03.05.2012 08:49 12,0 C 78 % 0,0 l/m 0,0 km/h (0 Bft) SO 135 8,3 C 11,5 C 0,0 km/h (0 Bft)
03.05.2012 08:50 12,0 C 78 % 0,0 l/m 0,0 km/h (0 Bft) SO 135 8,3 C 11,5 C 0,0 km/h (0 Bft)
03.05.2012 08:51 12,0 C 78 % 0,0 l/m 0,0 km/h (0 Bft) S 180 8,3 C 11,6 C 0,0 km/h (0 Bft)
03.05.2012 08:52 12,0 C 78 % 0,0 l/m 0,0 km/h (0 Bft) S 180 8,3 C 11,6 C 0,0 km/h (0 Bft)
03.05.2012 08:53 12,1 C 77 % 0,0 l/m 0,0 km/h (0 Bft) S-SW 202 8,2 C 11,7 C 1,8 km/h (1 Bft)
03.05.2012 08:54 12,1 C 77 % 0,0 l/m 0,0 km/h (0 Bft) S-SW 202 8,2 C 11,7 C 1,8 km/h (1 Bft)
03.05.2012 08:55 12,1 C 76 % 0,0 l/m 0,2 km/h (0 Bft) S-SW 202 8,0 C 11,7 C 0,0 km/h (0 Bft)
03.05.2012 08:56 12,1 C 76 % 0,0 l/m 0,2 km/h (0 Bft) S-SW 202 8,0 C 11,7 C 0,0 km/h (0 Bft)
03.05.2012 08:57 12,3 C 76 % 0,0 l/m 0,2 km/h (0 Bft) S-SW 202 8,2 C 11,7 C 0,0 km/h (0 Bft)
03.05.2012 08:58 12,3 C 76 % 0,0 l/m 0,2 km/h (0 Bft) S-SW 202 8,2 C 11,7 C 0,0 km/h (0 Bft)
03.05.2012 08:59 12,3 C 75 % 0,0 l/m 0,3 km/h (0 Bft) W-SW 247 8,0 C 11,9 C 0,0 km/h (0 Bft)
03.05.2012 09:00 12,3 C 75 % 0,0 l/m 0,3 km/h (0 Bft) W-SW 247 8,0 C 11,9 C 0,0 km/h (0 Bft)
03.05.2012 09:01 12,3 C 75 % 0,0 l/m 0,8 km/h (0 Bft) S 180 8,0 C 12,0 C 2,1 km/h (1 Bft)
03.05.2012 09:02 12,3 C 75 % 0,0 l/m 0,8 km/h (0 Bft) S 180 8,0 C 12,0 C 2,1 km/h (1 Bft)
03.05.2012 09:03 12,4 C 75 % 0,0 l/m 0,8 km/h (0 Bft) SO 135 8,1 C 12,0 C 1,8 km/h (1 Bft)
03.05.2012 09:04 12,4 C 75 % 0,0 l/m 0,8 km/h (0 Bft) SO 135 8,1 C 12,0 C 1,8 km/h (1 Bft)
03.05.2012 09:05 12,4 C 75 % 0,0 l/m 1,0 km/h (0 Bft) W-SW 247 8,1 C 12,1 C 2,1 km/h (1 Bft)
03.05.2012 09:06 12,4 C 75 % 0,0 l/m 1,0 km/h (0 Bft) W-SW 247 8,1 C 12,1 C 2,1 km/h (1 Bft)
03.05.2012 09:07 12,5 C 74 % 0,0 l/m 1,0 km/h (0 Bft) O-SO 112 8,0 C 12,2 C 0,0 km/h (0 Bft)
03.05.2012 09:08 12,5 C 74 % 0,0 l/m 1,0 km/h (0 Bft) O-SO 112 8,0 C 12,2 C 0,0 km/h (0 Bft)
03.05.2012 09:09 12,6 C 74 % 0,0 l/m 1,0 km/h (0 Bft) W-SW 247 8,1 C 12,3 C 2,9 km/h (1 Bft)
03.05.2012 09:10 12,6 C 74 % 0,0 l/m 1,0 km/h (0 Bft) W-SW 247 8,1 C 12,3 C 2,9 km/h (1 Bft)
03.05.2012 09:11 12,6 C 73 % 0,0 l/m 0,6 km/h (0 Bft) S-SW 202 7,9 C 12,5 C 0,0 km/h (0 Bft)
03.05.2012 09:12 12,6 C 73 % 0,0 l/m 0,6 km/h (0 Bft) S-SW 202 7,9 C 12,5 C 0,0 km/h (0 Bft)
03.05.2012 09:13 12,6 C 74 % 0,0 l/m 0,6 km/h (0 Bft) SO 135 8,1 C 12,5 C 1,9 km/h (1 Bft)
03.05.2012 09:14 12,6 C 74 % 0,0 l/m 0,6 km/h (0 Bft) SO 135 8,1 C 12,5 C 1,9 km/h (1 Bft)
03.05.2012 09:15 12,8 C 74 % 0,0 l/m 0,6 km/h (0 Bft) W-SW 247 8,3 C 12,7 C 2,7 km/h (1 Bft)
03.05.2012 09:16 12,8 C 74 % 0,0 l/m 0,6 km/h (0 Bft) W-SW 247 8,3 C 12,7 C 2,7 km/h (1 Bft)
03.05.2012 09:17 12,8 C 73 % 0,0 l/m 1,0 km/h (0 Bft) S 180 8,1 C 12,7 C 2,6 km/h (1 Bft)
03.05.2012 09:18 12,8 C 73 % 0,0 l/m 1,0 km/h (0 Bft) S 180 8,1 C 12,7 C 2,6 km/h (1 Bft)
03.05.2012 09:19 13,0 C 73 % 0,0 l/m 1,6 km/h (1 Bft) SO 135 8,3 C 12,8 C 4,2 km/h (1 Bft)
03.05.2012 09:20 13,0 C 73 % 0,0 l/m 1,6 km/h (1 Bft) SO 135 8,3 C 12,8 C 4,2 km/h (1 Bft)
03.05.2012 09:21 13,0 C 74 % 0,0 l/m 1,6 km/h (1 Bft) O-SO 112 8,5 C 12,9 C 2,9 km/h (1 Bft)
03.05.2012 09:22 13,0 C 74 % 0,0 l/m 1,6 km/h (1 Bft) O-SO 112 8,5 C 12,9 C 2,9 km/h (1 Bft)
03.05.2012 09:23 13,1 C 74 % 0,0 l/m 1,8 km/h (1 Bft) SO 135 8,6 C 13,0 C 0,0 km/h (0 Bft)
03.05.2012 09:24 13,1 C 74 % 0,0 l/m 1,8 km/h (1 Bft) SO 135 8,6 C 13,0 C 0,0 km/h (0 Bft)
03.05.2012 09:25 13,2 C 74 % 0,0 l/m 1,6 km/h (1 Bft) N-NO 22 8,7 C 13,1 C 0,0 km/h (0 Bft)
03.05.2012 09:26 13,2 C 74 % 0,0 l/m 1,6 km/h (1 Bft) N-NO 22 8,7 C 13,1 C 0,0 km/h (0 Bft)
03.05.2012 09:27 13,3 C 73 % 0,0 l/m 1,3 km/h (1 Bft) O 90 8,6 C 13,2 C 0,0 km/h (0 Bft)
03.05.2012 09:28 13,3 C 73 % 0,0 l/m 1,3 km/h (1 Bft) O 90 8,6 C 13,2 C 0,0 km/h (0 Bft)
03.05.2012 09:29 13,5 C 73 % 0,0 l/m 0,8 km/h (0 Bft) SO 135 8,8 C 13,4 C 0,0 km/h (0 Bft)
03.05.2012 09:30 13,5 C 73 % 0,0 l/m 0,8 km/h (0 Bft) SO 135 8,8 C 13,4 C 0,0 km/h (0 Bft)
03.05.2012 09:31 13,5 C 73 % 0,0 l/m 0,3 km/h (0 Bft) S-SW 202 8,8 C 13,4 C 0,0 km/h (0 Bft)
03.05.2012 09:32 13,5 C 73 % 0,0 l/m 0,3 km/h (0 Bft) S-SW 202 8,8 C 13,4 C 0,0 km/h (0 Bft)
03.05.2012 09:33 13,5 C 72 % 0,0 l/m 0,0 km/h (0 Bft) S 180 8,6 C 13,6 C 0,0 km/h (0 Bft)
03.05.2012 09:34 13,5 C 72 % 0,0 l/m 0,0 km/h (0 Bft) S 180 8,6 C 13,6 C 0,0 km/h (0 Bft)
03.05.2012 09:35 13,6 C 71 % 0,0 l/m 0,2 km/h (0 Bft) W-SW 247 8,4 C 13,6 C 1,8 km/h (1 Bft)
03.05.2012 09:36 13,6 C 71 % 0,0 l/m 0,2 km/h (0 Bft) W-SW 247 8,4 C 13,6 C 1,8 km/h (1 Bft)
03.05.2012 09:37 13,7 C 71 % 0,0 l/m 0,3 km/h (0 Bft) W-NW 292 8,5 C 13,7 C 1,6 km/h (1 Bft)
03.05.2012 09:38 13,7 C 71 % 0,0 l/m 0,3 km/h (0 Bft) W-NW 292 8,5 C 13,7 C 1,6 km/h (1 Bft)
03.05.2012 09:39 13,7 C 70 % 0,0 l/m 0,5 km/h (0 Bft) NW 315 8,3 C 13,9 C 1,6 km/h (1 Bft)
03.05.2012 09:40 13,7 C 70 % 0,0 l/m 0,5 km/h (0 Bft) NW 315 8,3 C 13,9 C 1,6 km/h (1 Bft)
03.05.2012 09:41 13,6 C 69 % 0,0 l/m 0,5 km/h (0 Bft) W-SW 247 8,0 C 13,9 C 0,0 km/h (0 Bft)
03.05.2012 09:42 13,6 C 69 % 0,0 l/m 0,5 km/h (0 Bft) W-SW 247 8,0 C 13,9 C 0,0 km/h (0 Bft)
03.05.2012 09:43 13,6 C 69 % 0,0 l/m 0,6 km/h (0 Bft) NW 315 8,0 C 13,9 C 0,0 km/h (0 Bft)
03.05.2012 09:44 13,6 C 69 % 0,0 l/m 0,6 km/h (0 Bft) NW 315 8,0 C 13,9 C 0,0 km/h (0 Bft)
03.05.2012 09:45 13,7 C 69 % 0,0 l/m 0,6 km/h (0 Bft) O-SO 112 8,1 C 14,1 C 0,0 km/h (0 Bft)
03.05.2012 09:46 13,7 C 69 % 0,0 l/m 0,6 km/h (0 Bft) O-SO 112 8,1 C 14,1 C 0,0 km/h (0 Bft)
03.05.2012 09:47 13,9 C 69 % 0,0 l/m 0,6 km/h (0 Bft) N-NO 22 8,3 C 14,2 C 0,0 km/h (0 Bft)
03.05.2012 09:48 13,9 C 69 % 0,0 l/m 0,6 km/h (0 Bft) N-NO 22 8,3 C 14,2 C 0,0 km/h (0 Bft)
03.05.2012 09:49 13,8 C 69 % 0,0 l/m 0,6 km/h (0 Bft) W-SW 247 8,2 C 14,3 C 3,1 km/h (1 Bft)
03.05.2012 09:50 13,8 C 69 % 0,0 l/m 0,6 km/h (0 Bft) W-SW 247 8,2 C 14,3 C 3,1 km/h (1 Bft)
03.05.2012 09:51 13,9 C 68 % 0,0 l/m 0,8 km/h (0 Bft) W-SW 247 8,1 C 14,4 C 2,3 km/h (1 Bft)
03.05.2012 09:52 13,9 C 68 % 0,0 l/m 0,8 km/h (0 Bft) W-SW 247 8,1 C 14,4 C 2,3 km/h (1 Bft)
03.05.2012 09:53 13,9 C 68 % 0,0 l/m 0,8 km/h (0 Bft) W-SW 247 8,1 C 14,4 C 0,0 km/h (0 Bft)
03.05.2012 09:54 13,9 C 68 % 0,0 l/m 0,8 km/h (0 Bft) W-SW 247 8,1 C 14,4 C 0,0 km/h (0 Bft)
03.05.2012 09:55 14,0 C 67 % 0,0 l/m 0,6 km/h (0 Bft) S 180 8,0 C 14,5 C 0,0 km/h (0 Bft)
03.05.2012 09:56 14,0 C 67 % 0,0 l/m 0,6 km/h (0 Bft) S 180 8,0 C 14,5 C 0,0 km/h (0 Bft)
03.05.2012 09:57 14,1 C 66 % 0,0 l/m 0,8 km/h (0 Bft) S-SO 157 7,8 C 14,6 C 0,0 km/h (0 Bft)
03.05.2012 09:58 14,1 C 66 % 0,0 l/m 0,8 km/h (0 Bft) S-SO 157 7,8 C 14,6 C 0,0 km/h (0 Bft)
03.05.2012 09:59 14,1 C 66 % 0,0 l/m 0,6 km/h (0 Bft) S-SO 157 7,8 C 14,7 C 0,0 km/h (0 Bft)
03.05.2012 10:00 14,1 C 66 % 0,0 l/m 0,6 km/h (0 Bft) S-SO 157 7,8 C 14,7 C 0,0 km/h (0 Bft)
03.05.2012 10:01 14,2 C 66 % 0,0 l/m 0,3 km/h (0 Bft) S 180 7,9 C 14,8 C 0,0 km/h (0 Bft)
03.05.2012 10:02 14,2 C 66 % 0,0 l/m 0,3 km/h (0 Bft) S 180 7,9 C 14,8 C 0,0 km/h (0 Bft)
03.05.2012 10:03 14,3 C 66 % 0,0 l/m 0,2 km/h (0 Bft) N-NW 337 8,0 C 14,8 C 0,0 km/h (0 Bft)
03.05.2012 10:04 14,3 C 66 % 0,0 l/m 0,2 km/h (0 Bft) N-NW 337 8,0 C 14,8 C 0,0 km/h (0 Bft)
03.05.2012 10:05 14,4 C 64 % 0,0 l/m 0,2 km/h (0 Bft) NW 315 7,7 C 14,9 C 3,7 km/h (1 Bft)
03.05.2012 10:06 14,4 C 64 % 0,0 l/m 0,2 km/h (0 Bft) NW 315 7,7 C 14,9 C 3,7 km/h (1 Bft)
03.05.2012 10:07 14,3 C 63 % 0,0 l/m 0,6 km/h (0 Bft) N-NW 337 7,4 C 15,0 C 4,5 km/h (1 Bft)
03.05.2012 10:08 14,3 C 63 % 0,0 l/m 0,6 km/h (0 Bft) N-NW 337 7,4 C 15,0 C 4,5 km/h (1 Bft)
03.05.2012 10:09 14,3 C 64 % 0,0 l/m 1,0 km/h (0 Bft) NW 315 7,6 C 14,9 C 2,3 km/h (1 Bft)
03.05.2012 10:10 14,3 C 64 % 0,0 l/m 1,0 km/h (0 Bft) NW 315 7,6 C 14,9 C 2,3 km/h (1 Bft)
03.05.2012 10:11 14,3 C 60 % 0,0 l/m 1,3 km/h (1 Bft) W-NW 292 6,6 C 14,9 C 4,2 km/h (1 Bft)
03.05.2012 10:12 14,3 C 60 % 0,0 l/m 1,3 km/h (1 Bft) W-NW 292 6,6 C 14,9 C 4,2 km/h (1 Bft)
03.05.2012 10:13 14,3 C 60 % 0,0 l/m 1,9 km/h (1 Bft) NW 315 6,6 C 14,9 C 4,0 km/h (1 Bft)
03.05.2012 10:14 14,3 C 60 % 0,0 l/m 1,9 km/h (1 Bft) NW 315 6,6 C 14,9 C 4,0 km/h (1 Bft)
03.05.2012 10:15 14,4 C 61 % 0,0 l/m 2,4 km/h (1 Bft) N-NW 337 7,0 C 14,9 C 2,6 km/h (1 Bft)
03.05.2012 10:16 14,4 C 61 % 0,0 l/m 2,4 km/h (1 Bft) N-NW 337 7,0 C 14,9 C 2,6 km/h (1 Bft)
03.05.2012 10:17 14,4 C 61 % 0,0 l/m 2,4 km/h (1 Bft) O 90 7,0 C 14,9 C 0,0 km/h (0 Bft)
03.05.2012 10:18 14,4 C 61 % 0,0 l/m 2,4 km/h (1 Bft) O 90 7,0 C 14,9 C 0,0 km/h (0 Bft)
03.05.2012 10:19 14,5 C 61 % 0,0 l/m 1,9 km/h (1 Bft) N-NO 22 7,1 C 15,0 C 0,0 km/h (0 Bft)
03.05.2012 10:20 14,5 C 61 % 0,0 l/m 1,9 km/h (1 Bft) N-NO 22 7,1 C 15,0 C 0,0 km/h (0 Bft)
03.05.2012 10:21 14,7 C 59 % 0,0 l/m 1,9 km/h (1 Bft) N-NW 337 6,8 C 15,1 C 1,8 km/h (1 Bft)
03.05.2012 10:22 14,7 C 59 % 0,0 l/m 1,9 km/h (1 Bft) N-NW 337 6,8 C 15,1 C 1,8 km/h (1 Bft)
03.05.2012 10:23 14,6 C 60 % 0,0 l/m 1,6 km/h (1 Bft) N-NW 337 6,9 C 15,2 C 1,8 km/h (1 Bft)
03.05.2012 10:24 14,6 C 60 % 0,0 l/m 1,6 km/h (1 Bft) N-NW 337 6,9 C 15,2 C 1,8 km/h (1 Bft)
03.05.2012 10:25 14,7 C 60 % 0,0 l/m 1,1 km/h (1 Bft) S 180 7,0 C 15,3 C 0,0 km/h (0 Bft)
03.05.2012 10:26 14,7 C 60 % 0,0 l/m 1,1 km/h (1 Bft) S 180 7,0 C 15,3 C 0,0 km/h (0 Bft)
03.05.2012 10:27 14,8 C 60 % 0,0 l/m 0,8 km/h (0 Bft) W-NW 292 7,1 C 15,3 C 1,8 km/h (1 Bft)
03.05.2012 10:28 14,8 C 60 % 0,0 l/m 0,8 km/h (0 Bft) W-NW 292 7,1 C 15,3 C 1,8 km/h (1 Bft)
03.05.2012 10:29 14,9 C 58 % 0,0 l/m 1,1 km/h (1 Bft) W-NW 292 6,7 C 15,5 C 3,1 km/h (1 Bft)
03.05.2012 10:30 14,9 C 58 % 0,0 l/m 1,1 km/h (1 Bft) W-NW 292 6,7 C 15,5 C 3,1 km/h (1 Bft)
03.05.2012 10:31 14,9 C 58 % 0,0 l/m 1,1 km/h (1 Bft) N 360 6,7 C 15,5 C 0,0 km/h (0 Bft)
03.05.2012 10:32 14,9 C 58 % 0,0 l/m 1,1 km/h (1 Bft) N 360 6,7 C 15,5 C 0,0 km/h (0 Bft)
03.05.2012 10:33 15,1 C 56 % 0,0 l/m 1,4 km/h (1 Bft) W-SW 247 6,4 C 15,7 C 6,1 km/h (2 Bft)
03.05.2012 10:34 15,1 C 56 % 0,0 l/m 1,4 km/h (1 Bft) W-SW 247 6,4 C 15,7 C 6,1 km/h (2 Bft)
03.05.2012 10:35 15,0 C 55 % 0,0 l/m 2,1 km/h (1 Bft) S 180 6,0 C 15,8 C 5,5 km/h (1 Bft)
03.05.2012 10:36 15,0 C 55 % 0,0 l/m 2,1 km/h (1 Bft) S 180 6,0 C 15,8 C 5,5 km/h (1 Bft)
03.05.2012 10:37 15,1 C 55 % 0,0 l/m 2,3 km/h (1 Bft) W 270 6,1 C 15,7 C 0,0 km/h (0 Bft)
03.05.2012 10:38 15,1 C 55 % 0,0 l/m 2,3 km/h (1 Bft) W 270 6,1 C 15,7 C 0,0 km/h (0 Bft)
03.05.2012 10:39 15,1 C 55 % 0,0 l/m 2,1 km/h (1 Bft) W 270 6,1 C 15,7 C 0,0 km/h (0 Bft)
03.05.2012 10:40 15,1 C 55 % 0,0 l/m 2,1 km/h (1 Bft) W 270 6,1 C 15,7 C 0,0 km/h (0 Bft)
03.05.2012 10:41 15,2 C 55 % 0,0 l/m 1,8 km/h (1 Bft) NO 45 6,2 C 15,8 C 2,9 km/h (1 Bft)
03.05.2012 10:42 15,2 C 55 % 0,0 l/m 1,8 km/h (1 Bft) NO 45 6,2 C 15,8 C 2,9 km/h (1 Bft)
03.05.2012 10:43 15,3 C 55 % 0,0 l/m 1,9 km/h (1 Bft) W-SW 247 6,3 C 16,0 C 3,7 km/h (1 Bft)
03.05.2012 10:44 15,3 C 55 % 0,0 l/m 1,9 km/h (1 Bft) W-SW 247 6,3 C 16,0 C 3,7 km/h (1 Bft)
03.05.2012 10:45 15,4 C 53 % 0,0 l/m 1,9 km/h (1 Bft) W-SW 247 5,9 C 16,0 C 4,8 km/h (1 Bft)
03.05.2012 10:46 15,4 C 53 % 0,0 l/m 1,9 km/h (1 Bft) W-SW 247 5,9 C 16,0 C 4,8 km/h (1 Bft)
03.05.2012 10:47 15,4 C 52 % 0,0 l/m 2,1 km/h (1 Bft) N-NO 22 5,6 C 16,0 C 3,9 km/h (1 Bft)
03.05.2012 10:48 15,4 C 52 % 0,0 l/m 2,1 km/h (1 Bft) N-NO 22 5,6 C 16,0 C 3,9 km/h (1 Bft)
03.05.2012 10:49 15,3 C 53 % 0,0 l/m 2,3 km/h (1 Bft) W-SW 247 5,8 C 15,9 C 3,9 km/h (1 Bft)
03.05.2012 10:50 15,3 C 53 % 0,0 l/m 2,3 km/h (1 Bft) W-SW 247 5,8 C 15,9 C 3,9 km/h (1 Bft)
03.05.2012 10:51 15,3 C 53 % 0,0 l/m 2,6 km/h (1 Bft) W-SW 247 5,8 C 15,9 C 5,1 km/h (1 Bft)
03.05.2012 10:52 15,3 C 53 % 0,0 l/m 2,6 km/h (1 Bft) W-SW 247 5,8 C 15,9 C 5,1 km/h (1 Bft)
03.05.2012 10:53 15,5 C 55 % 0,0 l/m 2,7 km/h (1 Bft) S 180 6,5 C 16,0 C 2,4 km/h (1 Bft)
03.05.2012 10:54 15,5 C 55 % 0,0 l/m 2,7 km/h (1 Bft) S 180 6,5 C 16,0 C 2,4 km/h (1 Bft)
03.05.2012 10:55 15,7 C 55 % 0,0 l/m 2,3 km/h (1 Bft) SO 135 6,7 C 16,0 C 0,0 km/h (0 Bft)
03.05.2012 10:56 15,7 C 55 % 0,0 l/m 2,3 km/h (1 Bft) SO 135 6,7 C 16,0 C 0,0 km/h (0 Bft)
03.05.2012 10:57 15,7 C 54 % 0,0 l/m 1,9 km/h (1 Bft) SO 135 6,4 C 16,3 C 4,0 km/h (1 Bft)
03.05.2012 10:58 15,7 C 54 % 0,0 l/m 1,9 km/h (1 Bft) SO 135 6,4 C 16,3 C 4,0 km/h (1 Bft)
03.05.2012 10:59 15,9 C 54 % 0,0 l/m 1,9 km/h (1 Bft) S 180 6,6 C 16,4 C 3,4 km/h (1 Bft)
03.05.2012 11:00 15,9 C 54 % 0,0 l/m 1,9 km/h (1 Bft) S 180 6,6 C 16,4 C 3,4 km/h (1 Bft)
03.05.2012 11:01 15,9 C 53 % 0,0 l/m 1,6 km/h (1 Bft) W-SW 247 6,3 C 16,5 C 2,3 km/h (1 Bft)
03.05.2012 11:02 15,9 C 53 % 0,0 l/m 1,6 km/h (1 Bft) W-SW 247 6,3 C 16,5 C 2,3 km/h (1 Bft)
03.05.2012 11:03 16,0 C 52 % 0,0 l/m 1,3 km/h (1 Bft) N-NW 337 6,2 C 16,6 C 2,3 km/h (1 Bft)
03.05.2012 11:04 16,0 C 52 % 0,0 l/m 1,3 km/h (1 Bft) N-NW 337 6,2 C 16,6 C 2,3 km/h (1 Bft)
03.05.2012 11:05 16,0 C 52 % 0,0 l/m 1,6 km/h (1 Bft) W-SW 247 6,2 C 16,8 C 6,6 km/h (2 Bft)
03.05.2012 11:06 16,0 C 52 % 0,0 l/m 1,6 km/h (1 Bft) W-SW 247 6,2 C 16,8 C 6,6 km/h (2 Bft)
03.05.2012 11:07 16,0 C 52 % 0,0 l/m 2,3 km/h (1 Bft) W-SW 247 6,2 C 16,8 C 5,0 km/h (1 Bft)
03.05.2012 11:08 16,0 C 52 % 0,0 l/m 2,3 km/h (1 Bft) W-SW 247 6,2 C 16,8 C 5,0 km/h (1 Bft)
03.05.2012 11:09 16,0 C 52 % 0,0 l/m 2,4 km/h (1 Bft) W-SW 247 6,2 C 16,6 C 4,8 km/h (1 Bft)
03.05.2012 11:10 16,0 C 52 % 0,0 l/m 2,4 km/h (1 Bft) W-SW 247 6,2 C 16,6 C 4,8 km/h (1 Bft)
03.05.2012 11:11 16,1 C 52 % 0,0 l/m 2,7 km/h (1 Bft) N-NW 337 6,2 C 16,6 C 2,1 km/h (1 Bft)
03.05.2012 11:12 16,1 C 52 % 0,0 l/m 2,7 km/h (1 Bft) N-NW 337 6,2 C 16,6 C 2,1 km/h (1 Bft)
03.05.2012 11:13 16,1 C 52 % 0,0 l/m 3,1 km/h (1 Bft) N-NW 337 6,2 C 16,6 C 5,3 km/h (1 Bft)
03.05.2012 11:14 16,1 C 52 % 0,0 l/m 3,1 km/h (1 Bft) N-NW 337 6,2 C 16,6 C 5,3 km/h (1 Bft)
03.05.2012 11:15 16,1 C 52 % 0,0 l/m 3,7 km/h (1 Bft) S-SW 202 6,2 C 16,7 C 4,3 km/h (1 Bft)
03.05.2012 11:16 16,1 C 52 % 0,0 l/m 3,7 km/h (1 Bft) S-SW 202 6,2 C 16,7 C 4,3 km/h (1 Bft)
03.05.2012 11:17 16,1 C 53 % 0,0 l/m 3,4 km/h (1 Bft) S-SW 202 6,5 C 16,7 C 2,3 km/h (1 Bft)
03.05.2012 11:18 16,1 C 53 % 0,0 l/m 3,4 km/h (1 Bft) S-SW 202 6,5 C 16,7 C 2,3 km/h (1 Bft)
03.05.2012 11:19 16,3 C 51 % 0,0 l/m 3,2 km/h (1 Bft) W-NW 292 6,1 C 16,8 C 1,6 km/h (1 Bft)
03.05.2012 11:20 16,3 C 51 % 0,0 l/m 3,2 km/h (1 Bft) W-NW 292 6,1 C 16,8 C 1,6 km/h (1 Bft)
03.05.2012 11:21 16,3 C 51 % 0,0 l/m 2,7 km/h (1 Bft) W-NW 292 6,1 C 16,9 C 2,4 km/h (1 Bft)
03.05.2012 11:22 16,3 C 51 % 0,0 l/m 2,7 km/h (1 Bft) W-NW 292 6,1 C 16,9 C 2,4 km/h (1 Bft)
03.05.2012 11:23 16,4 C 50 % 0,0 l/m 3,2 km/h (1 Bft) W 270 6,0 C 17,2 C 7,6 km/h (2 Bft)
03.05.2012 11:24 16,4 C 50 % 0,0 l/m 3,2 km/h (1 Bft) W 270 6,0 C 17,2 C 7,6 km/h (2 Bft)
03.05.2012 11:25 16,5 C 50 % 0,0 l/m 3,1 km/h (1 Bft) W-NW 292 6,0 C 17,2 C 2,1 km/h (1 Bft)
03.05.2012 11:26 16,5 C 50 % 0,0 l/m 3,1 km/h (1 Bft) W-NW 292 6,0 C 17,2 C 2,1 km/h (1 Bft)
03.05.2012 11:27 16,5 C 50 % 0,0 l/m 3,1 km/h (1 Bft) W-NW 292 6,0 C 17,4 C 2,6 km/h (1 Bft)
03.05.2012 11:28 16,5 C 50 % 0,0 l/m 3,1 km/h (1 Bft) W-NW 292 6,0 C 17,4 C 2,6 km/h (1 Bft)
03.05.2012 11:29 16,7 C 50 % 0,0 l/m 2,9 km/h (1 Bft) W-NW 292 6,2 C 17,4 C 1,8 km/h (1 Bft)
03.05.2012 11:30 16,7 C 50 % 0,0 l/m 2,9 km/h (1 Bft) W-NW 292 6,2 C 17,4 C 1,8 km/h (1 Bft)
03.05.2012 11:31 17,3 C 50 % 0,0 l/m 2,7 km/h (1 Bft) W-NW 292 6,8 C 17,7 C 4,0 km/h (1 Bft)
03.05.2012 11:32 17,3 C 50 % 0,0 l/m 2,7 km/h (1 Bft) W-NW 292 6,8 C 17,7 C 4,0 km/h (1 Bft)
03.05.2012 11:33 18,0 C 51 % 0,0 l/m 3,1 km/h (1 Bft) S-SW 202 7,7 C 18,2 C 3,7 km/h (1 Bft)
03.05.2012 11:34 18,0 C 51 % 0,0 l/m 3,1 km/h (1 Bft) S-SW 202 7,7 C 18,2 C 3,7 km/h (1 Bft)
03.05.2012 11:35 18,3 C 51 % 0,0 l/m 2,7 km/h (1 Bft) O-SO 112 8,0 C 18,9 C 5,1 km/h (1 Bft)
03.05.2012 11:36 18,3 C 51 % 0,0 l/m 2,7 km/h (1 Bft) O-SO 112 8,0 C 18,9 C 5,1 km/h (1 Bft)
03.05.2012 11:37 18,5 C 50 % 0,0 l/m 3,1 km/h (1 Bft) NO 45 7,9 C 19,6 C 8,7 km/h (2 Bft)
03.05.2012 11:38 18,5 C 50 % 0,0 l/m 3,1 km/h (1 Bft) NO 45 7,9 C 19,6 C 8,7 km/h (2 Bft)
03.05.2012 11:39 18,4 C 46 % 0,0 l/m 3,2 km/h (1 Bft) NO 45 6,6 C 19,7 C 3,2 km/h (1 Bft)
03.05.2012 11:40 18,4 C 46 % 0,0 l/m 3,2 km/h (1 Bft) NO 45 6,6 C 19,7 C 3,2 km/h (1 Bft)
03.05.2012 11:41 18,5 C 48 % 0,0 l/m 3,1 km/h (1 Bft) O-SO 112 7,3 C 19,7 C 0,0 km/h (0 Bft)
03.05.2012 11:42 18,5 C 48 % 0,0 l/m 3,1 km/h (1 Bft) O-SO 112 7,3 C 19,7 C 0,0 km/h (0 Bft)
03.05.2012 11:43 18,7 C 45 % 0,0 l/m 3,4 km/h (1 Bft) W-NW 292 6,5 C 19,8 C 6,4 km/h (2 Bft)
03.05.2012 11:44 18,7 C 45 % 0,0 l/m 3,4 km/h (1 Bft) W-NW 292 6,5 C 19,8 C 6,4 km/h (2 Bft)
03.05.2012 11:45 18,3 C 46 % 0,0 l/m 3,4 km/h (1 Bft) S-SW 202 6,5 C 19,8 C 3,1 km/h (1 Bft)
03.05.2012 11:46 18,3 C 46 % 0,0 l/m 3,4 km/h (1 Bft) S-SW 202 6,5 C 19,8 C 3,1 km/h (1 Bft)
03.05.2012 11:47 18,4 C 45 % 0,0 l/m 3,1 km/h (1 Bft) W 270 6,3 C 19,7 C 5,3 km/h (1 Bft)
03.05.2012 11:48 18,4 C 45 % 0,0 l/m 3,1 km/h (1 Bft) W 270 6,3 C 19,7 C 5,3 km/h (1 Bft)
03.05.2012 11:49 18,6 C 46 % 0,0 l/m 2,6 km/h (1 Bft) O-NO 67 6,8 C 19,7 C 0,0 km/h (0 Bft)
03.05.2012 11:50 18,6 C 46 % 0,0 l/m 2,6 km/h (1 Bft) O-NO 67 6,8 C 19,7 C 0,0 km/h (0 Bft)
03.05.2012 11:51 18,0 C 46 % 0,0 l/m 2,7 km/h (1 Bft) O 90 6,2 C 19,7 C 1,6 km/h (1 Bft)
03.05.2012 11:52 18,0 C 46 % 0,0 l/m 2,7 km/h (1 Bft) O 90 6,2 C 19,7 C 1,6 km/h (1 Bft)
03.05.2012 11:53 17,9 C 46 % 0,0 l/m 2,7 km/h (1 Bft) SO 135 6,1 C 19,6 C 6,1 km/h (2 Bft)
03.05.2012 11:54 17,9 C 46 % 0,0 l/m 2,7 km/h (1 Bft) SO 135 6,1 C 19,6 C 6,1 km/h (2 Bft)
03.05.2012 11:55 17,8 C 46 % 0,0 l/m 2,9 km/h (1 Bft) W-SW 247 6,0 C 19,4 C 6,9 km/h (2 Bft)
03.05.2012 11:56 17,8 C 46 % 0,0 l/m 2,9 km/h (1 Bft) W-SW 247 6,0 C 19,4 C 6,9 km/h (2 Bft)
03.05.2012 11:57 17,7 C 45 % 0,0 l/m 3,2 km/h (1 Bft) S-SW 202 5,6 C 19,0 C 6,0 km/h (2 Bft)
03.05.2012 11:58 17,7 C 45 % 0,0 l/m 3,2 km/h (1 Bft) S-SW 202 5,6 C 19,0 C 6,0 km/h (2 Bft)
03.05.2012 11:59 17,6 C 47 % 0,0 l/m 3,2 km/h (1 Bft) W-SW 247 6,2 C 18,4 C 2,3 km/h (1 Bft)
03.05.2012 12:00 17,6 C 47 % 0,0 l/m 3,2 km/h (1 Bft) W-SW 247 6,2 C 18,4 C 2,3 km/h (1 Bft)
03.05.2012 12:01 17,5 C 44 % 0,0 l/m 3,4 km/h (1 Bft) NO 45 5,1 C 18,2 C 3,9 km/h (1 Bft)
03.05.2012 12:02 17,5 C 44 % 0,0 l/m 3,4 km/h (1 Bft) NO 45 5,1 C 18,2 C 3,9 km/h (1 Bft)
03.05.2012 12:03 17,5 C 45 % 0,0 l/m 3,4 km/h (1 Bft) S 180 5,4 C 18,1 C 0,0 km/h (0 Bft)
03.05.2012 12:04 17,5 C 45 % 0,0 l/m 3,4 km/h (1 Bft) S 180 5,4 C 18,1 C 0,0 km/h (0 Bft)
03.05.2012 12:05 17,5 C 46 % 0,0 l/m 2,7 km/h (1 Bft) W 270 5,8 C 18,0 C 1,6 km/h (1 Bft)
03.05.2012 12:06 17,5 C 46 % 0,0 l/m 2,7 km/h (1 Bft) W 270 5,8 C 18,0 C 1,6 km/h (1 Bft)
03.05.2012 12:07 17,5 C 45 % 0,0 l/m 2,1 km/h (1 Bft) W-NW 292 5,4 C 18,1 C 2,6 km/h (1 Bft)
03.05.2012 12:08 17,5 C 45 % 0,0 l/m 2,1 km/h (1 Bft) W-NW 292 5,4 C 18,1 C 2,6 km/h (1 Bft)
03.05.2012 12:09 17,5 C 47 % 0,0 l/m 1,6 km/h (1 Bft) NW 315 6,1 C 18,0 C 5,0 km/h (1 Bft)
03.05.2012 12:10 17,5 C 47 % 0,0 l/m 1,6 km/h (1 Bft) NW 315 6,1 C 18,0 C 5,0 km/h (1 Bft)
03.05.2012 12:11 17,5 C 47 % 0,0 l/m 1,6 km/h (1 Bft) W-NW 292 6,1 C 18,0 C 2,3 km/h (1 Bft)
03.05.2012 12:12 17,5 C 47 % 0,0 l/m 1,6 km/h (1 Bft) W-NW 292 6,1 C 18,0 C 2,3 km/h (1 Bft)
03.05.2012 12:13 17,4 C 47 % 0,0 l/m 1,6 km/h (1 Bft) W-NW 292 6,0 C 17,9 C 4,0 km/h (1 Bft)
03.05.2012 12:14 17,4 C 47 % 0,0 l/m 1,6 km/h (1 Bft) W-NW 292 6,0 C 17,9 C 4,0 km/h (1 Bft)
03.05.2012 12:15 17,5 C 46 % 0,0 l/m 1,8 km/h (1 Bft) N 360 5,8 C 17,8 C 2,7 km/h (1 Bft)
03.05.2012 12:16 17,5 C 46 % 0,0 l/m 1,8 km/h (1 Bft) N 360 5,8 C 17,8 C 2,7 km/h (1 Bft)
03.05.2012 12:17 17,4 C 46 % 0,0 l/m 1,8 km/h (1 Bft) SO 135 5,7 C 17,9 C 2,3 km/h (1 Bft)
03.05.2012 12:18 17,4 C 46 % 0,0 l/m 1,8 km/h (1 Bft) SO 135 5,7 C 17,9 C 2,3 km/h (1 Bft)
03.05.2012 12:19 17,4 C 47 % 0,0 l/m 1,8 km/h (1 Bft) O 90 6,0 C 18,0 C 2,3 km/h (1 Bft)
03.05.2012 12:20 17,4 C 47 % 0,0 l/m 1,8 km/h (1 Bft) O 90 6,0 C 18,0 C 2,3 km/h (1 Bft)
03.05.2012 12:21 17,6 C 47 % 0,0 l/m 1,4 km/h (1 Bft) NO 45 6,2 C 18,3 C 1,8 km/h (1 Bft)
03.05.2012 12:22 17,6 C 47 % 0,0 l/m 1,4 km/h (1 Bft) NO 45 6,2 C 18,3 C 1,8 km/h (1 Bft)
03.05.2012 12:23 17,6 C 47 % 0,0 l/m 1,6 km/h (1 Bft) N 360 6,2 C 18,4 C 2,4 km/h (1 Bft)
03.05.2012 12:24 17,6 C 47 % 0,0 l/m 1,6 km/h (1 Bft) N 360 6,2 C 18,4 C 2,4 km/h (1 Bft)
03.05.2012 12:25 17,6 C 46 % 0,0 l/m 1,4 km/h (1 Bft) W-NW 292 5,8 C 18,5 C 2,9 km/h (1 Bft)
03.05.2012 12:26 17,6 C 46 % 0,0 l/m 1,4 km/h (1 Bft) W-NW 292 5,8 C 18,5 C 2,9 km/h (1 Bft)
03.05.2012 12:27 17,9 C 47 % 0,0 l/m 1,4 km/h (1 Bft) N 360 6,4 C 18,5 C 0,0 km/h (0 Bft)
03.05.2012 12:28 17,9 C 47 % 0,0 l/m 1,4 km/h (1 Bft) N 360 6,4 C 18,5 C 0,0 km/h (0 Bft)
03.05.2012 12:29 18,0 C 45 % 0,0 l/m 1,3 km/h (1 Bft) W-SW 247 5,9 C 18,6 C 0,0 km/h (0 Bft)
03.05.2012 12:30 18,0 C 45 % 0,0 l/m 1,3 km/h (1 Bft) W-SW 247 5,9 C 18,6 C 0,0 km/h (0 Bft)
03.05.2012 12:31 18,3 C 47 % 0,0 l/m 1,3 km/h (1 Bft) S 180 6,8 C 18,9 C 3,7 km/h (1 Bft)
03.05.2012 12:32 18,3 C 47 % 0,0 l/m 1,3 km/h (1 Bft) S 180 6,8 C 18,9 C 3,7 km/h (1 Bft)
03.05.2012 12:33 18,5 C 47 % 0,0 l/m 1,4 km/h (1 Bft) W-SW 247 7,0 C 19,2 C 1,8 km/h (1 Bft)
03.05.2012 12:34 18,5 C 47 % 0,0 l/m 1,4 km/h (1 Bft) W-SW 247 7,0 C 19,2 C 1,8 km/h (1 Bft)
03.05.2012 12:35 18,7 C 45 % 0,0 l/m 1,6 km/h (1 Bft) N-NW 337 6,5 C 19,4 C 4,0 km/h (1 Bft)
03.05.2012 12:36 18,7 C 45 % 0,0 l/m 1,6 km/h (1 Bft) N-NW 337 6,5 C 19,4 C 4,0 km/h (1 Bft)
03.05.2012 12:37 18,5 C 44 % 0,0 l/m 1,8 km/h (1 Bft) W-NW 292 6,0 C 19,4 C 3,5 km/h (1 Bft)
03.05.2012 12:38 18,5 C 44 % 0,0 l/m 1,8 km/h (1 Bft) W-NW 292 6,0 C 19,4 C 3,5 km/h (1 Bft)
03.05.2012 12:39 18,5 C 44 % 0,0 l/m 2,4 km/h (1 Bft) W-SW 247 6,0 C 19,1 C 6,1 km/h (2 Bft)
03.05.2012 12:40 18,5 C 44 % 0,0 l/m 2,4 km/h (1 Bft) W-SW 247 6,0 C 19,1 C 6,1 km/h (2 Bft)
03.05.2012 12:41 18,3 C 45 % 0,0 l/m 3,2 km/h (1 Bft) NW 315 6,2 C 18,7 C 4,3 km/h (1 Bft)
03.05.2012 12:42 18,3 C 45 % 0,0 l/m 3,2 km/h (1 Bft) NW 315 6,2 C 18,7 C 4,3 km/h (1 Bft)
03.05.2012 12:43 17,9 C 46 % 0,0 l/m 3,4 km/h (1 Bft) W 270 6,1 C 18,4 C 8,0 km/h (2 Bft)
03.05.2012 12:44 17,9 C 46 % 0,0 l/m 3,4 km/h (1 Bft) W 270 6,1 C 18,4 C 8,0 km/h (2 Bft)
03.05.2012 12:45 17,7 C 48 % 0,0 l/m 3,9 km/h (1 Bft) W-NW 292 6,6 C 18,2 C 3,7 km/h (1 Bft)
03.05.2012 12:46 17,7 C 48 % 0,0 l/m 3,9 km/h (1 Bft) W-NW 292 6,6 C 18,2 C 3,7 km/h (1 Bft)
03.05.2012 12:47 17,5 C 47 % 0,0 l/m 3,7 km/h (1 Bft) N-NW 337 6,1 C 17,9 C 3,4 km/h (1 Bft)
03.05.2012 12:48 17,5 C 47 % 0,0 l/m 3,7 km/h (1 Bft) N-NW 337 6,1 C 17,9 C 3,4 km/h (1 Bft)
03.05.2012 12:49 17,1 C 48 % 0,0 l/m 3,4 km/h (1 Bft) N 360 6,0 C 17,6 C 2,6 km/h (1 Bft)
03.05.2012 12:50 17,1 C 48 % 0,0 l/m 3,4 km/h (1 Bft) N 360 6,0 C 17,6 C 2,6 km/h (1 Bft)
03.05.2012 12:51 17,1 C 48 % 0,0 l/m 3,1 km/h (1 Bft) W-NW 292 6,0 C 17,6 C 3,2 km/h (1 Bft)
03.05.2012 12:52 17,1 C 48 % 0,0 l/m 3,1 km/h (1 Bft) W-NW 292 6,0 C 17,6 C 3,2 km/h (1 Bft)
03.05.2012 12:53 17,1 C 48 % 0,0 l/m 3,5 km/h (1 Bft) S-SW 202 6,0 C 17,4 C 9,0 km/h (2 Bft)
03.05.2012 12:54 17,1 C 48 % 0,0 l/m 3,5 km/h (1 Bft) S-SW 202 6,0 C 17,4 C 9,0 km/h (2 Bft)
03.05.2012 12:55 17,0 C 49 % 0,0 l/m 3,5 km/h (1 Bft) W-SW 247 6,2 C 17,2 C 4,8 km/h (1 Bft)
03.05.2012 12:56 17,0 C 49 % 0,0 l/m 3,5 km/h (1 Bft) W-SW 247 6,2 C 17,2 C 4,8 km/h (1 Bft)
03.05.2012 12:57 17,1 C 47 % 0,0 l/m 3,7 km/h (1 Bft) W-SW 247 5,7 C 17,0 C 4,0 km/h (1 Bft)
03.05.2012 12:58 17,1 C 47 % 0,0 l/m 3,7 km/h (1 Bft) W-SW 247 5,7 C 17,0 C 4,0 km/h (1 Bft)
03.05.2012 12:59 17,1 C 48 % 0,0 l/m 3,9 km/h (1 Bft) W-SW 247 6,0 C 16,9 C 5,6 km/h (1 Bft)
03.05.2012 13:00 17,1 C 48 % 0,0 l/m 3,9 km/h (1 Bft) W-SW 247 6,0 C 16,9 C 5,6 km/h (1 Bft)
03.05.2012 13:01 16,9 C 46 % 0,0 l/m 4,3 km/h (1 Bft) W-SW 247 5,2 C 16,8 C 4,5 km/h (1 Bft)
03.05.2012 13:02 16,9 C 46 % 0,0 l/m 4,3 km/h (1 Bft) W-SW 247 5,2 C 16,8 C 4,5 km/h (1 Bft)
03.05.2012 13:03 17,1 C 48 % 0,0 l/m 4,3 km/h (1 Bft) S 180 6,0 C 16,7 C 2,1 km/h (1 Bft)
03.05.2012 13:04 17,1 C 48 % 0,0 l/m 4,3 km/h (1 Bft) S 180 6,0 C 16,7 C 2,1 km/h (1 Bft)
03.05.2012 13:05 17,3 C 49 % 0,0 l/m 3,1 km/h (1 Bft) S 180 6,5 C 16,8 C 1,9 km/h (1 Bft)
03.05.2012 13:06 17,3 C 49 % 0,0 l/m 3,1 km/h (1 Bft) S 180 6,5 C 16,8 C 1,9 km/h (1 Bft)
03.05.2012 13:07 17,4 C 49 % 0,0 l/m 2,9 km/h (1 Bft) S-SO 157 6,6 C 17,0 C 2,1 km/h (1 Bft)
03.05.2012 13:08 17,4 C 49 % 0,0 l/m 2,9 km/h (1 Bft) S-SO 157 6,6 C 17,0 C 2,1 km/h (1 Bft)
03.05.2012 13:09 17,4 C 49 % 0,0 l/m 2,4 km/h (1 Bft) W 270 6,6 C 17,3 C 5,5 km/h (1 Bft)
03.05.2012 13:10 17,4 C 49 % 0,0 l/m 2,4 km/h (1 Bft) W 270 6,6 C 17,3 C 5,5 km/h (1 Bft)
03.05.2012 13:11 17,7 C 48 % 0,0 l/m 2,1 km/h (1 Bft) S 180 6,6 C 17,4 C 2,3 km/h (1 Bft)
03.05.2012 13:12 17,7 C 48 % 0,0 l/m 2,1 km/h (1 Bft) S 180 6,6 C 17,4 C 2,3 km/h (1 Bft)
03.05.2012 13:13 17,9 C 48 % 0,0 l/m 1,6 km/h (1 Bft) O-SO 112 6,7 C 17,5 C 0,0 km/h (0 Bft)
03.05.2012 13:14 17,9 C 48 % 0,0 l/m 1,6 km/h (1 Bft) O-SO 112 6,7 C 17,5 C 0,0 km/h (0 Bft)
03.05.2012 13:15 18,2 C 48 % 0,0 l/m 1,6 km/h (1 Bft) S-SW 202 7,0 C 17,9 C 3,7 km/h (1 Bft)
03.05.2012 13:16 18,2 C 48 % 0,0 l/m 1,6 km/h (1 Bft) S-SW 202 7,0 C 17,9 C 3,7 km/h (1 Bft)
03.05.2012 13:17 18,1 C 47 % 0,0 l/m 1,8 km/h (1 Bft) W 270 6,6 C 18,2 C 3,4 km/h (1 Bft)
03.05.2012 13:18 18,1 C 47 % 0,0 l/m 1,8 km/h (1 Bft) W 270 6,6 C 18,2 C 3,4 km/h (1 Bft)
03.05.2012 13:19 18,0 C 46 % 0,0 l/m 2,4 km/h (1 Bft) NW 315 6,2 C 18,2 C 4,8 km/h (1 Bft)
03.05.2012 13:20 18,0 C 46 % 0,0 l/m 2,4 km/h (1 Bft) NW 315 6,2 C 18,2 C 4,8 km/h (1 Bft)
03.05.2012 13:21 17,9 C 47 % 0,0 l/m 2,3 km/h (1 Bft) S-SW 202 6,4 C 18,0 C 2,3 km/h (1 Bft)
03.05.2012 13:22 17,9 C 47 % 0,0 l/m 2,3 km/h (1 Bft) S-SW 202 6,4 C 18,0 C 2,3 km/h (1 Bft)
03.05.2012 13:23 17,6 C 47 % 0,0 l/m 2,3 km/h (1 Bft) W-SW 247 6,2 C 17,9 C 0,0 km/h (0 Bft)
03.05.2012 13:24 17,6 C 47 % 0,0 l/m 2,3 km/h (1 Bft) W-SW 247 6,2 C 17,9 C 0,0 km/h (0 Bft)
03.05.2012 13:25 17,7 C 46 % 0,0 l/m 2,4 km/h (1 Bft) W-SW 247 5,9 C 17,9 C 1,9 km/h (1 Bft)
03.05.2012 13:26 17,7 C 46 % 0,0 l/m 2,4 km/h (1 Bft) W-SW 247 5,9 C 17,9 C 1,9 km/h (1 Bft)
03.05.2012 13:27 17,7 C 46 % 0,0 l/m 2,4 km/h (1 Bft) W-SW 247 5,9 C 17,8 C 2,3 km/h (1 Bft)
03.05.2012 13:28 17,7 C 46 % 0,0 l/m 2,4 km/h (1 Bft) W-SW 247 5,9 C 17,8 C 2,3 km/h (1 Bft)
03.05.2012 13:29 18,5 C 46 % 0,0 l/m 1,9 km/h (1 Bft) O-SO 112 6,7 C 17,8 C 0,0 km/h (0 Bft)
03.05.2012 13:30 18,5 C 46 % 0,0 l/m 1,9 km/h (1 Bft) O-SO 112 6,7 C 17,8 C 0,0 km/h (0 Bft)
03.05.2012 13:31 19,3 C 45 % 0,0 l/m 1,6 km/h (1 Bft) W-SW 247 7,1 C 18,3 C 2,3 km/h (1 Bft)
03.05.2012 13:32 19,3 C 45 % 0,0 l/m 1,6 km/h (1 Bft) W-SW 247 7,1 C 18,3 C 2,3 km/h (1 Bft)
03.05.2012 13:33 19,9 C 46 % 0,0 l/m 1,8 km/h (1 Bft) S-SO 157 7,9 C 18,8 C 4,0 km/h (1 Bft)
03.05.2012 13:34 19,9 C 46 % 0,0 l/m 1,8 km/h (1 Bft) S-SO 157 7,9 C 18,8 C 4,0 km/h (1 Bft)
03.05.2012 13:35 19,8 C 47 % 0,0 l/m 2,4 km/h (1 Bft) SO 135 8,2 C 19,5 C 3,5 km/h (1 Bft)
03.05.2012 13:36 19,8 C 47 % 0,0 l/m 2,4 km/h (1 Bft) SO 135 8,2 C 19,5 C 3,5 km/h (1 Bft)
03.05.2012 13:37 20,4 C 44 % 0,0 l/m 2,7 km/h (1 Bft) S-SO 157 7,7 C 20,0 C 3,5 km/h (1 Bft)
03.05.2012 13:38 20,4 C 44 % 0,0 l/m 2,7 km/h (1 Bft) S-SO 157 7,7 C 20,0 C 3,5 km/h (1 Bft)
03.05.2012 13:39 20,5 C 47 % 0,0 l/m 2,9 km/h (1 Bft) S-SO 157 8,8 C 20,1 C 7,4 km/h (2 Bft)
03.05.2012 13:40 20,5 C 47 % 0,0 l/m 2,9 km/h (1 Bft) S-SO 157 8,8 C 20,1 C 7,4 km/h (2 Bft)
03.05.2012 13:41 20,7 C 44 % 0,0 l/m 3,7 km/h (1 Bft) SO 135 8,0 C 20,2 C 3,7 km/h (1 Bft)
03.05.2012 13:42 20,7 C 44 % 0,0 l/m 3,7 km/h (1 Bft) SO 135 8,0 C 20,2 C 3,7 km/h (1 Bft)
03.05.2012 13:43 20,9 C 44 % 0,0 l/m 3,9 km/h (1 Bft) SO 135 8,2 C 20,3 C 3,7 km/h (1 Bft)
03.05.2012 13:44 20,9 C 44 % 0,0 l/m 3,9 km/h (1 Bft) SO 135 8,2 C 20,3 C 3,7 km/h (1 Bft)
03.05.2012 13:45 21,0 C 43 % 0,0 l/m 3,4 km/h (1 Bft) O 90 7,9 C 20,5 C 2,1 km/h (1 Bft)
03.05.2012 13:46 21,0 C 43 % 0,0 l/m 3,4 km/h (1 Bft) O 90 7,9 C 20,5 C 2,1 km/h (1 Bft)
03.05.2012 13:47 20,8 C 42 % 0,0 l/m 3,4 km/h (1 Bft) NO 45 7,4 C 20,8 C 3,7 km/h (1 Bft)
03.05.2012 13:48 20,8 C 42 % 0,0 l/m 3,4 km/h (1 Bft) NO 45 7,4 C 20,8 C 3,7 km/h (1 Bft)
03.05.2012 13:49 20,7 C 42 % 0,0 l/m 3,5 km/h (1 Bft) N-NO 22 7,3 C 20,8 C 4,0 km/h (1 Bft)
03.05.2012 13:50 20,7 C 42 % 0,0 l/m 3,5 km/h (1 Bft) N-NO 22 7,3 C 20,8 C 4,0 km/h (1 Bft)
03.05.2012 13:51 20,5 C 42 % 0,0 l/m 2,7 km/h (1 Bft) N-NW 337 7,1 C 20,8 C 2,1 km/h (1 Bft)
03.05.2012 13:52 20,5 C 42 % 0,0 l/m 2,7 km/h (1 Bft) N-NW 337 7,1 C 20,8 C 2,1 km/h (1 Bft)
03.05.2012 13:53 20,8 C 42 % 0,0 l/m 2,3 km/h (1 Bft) S-SW 202 7,4 C 21,0 C 2,4 km/h (1 Bft)
03.05.2012 13:54 20,8 C 42 % 0,0 l/m 2,3 km/h (1 Bft) S-SW 202 7,4 C 21,0 C 2,4 km/h (1 Bft)
03.05.2012 13:55 21,2 C 42 % 0,0 l/m 1,9 km/h (1 Bft) SO 135 7,8 C 21,3 C 2,6 km/h (1 Bft)
03.05.2012 13:56 21,2 C 42 % 0,0 l/m 1,9 km/h (1 Bft) SO 135 7,8 C 21,3 C 2,6 km/h (1 Bft)
03.05.2012 13:57 21,5 C 43 % 0,0 l/m 2,1 km/h (1 Bft) S-SW 202 8,4 C 21,9 C 0,0 km/h (0 Bft)
03.05.2012 13:58 21,5 C 43 % 0,0 l/m 2,1 km/h (1 Bft) S-SW 202 8,4 C 21,9 C 0,0 km/h (0 Bft)
03.05.2012 13:59 20,9 C 43 % 0,0 l/m 1,4 km/h (1 Bft) S 180 7,8 C 22,3 C 0,0 km/h (0 Bft)
03.05.2012 14:00 20,9 C 43 % 0,0 l/m 1,4 km/h (1 Bft) S 180 7,8 C 22,3 C 0,0 km/h (0 Bft)
03.05.2012 14:01 20,7 C 43 % 0,0 l/m 1,4 km/h (1 Bft) S 180 7,7 C 22,2 C 5,0 km/h (1 Bft)
03.05.2012 14:02 20,7 C 43 % 0,0 l/m 1,4 km/h (1 Bft) S 180 7,7 C 22,2 C 5,0 km/h (1 Bft)
03.05.2012 14:03 20,4 C 44 % 0,0 l/m 2,3 km/h (1 Bft) SO 135 7,7 C 21,6 C 6,6 km/h (2 Bft)
03.05.2012 14:04 20,4 C 44 % 0,0 l/m 2,3 km/h (1 Bft) SO 135 7,7 C 21,6 C 6,6 km/h (2 Bft)
03.05.2012 14:05 20,0 C 43 % 0,0 l/m 2,7 km/h (1 Bft) S 180 7,0 C 21,1 C 5,1 km/h (1 Bft)
03.05.2012 14:06 20,0 C 43 % 0,0 l/m 2,7 km/h (1 Bft) S 180 7,0 C 21,1 C 5,1 km/h (1 Bft)
03.05.2012 14:07 19,9 C 44 % 0,0 l/m 3,1 km/h (1 Bft) SO 135 7,3 C 20,4 C 4,7 km/h (1 Bft)
03.05.2012 14:08 19,9 C 44 % 0,0 l/m 3,1 km/h (1 Bft) SO 135 7,3 C 20,4 C 4,7 km/h (1 Bft)
03.05.2012 14:09 19,8 C 44 % 0,0 l/m 3,7 km/h (1 Bft) SO 135 7,2 C 19,8 C 6,0 km/h (2 Bft)
03.05.2012 14:10 19,8 C 44 % 0,0 l/m 3,7 km/h (1 Bft) SO 135 7,2 C 19,8 C 6,0 km/h (2 Bft)
03.05.2012 14:11 19,7 C 45 % 0,0 l/m 4,2 km/h (1 Bft) NO 45 7,4 C 19,4 C 6,0 km/h (2 Bft)
03.05.2012 14:12 19,7 C 45 % 0,0 l/m 4,2 km/h (1 Bft) NO 45 7,4 C 19,4 C 6,0 km/h (2 Bft)
03.05.2012 14:13 20,1 C 45 % 0,0 l/m 4,3 km/h (1 Bft) O-SO 112 7,8 C 19,2 C 7,7 km/h (2 Bft)
03.05.2012 14:14 20,1 C 45 % 0,0 l/m 4,3 km/h (1 Bft) O-SO 112 7,8 C 19,2 C 7,7 km/h (2 Bft)
03.05.2012 14:15 20,1 C 44 % 0,0 l/m 4,7 km/h (1 Bft) O-SO 112 7,5 C 19,3 C 6,9 km/h (2 Bft)
03.05.2012 14:16 20,1 C 44 % 0,0 l/m 4,7 km/h (1 Bft) O-SO 112 7,5 C 19,3 C 6,9 km/h (2 Bft)
03.05.2012 14:17 20,0 C 44 % 0,0 l/m 4,5 km/h (1 Bft) N-NO 22 7,4 C 19,2 C 4,2 km/h (1 Bft)
03.05.2012 14:18 20,0 C 44 % 0,0 l/m 4,5 km/h (1 Bft) N-NO 22 7,4 C 19,2 C 4,2 km/h (1 Bft)
03.05.2012 14:19 19,7 C 44 % 0,0 l/m 4,3 km/h (1 Bft) SO 135 7,1 C 19,2 C 2,3 km/h (1 Bft)
03.05.2012 14:20 19,7 C 44 % 0,0 l/m 4,3 km/h (1 Bft) SO 135 7,1 C 19,2 C 2,3 km/h (1 Bft)
03.05.2012 14:21 19,6 C 44 % 0,0 l/m 3,9 km/h (1 Bft) SO 135 7,0 C 19,2 C 0,0 km/h (0 Bft)
03.05.2012 14:22 19,6 C 44 % 0,0 l/m 3,9 km/h (1 Bft) SO 135 7,0 C 19,2 C 0,0 km/h (0 Bft)
03.05.2012 14:23 19,6 C 44 % 0,0 l/m 3,2 km/h (1 Bft) O-SO 112 7,0 C 19,2 C 0,0 km/h (0 Bft)
03.05.2012 14:24 19,6 C 44 % 0,0 l/m 3,2 km/h (1 Bft) O-SO 112 7,0 C 19,2 C 0,0 km/h (0 Bft)
03.05.2012 14:25 19,5 C 44 % 0,0 l/m 3,1 km/h (1 Bft) O-SO 112 6,9 C 19,3 C 3,9 km/h (1 Bft)
03.05.2012 14:26 19,5 C 44 % 0,0 l/m 3,1 km/h (1 Bft) O-SO 112 6,9 C 19,3 C 3,9 km/h (1 Bft)
03.05.2012 14:27 19,7 C 45 % 0,0 l/m 2,4 km/h (1 Bft) SO 135 7,4 C 19,2 C 0,0 km/h (0 Bft)
03.05.2012 14:28 19,7 C 45 % 0,0 l/m 2,4 km/h (1 Bft) SO 135 7,4 C 19,2 C 0,0 km/h (0 Bft)
03.05.2012 14:29 19,6 C 44 % 0,0 l/m 2,3 km/h (1 Bft) S 180 7,0 C 19,2 C 2,7 km/h (1 Bft)
03.05.2012 14:30 19,6 C 44 % 0,0 l/m 2,3 km/h (1 Bft) S 180 7,0 C 19,2 C 2,7 km/h (1 Bft)
03.05.2012 14:31 19,5 C 44 % 0,0 l/m 1,9 km/h (1 Bft) S 180 6,9 C 19,3 C 4,2 km/h (1 Bft)
03.05.2012 14:32 19,5 C 44 % 0,0 l/m 1,9 km/h (1 Bft) S 180 6,9 C 19,3 C 4,2 km/h (1 Bft)
03.05.2012 14:33 19,2 C 44 % 0,0 l/m 2,1 km/h (1 Bft) W 270 6,7 C 19,3 C 2,1 km/h (1 Bft)
03.05.2012 14:34 19,2 C 44 % 0,0 l/m 2,1 km/h (1 Bft) W 270 6,7 C 19,3 C 2,1 km/h (1 Bft)
03.05.2012 14:35 19,2 C 44 % 0,0 l/m 2,4 km/h (1 Bft) S 180 6,7 C 19,2 C 5,0 km/h (1 Bft)
03.05.2012 14:36 19,2 C 44 % 0,0 l/m 2,4 km/h (1 Bft) S 180 6,7 C 19,2 C 5,0 km/h (1 Bft)
03.05.2012 14:37 19,3 C 45 % 0,0 l/m 2,4 km/h (1 Bft) S-SO 157 7,1 C 19,2 C 3,1 km/h (1 Bft)
03.05.2012 14:38 19,3 C 45 % 0,0 l/m 2,4 km/h (1 Bft) S-SO 157 7,1 C 19,2 C 3,1 km/h (1 Bft)
03.05.2012 14:39 19,4 C 45 % 0,0 l/m 2,4 km/h (1 Bft) S 180 7,2 C 19,2 C 0,0 km/h (0 Bft)
03.05.2012 14:40 19,4 C 45 % 0,0 l/m 2,4 km/h (1 Bft) S 180 7,2 C 19,2 C 0,0 km/h (0 Bft)
03.05.2012 14:41 19,5 C 45 % 0,0 l/m 2,1 km/h (1 Bft) SW 225 7,2 C 19,4 C 0,0 km/h (0 Bft)
03.05.2012 14:42 19,5 C 45 % 0,0 l/m 2,1 km/h (1 Bft) SW 225 7,2 C 19,4 C 0,0 km/h (0 Bft)
03.05.2012 14:43 19,5 C 44 % 0,0 l/m 1,8 km/h (1 Bft) N-NO 22 6,9 C 19,6 C 4,7 km/h (1 Bft)
03.05.2012 14:44 19,5 C 44 % 0,0 l/m 1,8 km/h (1 Bft) N-NO 22 6,9 C 19,6 C 4,7 km/h (1 Bft)
03.05.2012 14:45 19,4 C 44 % 0,0 l/m 1,9 km/h (1 Bft) SO 135 6,8 C 19,6 C 1,8 km/h (1 Bft)
03.05.2012 14:46 19,4 C 44 % 0,0 l/m 1,9 km/h (1 Bft) SO 135 6,8 C 19,6 C 1,8 km/h (1 Bft)
03.05.2012 14:47 19,4 C 44 % 0,0 l/m 1,6 km/h (1 Bft) S-SO 157 6,8 C 19,6 C 5,8 km/h (2 Bft)
03.05.2012 14:48 19,4 C 44 % 0,0 l/m 1,6 km/h (1 Bft) S-SO 157 6,8 C 19,6 C 5,8 km/h (2 Bft)
03.05.2012 14:49 19,4 C 45 % 0,0 l/m 2,3 km/h (1 Bft) SO 135 7,2 C 19,6 C 6,1 km/h (2 Bft)
03.05.2012 14:50 19,4 C 45 % 0,0 l/m 2,3 km/h (1 Bft) SO 135 7,2 C 19,6 C 6,1 km/h (2 Bft)
03.05.2012 14:51 19,4 C 46 % 0,0 l/m 2,7 km/h (1 Bft) SO 135 7,5 C 19,4 C 4,8 km/h (1 Bft)
03.05.2012 14:52 19,4 C 46 % 0,0 l/m 2,7 km/h (1 Bft) SO 135 7,5 C 19,4 C 4,8 km/h (1 Bft)
03.05.2012 14:53 19,5 C 46 % 0,0 l/m 3,4 km/h (1 Bft) S 180 7,6 C 19,3 C 2,9 km/h (1 Bft)
03.05.2012 14:54 19,5 C 46 % 0,0 l/m 3,4 km/h (1 Bft) S 180 7,6 C 19,3 C 2,9 km/h (1 Bft)
03.05.2012 14:55 19,5 C 45 % 0,0 l/m 3,4 km/h (1 Bft) S 180 7,2 C 19,2 C 4,8 km/h (1 Bft)
03.05.2012 14:56 19,5 C 45 % 0,0 l/m 3,4 km/h (1 Bft) S 180 7,2 C 19,2 C 4,8 km/h (1 Bft)
03.05.2012 14:57 19,5 C 45 % 0,0 l/m 3,7 km/h (1 Bft) SO 135 7,2 C 19,1 C 3,7 km/h (1 Bft)
03.05.2012 14:58 19,5 C 45 % 0,0 l/m 3,7 km/h (1 Bft) SO 135 7,2 C 19,1 C 3,7 km/h (1 Bft)
03.05.2012 14:59 19,4 C 45 % 0,0 l/m 3,5 km/h (1 Bft) W-NW 292 7,2 C 19,0 C 5,8 km/h (2 Bft)
03.05.2012 15:00 19,4 C 45 % 0,0 l/m 3,5 km/h (1 Bft) W-NW 292 7,2 C 19,0 C 5,8 km/h (2 Bft)
03.05.2012 15:01 19,2 C 43 % 0,0 l/m 3,5 km/h (1 Bft) NW 315 6,3 C 18,8 C 6,0 km/h (2 Bft)
03.05.2012 15:02 19,2 C 43 % 0,0 l/m 3,5 km/h (1 Bft) NW 315 6,3 C 18,8 C 6,0 km/h (2 Bft)
03.05.2012 15:03 19,1 C 44 % 0,0 l/m 3,5 km/h (1 Bft) NW 315 6,6 C 18,7 C 5,1 km/h (1 Bft)
03.05.2012 15:04 19,1 C 44 % 0,0 l/m 3,5 km/h (1 Bft) NW 315 6,6 C 18,7 C 5,1 km/h (1 Bft)
03.05.2012 15:05 18,9 C 43 % 0,0 l/m 3,5 km/h (1 Bft) N-NW 337 6,0 C 18,4 C 2,9 km/h (1 Bft)
03.05.2012 15:06 18,9 C 43 % 0,0 l/m 3,5 km/h (1 Bft) N-NW 337 6,0 C 18,4 C 2,9 km/h (1 Bft)
03.05.2012 15:07 18,7 C 44 % 0,0 l/m 3,5 km/h (1 Bft) W-NW 292 6,2 C 18,3 C 5,3 km/h (1 Bft)
03.05.2012 15:08 18,7 C 44 % 0,0 l/m 3,5 km/h (1 Bft) W-NW 292 6,2 C 18,3 C 5,3 km/h (1 Bft)
03.05.2012 15:09 18,4 C 44 % 0,0 l/m 3,7 km/h (1 Bft) N-NW 337 5,9 C 18,1 C 4,8 km/h (1 Bft)
03.05.2012 15:10 18,4 C 44 % 0,0 l/m 3,7 km/h (1 Bft) N-NW 337 5,9 C 18,1 C 4,8 km/h (1 Bft)
03.05.2012 15:11 18,3 C 45 % 0,0 l/m 3,5 km/h (1 Bft) NW 315 6,2 C 17,9 C 1,9 km/h (1 Bft)
03.05.2012 15:12 18,3 C 45 % 0,0 l/m 3,5 km/h (1 Bft) NW 315 6,2 C 17,9 C 1,9 km/h (1 Bft)
03.05.2012 15:13 18,2 C 45 % 0,0 l/m 3,2 km/h (1 Bft) NW 315 6,1 C 17,8 C 0,0 km/h (0 Bft)
03.05.2012 15:14 18,2 C 45 % 0,0 l/m 3,2 km/h (1 Bft) NW 315 6,1 C 17,8 C 0,0 km/h (0 Bft)
03.05.2012 15:15 18,2 C 46 % 0,0 l/m 3,1 km/h (1 Bft) W-SW 247 6,4 C 17,7 C 3,9 km/h (1 Bft)
03.05.2012 15:16 18,2 C 46 % 0,0 l/m 3,1 km/h (1 Bft) W-SW 247 6,4 C 17,7 C 3,9 km/h (1 Bft)
03.05.2012 15:17 18,2 C 46 % 0,0 l/m 3,1 km/h (1 Bft) S-SW 202 6,4 C 17,6 C 3,2 km/h (1 Bft)
03.05.2012 15:18 18,2 C 46 % 0,0 l/m 3,1 km/h (1 Bft) S-SW 202 6,4 C 17,6 C 3,2 km/h (1 Bft)
03.05.2012 15:19 18,3 C 46 % 0,0 l/m 2,6 km/h (1 Bft) S-SO 157 6,5 C 17,6 C 1,9 km/h (1 Bft)
03.05.2012 15:20 18,3 C 46 % 0,0 l/m 2,6 km/h (1 Bft) S-SO 157 6,5 C 17,6 C 1,9 km/h (1 Bft)
03.05.2012 15:21 18,3 C 47 % 0,0 l/m 2,3 km/h (1 Bft) SO 135 6,8 C 17,7 C 1,6 km/h (1 Bft)
03.05.2012 15:22 18,3 C 47 % 0,0 l/m 2,3 km/h (1 Bft) SO 135 6,8 C 17,7 C 1,6 km/h (1 Bft)
03.05.2012 15:23 18,4 C 47 % 0,0 l/m 1,9 km/h (1 Bft) W-SW 247 6,9 C 17,8 C 0,0 km/h (0 Bft)
03.05.2012 15:24 18,4 C 47 % 0,0 l/m 1,9 km/h (1 Bft) W-SW 247 6,9 C 17,8 C 0,0 km/h (0 Bft)
03.05.2012 15:25 18,5 C 47 % 0,0 l/m 1,8 km/h (1 Bft) S-SW 202 7,0 C 18,0 C 3,1 km/h (1 Bft)
03.05.2012 15:26 18,5 C 47 % 0,0 l/m 1,8 km/h (1 Bft) S-SW 202 7,0 C 18,0 C 3,1 km/h (1 Bft)
03.05.2012 15:27 18,6 C 47 % 0,0 l/m 1,4 km/h (1 Bft) S 180 7,1 C 18,2 C 2,3 km/h (1 Bft)
03.05.2012 15:28 18,6 C 47 % 0,0 l/m 1,4 km/h (1 Bft) S 180 7,1 C 18,2 C 2,3 km/h (1 Bft)
03.05.2012 15:29 19,1 C 48 % 0,0 l/m 1,4 km/h (1 Bft) O-SO 112 7,8 C 18,4 C 2,7 km/h (1 Bft)
03.05.2012 15:30 19,1 C 48 % 0,0 l/m 1,4 km/h (1 Bft) O-SO 112 7,8 C 18,4 C 2,7 km/h (1 Bft)
03.05.2012 15:31 19,3 C 46 % 0,0 l/m 1,6 km/h (1 Bft) SW 225 7,4 C 18,8 C 2,6 km/h (1 Bft)
03.05.2012 15:32 19,3 C 46 % 0,0 l/m 1,6 km/h (1 Bft) SW 225 7,4 C 18,8 C 2,6 km/h (1 Bft)
03.05.2012 15:33 19,5 C 45 % 0,0 l/m 1,8 km/h (1 Bft) NW 315 7,2 C 19,4 C 3,4 km/h (1 Bft)
03.05.2012 15:34 19,5 C 45 % 0,0 l/m 1,8 km/h (1 Bft) NW 315 7,2 C 19,4 C 3,4 km/h (1 Bft)
03.05.2012 15:35 19,5 C 44 % 0,0 l/m 2,3 km/h (1 Bft) W-NW 292 6,9 C 19,7 C 4,5 km/h (1 Bft)
03.05.2012 15:36 19,5 C 44 % 0,0 l/m 2,3 km/h (1 Bft) W-NW 292 6,9 C 19,7 C 4,5 km/h (1 Bft)
03.05.2012 15:37 19,1 C 43 % 0,0 l/m 2,7 km/h (1 Bft) W-NW 292 6,2 C 19,8 C 5,5 km/h (1 Bft)
03.05.2012 15:38 19,1 C 43 % 0,0 l/m 2,7 km/h (1 Bft) W-NW 292 6,2 C 19,8 C 5,5 km/h (1 Bft)
03.05.2012 15:39 18,9 C 44 % 0,0 l/m 3,1 km/h (1 Bft) W-NW 292 6,4 C 19,6 C 3,5 km/h (1 Bft)
03.05.2012 15:40 18,9 C 44 % 0,0 l/m 3,1 km/h (1 Bft) W-NW 292 6,4 C 19,6 C 3,5 km/h (1 Bft)
03.05.2012 15:41 18,6 C 44 % 0,0 l/m 3,2 km/h (1 Bft) NO 45 6,1 C 19,4 C 3,4 km/h (1 Bft)
03.05.2012 15:42 18,6 C 44 % 0,0 l/m 3,2 km/h (1 Bft) NO 45 6,1 C 19,4 C 3,4 km/h (1 Bft)
03.05.2012 15:43 19,1 C 44 % 0,0 l/m 3,1 km/h (1 Bft) SO 135 6,6 C 19,3 C 0,0 km/h (0 Bft)
03.05.2012 15:44 19,1 C 44 % 0,0 l/m 3,1 km/h (1 Bft) SO 135 6,6 C 19,3 C 0,0 km/h (0 Bft)
03.05.2012 15:45 19,3 C 47 % 0,0 l/m 3,1 km/h (1 Bft) W-SW 247 7,7 C 19,6 C 3,9 km/h (1 Bft)
03.05.2012 15:46 19,3 C 47 % 0,0 l/m 3,1 km/h (1 Bft) W-SW 247 7,7 C 19,6 C 3,9 km/h (1 Bft)
03.05.2012 15:47 19,6 C 45 % 0,0 l/m 3,1 km/h (1 Bft) W-SW 247 7,3 C 20,4 C 6,6 km/h (2 Bft)
03.05.2012 15:48 19,6 C 45 % 0,0 l/m 3,1 km/h (1 Bft) W-SW 247 7,3 C 20,4 C 6,6 km/h (2 Bft)
03.05.2012 15:49 19,5 C 44 % 0,0 l/m 3,1 km/h (1 Bft) S-SW 202 6,9 C 20,7 C 5,1 km/h (1 Bft)
03.05.2012 15:50 19,5 C 44 % 0,0 l/m 3,1 km/h (1 Bft) S-SW 202 6,9 C 20,7 C 5,1 km/h (1 Bft)
03.05.2012 15:51 19,9 C 44 % 0,0 l/m 3,1 km/h (1 Bft) S-SW 202 7,3 C 20,7 C 5,3 km/h (1 Bft)
03.05.2012 15:52 19,9 C 44 % 0,0 l/m 3,1 km/h (1 Bft) S-SW 202 7,3 C 20,7 C 5,3 km/h (1 Bft)
03.05.2012 15:53 20,0 C 45 % 0,0 l/m 3,4 km/h (1 Bft) W-SW 247 7,7 C 20,7 C 7,9 km/h (2 Bft)
03.05.2012 15:54 20,0 C 45 % 0,0 l/m 3,4 km/h (1 Bft) W-SW 247 7,7 C 20,7 C 7,9 km/h (2 Bft)
03.05.2012 15:55 20,0 C 44 % 0,0 l/m 4,0 km/h (1 Bft) N-NW 337 7,4 C 21,0 C 2,1 km/h (1 Bft)
03.05.2012 15:56 20,0 C 44 % 0,0 l/m 4,0 km/h (1 Bft) N-NW 337 7,4 C 21,0 C 2,1 km/h (1 Bft)
03.05.2012 15:57 20,1 C 44 % 0,0 l/m 3,7 km/h (1 Bft) W-SW 247 7,5 C 21,4 C 3,2 km/h (1 Bft)
03.05.2012 15:58 20,1 C 44 % 0,0 l/m 3,7 km/h (1 Bft) W-SW 247 7,5 C 21,4 C 3,2 km/h (1 Bft)
03.05.2012 15:59 20,3 C 44 % 0,0 l/m 3,1 km/h (1 Bft) W-SW 247 7,6 C 22,0 C 0,0 km/h (0 Bft)
03.05.2012 16:00 20,3 C 44 % 0,0 l/m 3,1 km/h (1 Bft) W-SW 247 7,6 C 22,0 C 0,0 km/h (0 Bft)
03.05.2012 16:01 20,4 C 44 % 0,0 l/m 2,7 km/h (1 Bft) S 180 7,7 C 22,6 C 4,2 km/h (1 Bft)
03.05.2012 16:02 20,4 C 44 % 0,0 l/m 2,7 km/h (1 Bft) S 180 7,7 C 22,6 C 4,2 km/h (1 Bft)
03.05.2012 16:03 20,6 C 43 % 0,0 l/m 2,6 km/h (1 Bft) O-SO 112 7,6 C 22,9 C 3,2 km/h (1 Bft)
03.05.2012 16:04 20,6 C 43 % 0,0 l/m 2,6 km/h (1 Bft) O-SO 112 7,6 C 22,9 C 3,2 km/h (1 Bft)
03.05.2012 16:05 20,6 C 44 % 0,0 l/m 2,4 km/h (1 Bft) S 180 7,9 C 23,1 C 7,4 km/h (2 Bft)
03.05.2012 16:06 20,6 C 44 % 0,0 l/m 2,4 km/h (1 Bft) S 180 7,9 C 23,1 C 7,4 km/h (2 Bft)
03.05.2012 16:07 20,7 C 41 % 0,0 l/m 2,7 km/h (1 Bft) SW 225 7,0 C 23,1 C 4,5 km/h (1 Bft)
03.05.2012 16:08 20,7 C 41 % 0,0 l/m 2,7 km/h (1 Bft) SW 225 7,0 C 23,1 C 4,5 km/h (1 Bft)
03.05.2012 16:09 20,7 C 42 % 0,0 l/m 3,2 km/h (1 Bft) S 180 7,3 C 23,0 C 4,8 km/h (1 Bft)
03.05.2012 16:10 20,7 C 42 % 0,0 l/m 3,2 km/h (1 Bft) S 180 7,3 C 23,0 C 4,8 km/h (1 Bft)
03.05.2012 16:11 20,7 C 40 % 0,0 l/m 3,7 km/h (1 Bft) W-SW 247 6,6 C 22,9 C 2,7 km/h (1 Bft)
03.05.2012 16:12 20,7 C 40 % 0,0 l/m 3,7 km/h (1 Bft) W-SW 247 6,6 C 22,9 C 2,7 km/h (1 Bft)
03.05.2012 16:13 20,5 C 41 % 0,0 l/m 3,9 km/h (1 Bft) S 180 6,8 C 22,8 C 4,5 km/h (1 Bft)
03.05.2012 16:14 20,5 C 41 % 0,0 l/m 3,9 km/h (1 Bft) S 180 6,8 C 22,8 C 4,5 km/h (1 Bft)
03.05.2012 16:15 20,2 C 41 % 0,0 l/m 3,9 km/h (1 Bft) SO 135 6,5 C 22,6 C 0,0 km/h (0 Bft)
03.05.2012 16:16 20,2 C 41 % 0,0 l/m 3,9 km/h (1 Bft) SO 135 6,5 C 22,6 C 0,0 km/h (0 Bft)
03.05.2012 16:17 20,3 C 42 % 0,0 l/m 3,2 km/h (1 Bft) N-NO 22 7,0 C 22,5 C 3,9 km/h (1 Bft)
03.05.2012 16:18 20,3 C 42 % 0,0 l/m 3,2 km/h (1 Bft) N-NO 22 7,0 C 22,5 C 3,9 km/h (1 Bft)
03.05.2012 16:19 19,7 C 42 % 0,0 l/m 3,2 km/h (1 Bft) NO 45 6,4 C 22,6 C 2,3 km/h (1 Bft)
03.05.2012 16:20 19,7 C 42 % 0,0 l/m 3,2 km/h (1 Bft) NO 45 6,4 C 22,6 C 2,3 km/h (1 Bft)
03.05.2012 16:21 19,7 C 41 % 0,0 l/m 2,9 km/h (1 Bft) NO 45 6,1 C 22,4 C 4,8 km/h (1 Bft)
03.05.2012 16:22 19,7 C 41 % 0,0 l/m 2,9 km/h (1 Bft) NO 45 6,1 C 22,4 C 4,8 km/h (1 Bft)
03.05.2012 16:23 19,8 C 42 % 0,0 l/m 2,4 km/h (1 Bft) W 270 6,5 C 22,1 C 0,0 km/h (0 Bft)
03.05.2012 16:24 19,8 C 42 % 0,0 l/m 2,4 km/h (1 Bft) W 270 6,5 C 22,1 C 0,0 km/h (0 Bft)
03.05.2012 16:25 19,4 C 43 % 0,0 l/m 1,8 km/h (1 Bft) O 90 6,5 C 22,1 C 0,0 km/h (0 Bft)
03.05.2012 16:26 19,4 C 43 % 0,0 l/m 1,8 km/h (1 Bft) O 90 6,5 C 22,1 C 0,0 km/h (0 Bft)
03.05.2012 16:27 19,2 C 43 % 0,0 l/m 1,6 km/h (1 Bft) NO 45 6,3 C 22,0 C 0,0 km/h (0 Bft)
03.05.2012 16:28 19,2 C 43 % 0,0 l/m 1,6 km/h (1 Bft) NO 45 6,3 C 22,0 C 0,0 km/h (0 Bft)
03.05.2012 16:29 19,2 C 44 % 0,0 l/m 1,4 km/h (1 Bft) N 360 6,7 C 22,0 C 0,0 km/h (0 Bft)
03.05.2012 16:30 19,2 C 44 % 0,0 l/m 1,4 km/h (1 Bft) N 360 6,7 C 22,0 C 0,0 km/h (0 Bft)
03.05.2012 16:31 19,2 C 44 % 0,0 l/m 1,0 km/h (0 Bft) O-SO 112 6,7 C 21,7 C 1,9 km/h (1 Bft)
03.05.2012 16:32 19,2 C 44 % 0,0 l/m 1,0 km/h (0 Bft) O-SO 112 6,7 C 21,7 C 1,9 km/h (1 Bft)
03.05.2012 16:33 19,3 C 45 % 0,0 l/m 0,5 km/h (0 Bft) O-SO 112 7,1 C 21,4 C 0,0 km/h (0 Bft)
03.05.2012 16:34 19,3 C 45 % 0,0 l/m 0,5 km/h (0 Bft) O-SO 112 7,1 C 21,4 C 0,0 km/h (0 Bft)
03.05.2012 16:35 19,9 C 46 % 0,0 l/m 0,5 km/h (0 Bft) SO 135 7,9 C 21,4 C 0,0 km/h (0 Bft)
03.05.2012 16:36 19,9 C 46 % 0,0 l/m 0,5 km/h (0 Bft) SO 135 7,9 C 21,4 C 0,0 km/h (0 Bft)
03.05.2012 16:37 20,0 C 45 % 0,0 l/m 0,5 km/h (0 Bft) SW 225 7,7 C 22,0 C 2,1 km/h (1 Bft)
03.05.2012 16:38 20,0 C 45 % 0,0 l/m 0,5 km/h (0 Bft) SW 225 7,7 C 22,0 C 2,1 km/h (1 Bft)
03.05.2012 16:39 19,9 C 42 % 0,0 l/m 1,3 km/h (1 Bft) W-SW 247 6,6 C 22,4 C 10,0 km/h (2 Bft)
03.05.2012 16:40 19,9 C 42 % 0,0 l/m 1,3 km/h (1 Bft) W-SW 247 6,6 C 22,4 C 12,1 km/h (2 Bft)
03.05.2012 16:41 19,8 C 43 % 0,0 l/m 1,6 km/h (1 Bft) W-NW 292 6,9 C 22,3 C 2,7 km/h (1 Bft)
03.05.2012 16:42 19,8 C 43 % 0,0 l/m 1,6 km/h (1 Bft) W-NW 292 6,9 C 22,3 C 2,7 km/h (1 Bft)
03.05.2012 16:43 19,5 C 44 % 0,0 l/m 1,6 km/h (1 Bft) SO 135 6,9 C 22,2 C 0,0 km/h (0 Bft)
03.05.2012 16:44 19,5 C 44 % 0,0 l/m 1,6 km/h (1 Bft) SO 135 6,9 C 22,2 C 0,0 km/h (0 Bft)
03.05.2012 16:45 19,2 C 45 % 0,0 l/m 1,6 km/h (1 Bft) SO 135 7,0 C 22,0 C 1,6 km/h (1 Bft)
03.05.2012 16:46 19,2 C 45 % 0,0 l/m 1,6 km/h (1 Bft) SO 135 7,0 C 22,0 C 1,6 km/h (1 Bft)
03.05.2012 16:47 19,3 C 46 % 0,0 l/m 1,9 km/h (1 Bft) S 180 7,4 C 21,7 C 3,9 km/h (1 Bft)
03.05.2012 16:48 19,3 C 46 % 0,0 l/m 1,9 km/h (1 Bft) S 180 7,4 C 21,7 C 3,9 km/h (1 Bft)
03.05.2012 16:49 19,2 C 46 % 0,0 l/m 2,1 km/h (1 Bft) SO 135 7,3 C 21,1 C 4,5 km/h (1 Bft)
03.05.2012 16:50 19,2 C 46 % 0,0 l/m 2,1 km/h (1 Bft) SO 135 7,3 C 21,1 C 4,5 km/h (1 Bft)
03.05.2012 16:51 19,1 C 46 % 0,0 l/m 1,8 km/h (1 Bft) S 180 7,2 C 20,7 C 2,9 km/h (1 Bft)
03.05.2012 16:52 19,1 C 46 % 0,0 l/m 1,8 km/h (1 Bft) S 180 7,2 C 20,7 C 2,9 km/h (1 Bft)
03.05.2012 16:53 19,1 C 46 % 0,0 l/m 2,1 km/h (1 Bft) S 180 7,2 C 20,1 C 3,7 km/h (1 Bft)
03.05.2012 16:54 19,1 C 46 % 0,0 l/m 2,1 km/h (1 Bft) S 180 7,2 C 20,1 C 3,7 km/h (1 Bft)
03.05.2012 16:55 19,1 C 45 % 0,0 l/m 2,6 km/h (1 Bft) S-SO 157 6,9 C 19,6 C 2,4 km/h (1 Bft)
03.05.2012 16:56 19,1 C 45 % 0,0 l/m 2,6 km/h (1 Bft) S-SO 157 6,9 C 19,6 C 2,4 km/h (1 Bft)
03.05.2012 16:57 18,9 C 46 % 0,0 l/m 2,7 km/h (1 Bft) S 180 7,0 C 19,2 C 1,9 km/h (1 Bft)
03.05.2012 16:58 18,9 C 46 % 0,0 l/m 2,7 km/h (1 Bft) S 180 7,0 C 19,2 C 1,9 km/h (1 Bft)
03.05.2012 16:59 18,9 C 46 % 0,0 l/m 2,9 km/h (1 Bft) W-SW 247 7,0 C 18,8 C 5,5 km/h (1 Bft)
03.05.2012 17:00 18,9 C 46 % 0,0 l/m 2,9 km/h (1 Bft) W-SW 247 7,0 C 18,8 C 5,5 km/h (1 Bft)
03.05.2012 17:01 18,9 C 46 % 0,0 l/m 2,9 km/h (1 Bft) S-SW 202 7,0 C 18,5 C 2,6 km/h (1 Bft)
03.05.2012 17:02 18,9 C 46 % 0,0 l/m 2,9 km/h (1 Bft) S-SW 202 7,0 C 18,5 C 2,6 km/h (1 Bft)
03.05.2012 17:03 18,8 C 46 % 0,0 l/m 3,1 km/h (1 Bft) W-NW 292 6,9 C 18,3 C 3,4 km/h (1 Bft)
03.05.2012 17:04 18,8 C 46 % 0,0 l/m 3,1 km/h (1 Bft) W-NW 292 6,9 C 18,3 C 3,4 km/h (1 Bft)
03.05.2012 17:05 18,7 C 46 % 0,0 l/m 3,1 km/h (1 Bft) W-NW 292 6,8 C 18,2 C 3,5 km/h (1 Bft)
03.05.2012 17:06 18,7 C 46 % 0,0 l/m 3,1 km/h (1 Bft) W-NW 292 6,8 C 18,2 C 3,5 km/h (1 Bft)
03.05.2012 17:07 18,5 C 46 % 0,0 l/m 3,1 km/h (1 Bft) NW 315 6,7 C 18,1 C 2,3 km/h (1 Bft)
03.05.2012 17:08 18,5 C 46 % 0,0 l/m 3,1 km/h (1 Bft) NW 315 6,7 C 18,1 C 2,3 km/h (1 Bft)
03.05.2012 17:09 18,4 C 46 % 0,0 l/m 2,7 km/h (1 Bft) N 360 6,6 C 18,0 C 0,0 km/h (0 Bft)
03.05.2012 17:10 18,4 C 46 % 0,0 l/m 2,7 km/h (1 Bft) N 360 6,6 C 18,0 C 0,0 km/h (0 Bft)
03.05.2012 17:11 18,5 C 46 % 0,0 l/m 2,4 km/h (1 Bft) N-NW 337 6,7 C 18,1 C 2,3 km/h (1 Bft)
03.05.2012 17:12 18,5 C 46 % 0,0 l/m 2,4 km/h (1 Bft) N-NW 337 6,7 C 18,1 C 2,3 km/h (1 Bft)
03.05.2012 17:13 18,6 C 47 % 0,0 l/m 2,1 km/h (1 Bft) W-NW 292 7,1 C 18,2 C 1,6 km/h (1 Bft)
03.05.2012 17:14 18,6 C 47 % 0,0 l/m 2,1 km/h (1 Bft) W-NW 292 7,1 C 18,2 C 1,6 km/h (1 Bft)
03.05.2012 17:15 18,6 C 47 % 0,0 l/m 1,4 km/h (1 Bft) W-SW 247 7,1 C 18,6 C 1,9 km/h (1 Bft)
03.05.2012 17:16 18,6 C 47 % 0,0 l/m 1,4 km/h (1 Bft) W-SW 247 7,1 C 18,6 C 1,9 km/h (1 Bft)
03.05.2012 17:17 18,6 C 46 % 0,0 l/m 1,4 km/h (1 Bft) W-SW 247 6,8 C 18,8 C 4,2 km/h (1 Bft)
03.05.2012 17:18 18,6 C 46 % 0,0 l/m 1,4 km/h (1 Bft) W-SW 247 6,8 C 18,8 C 4,2 km/h (1 Bft)
03.05.2012 17:19 18,7 C 45 % 0,0 l/m 1,8 km/h (1 Bft) W-SW 247 6,5 C 18,8 C 3,9 km/h (1 Bft)
03.05.2012 17:20 18,7 C 45 % 0,0 l/m 1,8 km/h (1 Bft) W-SW 247 6,5 C 18,8 C 3,9 km/h (1 Bft)
03.05.2012 17:21 18,8 C 45 % 0,0 l/m 1,6 km/h (1 Bft) SO 135 6,6 C 18,8 C 0,0 km/h (0 Bft)
03.05.2012 17:22 18,8 C 45 % 0,0 l/m 1,6 km/h (1 Bft) SO 135 6,6 C 18,8 C 0,0 km/h (0 Bft)
03.05.2012 17:23 18,9 C 46 % 0,0 l/m 1,6 km/h (1 Bft) W-SW 247 7,0 C 19,2 C 2,1 km/h (1 Bft)
03.05.2012 17:24 18,9 C 46 % 0,0 l/m 1,6 km/h (1 Bft) W-SW 247 7,0 C 19,2 C 2,1 km/h (1 Bft)
03.05.2012 17:25 19,0 C 46 % 0,0 l/m 1,8 km/h (1 Bft) W 270 7,1 C 19,7 C 1,8 km/h (1 Bft)
03.05.2012 17:26 19,0 C 46 % 0,0 l/m 1,8 km/h (1 Bft) W 270 7,1 C 19,7 C 1,8 km/h (1 Bft)
03.05.2012 17:27 19,1 C 45 % 0,0 l/m 2,3 km/h (1 Bft) W-NW 292 6,9 C 20,2 C 4,0 km/h (1 Bft)
03.05.2012 17:28 19,1 C 45 % 0,0 l/m 2,3 km/h (1 Bft) W-NW 292 6,9 C 20,2 C 4,0 km/h (1 Bft)
03.05.2012 17:29 19,2 C 45 % 0,0 l/m 2,7 km/h (1 Bft) N-NW 337 7,0 C 20,2 C 8,7 km/h (2 Bft)
03.05.2012 17:30 19,2 C 45 % 0,0 l/m 2,7 km/h (1 Bft) N-NW 337 7,0 C 20,2 C 8,7 km/h (2 Bft)
03.05.2012 17:31 19,1 C 46 % 0,0 l/m 3,2 km/h (1 Bft) NW 315 7,2 C 20,3 C 4,0 km/h (1 Bft)
03.05.2012 17:32 19,1 C 46 % 0,0 l/m 3,2 km/h (1 Bft) NW 315 7,2 C 20,3 C 4,0 km/h (1 Bft)
03.05.2012 17:33 19,1 C 46 % 0,0 l/m 4,2 km/h (1 Bft) W 270 7,2 C 20,7 C 9,5 km/h (2 Bft)
03.05.2012 17:34 19,1 C 46 % 0,0 l/m 4,2 km/h (1 Bft) W 270 7,2 C 20,7 C 9,5 km/h (2 Bft)
03.05.2012 17:35 18,9 C 46 % 0,0 l/m 4,8 km/h (1 Bft) NW 315 7,0 C 20,8 C 4,8 km/h (1 Bft)
03.05.2012 17:36 18,9 C 46 % 0,0 l/m 4,8 km/h (1 Bft) NW 315 7,0 C 20,8 C 4,8 km/h (1 Bft)
03.05.2012 17:37 18,9 C 47 % 0,0 l/m 5,0 km/h (1 Bft) NW 315 7,3 C 21,0 C 7,2 km/h (2 Bft)
03.05.2012 17:38 18,9 C 47 % 0,0 l/m 5,0 km/h (1 Bft) NW 315 7,3 C 21,0 C 7,2 km/h (2 Bft)
03.05.2012 17:39 18,9 C 47 % 0,0 l/m 5,5 km/h (1 Bft) W-SW 247 7,3 C 21,2 C 5,8 km/h (2 Bft)
03.05.2012 17:40 18,9 C 47 % 0,0 l/m 5,5 km/h (1 Bft) W-SW 247 7,3 C 21,2 C 5,8 km/h (2 Bft)
03.05.2012 17:41 18,9 C 48 % 0,0 l/m 5,0 km/h (1 Bft) W-NW 292 7,6 C 21,2 C 4,5 km/h (1 Bft)
03.05.2012 17:42 18,9 C 48 % 0,0 l/m 5,0 km/h (1 Bft) W-NW 292 7,6 C 21,2 C 4,5 km/h (1 Bft)
03.05.2012 17:43 18,7 C 49 % 0,0 l/m 5,0 km/h (1 Bft) W-SW 247 7,8 C 21,4 C 6,1 km/h (2 Bft)
03.05.2012 17:44 18,7 C 49 % 0,0 l/m 5,0 km/h (1 Bft) W-SW 247 7,8 C 21,4 C 6,1 km/h (2 Bft)
03.05.2012 17:45 18,5 C 48 % 0,0 l/m 4,5 km/h (1 Bft) NW 315 7,3 C 21,5 C 5,3 km/h (1 Bft)
03.05.2012 17:46 18,5 C 48 % 0,0 l/m 4,5 km/h (1 Bft) NW 315 7,3 C 21,5 C 5,3 km/h (1 Bft)
03.05.2012 17:47 18,5 C 48 % 0,0 l/m 4,5 km/h (1 Bft) N-NW 337 7,3 C 21,1 C 5,0 km/h (1 Bft)
03.05.2012 17:48 18,5 C 48 % 0,0 l/m 4,5 km/h (1 Bft) N-NW 337 7,3 C 21,1 C 5,0 km/h (1 Bft)
03.05.2012 17:49 18,3 C 49 % 0,0 l/m 4,0 km/h (1 Bft) W 270 7,4 C 20,4 C 4,2 km/h (1 Bft)
03.05.2012 17:50 18,3 C 49 % 0,0 l/m 4,0 km/h (1 Bft) W 270 7,4 C 20,4 C 4,2 km/h (1 Bft)
03.05.2012 17:51 18,1 C 49 % 0,0 l/m 3,9 km/h (1 Bft) N 360 7,2 C 19,8 C 7,6 km/h (2 Bft)
03.05.2012 17:52 18,1 C 49 % 0,0 l/m 3,9 km/h (1 Bft) N 360 7,2 C 19,8 C 7,6 km/h (2 Bft)
03.05.2012 17:53 18,0 C 49 % 0,0 l/m 4,3 km/h (1 Bft) NW 315 7,1 C 19,2 C 8,0 km/h (2 Bft)
03.05.2012 17:54 18,0 C 49 % 0,0 l/m 4,3 km/h (1 Bft) NW 315 7,1 C 19,2 C 8,0 km/h (2 Bft)
03.05.2012 17:55 17,9 C 50 % 0,0 l/m 4,3 km/h (1 Bft) NW 315 7,3 C 18,6 C 4,5 km/h (1 Bft)
03.05.2012 17:56 17,9 C 50 % 0,0 l/m 4,3 km/h (1 Bft) NW 315 7,3 C 18,6 C 4,5 km/h (1 Bft)
03.05.2012 17:57 17,7 C 49 % 0,0 l/m 4,2 km/h (1 Bft) O 90 6,9 C 18,3 C 3,1 km/h (1 Bft)
03.05.2012 17:58 17,7 C 49 % 0,0 l/m 4,2 km/h (1 Bft) O 90 6,9 C 18,3 C 3,1 km/h (1 Bft)
03.05.2012 17:59 17,6 C 50 % 0,0 l/m 3,9 km/h (1 Bft) W 270 7,1 C 18,0 C 5,8 km/h (2 Bft)
03.05.2012 18:00 17,6 C 50 % 0,0 l/m 3,9 km/h (1 Bft) W 270 7,1 C 18,0 C 5,8 km/h (2 Bft)
03.05.2012 18:01 17,6 C 51 % 0,0 l/m 4,0 km/h (1 Bft) W 270 7,3 C 17,7 C 4,8 km/h (1 Bft)
03.05.2012 18:02 17,6 C 51 % 0,0 l/m 4,0 km/h (1 Bft) W 270 7,3 C 17,7 C 4,8 km/h (1 Bft)
03.05.2012 18:03 17,5 C 50 % 0,0 l/m 3,7 km/h (1 Bft) S-SW 202 7,0 C 17,5 C 2,9 km/h (1 Bft)
03.05.2012 18:04 17,5 C 50 % 0,0 l/m 3,7 km/h (1 Bft) S-SW 202 7,0 C 17,5 C 2,9 km/h (1 Bft)
03.05.2012 18:05 17,5 C 50 % 0,0 l/m 3,2 km/h (1 Bft) W-SW 247 7,0 C 17,4 C 4,8 km/h (1 Bft)
03.05.2012 18:06 17,5 C 50 % 0,0 l/m 3,2 km/h (1 Bft) W-SW 247 7,0 C 17,4 C 4,8 km/h (1 Bft)
03.05.2012 18:07 17,5 C 49 % 0,0 l/m 3,4 km/h (1 Bft) W-SW 247 6,7 C 17,2 C 3,5 km/h (1 Bft)
03.05.2012 18:08 17,5 C 49 % 0,0 l/m 3,4 km/h (1 Bft) W-SW 247 6,7 C 17,2 C 3,5 km/h (1 Bft)
03.05.2012 18:09 17,4 C 51 % 0,0 l/m 3,4 km/h (1 Bft) N-NO 22 7,2 C 17,1 C 0,0 km/h (0 Bft)
03.05.2012 18:10 17,4 C 51 % 0,0 l/m 3,4 km/h (1 Bft) N-NO 22 7,2 C 17,1 C 0,0 km/h (0 Bft)
03.05.2012 18:11 17,4 C 52 % 0,0 l/m 2,9 km/h (1 Bft) N-NW 337 7,4 C 17,0 C 4,2 km/h (1 Bft)
03.05.2012 18:12 17,4 C 52 % 0,0 l/m 2,9 km/h (1 Bft) N-NW 337 7,4 C 17,0 C 4,2 km/h (1 Bft)
03.05.2012 18:13 17,3 C 52 % 0,0 l/m 2,7 km/h (1 Bft) N-NW 337 7,3 C 17,0 C 3,1 km/h (1 Bft)
03.05.2012 18:14 17,3 C 52 % 0,0 l/m 2,7 km/h (1 Bft) N-NW 337 7,3 C 17,0 C 3,1 km/h (1 Bft)
03.05.2012 18:15 17,3 C 52 % 0,0 l/m 3,1 km/h (1 Bft) N-NW 337 7,3 C 16,9 C 5,8 km/h (2 Bft)
03.05.2012 18:16 17,3 C 52 % 0,0 l/m 3,1 km/h (1 Bft) N-NW 337 7,3 C 16,9 C 5,8 km/h (2 Bft)
03.05.2012 18:17 17,2 C 51 % 0,0 l/m 2,7 km/h (1 Bft) N-NW 337 7,0 C 16,8 C 4,0 km/h (1 Bft)
03.05.2012 18:18 17,2 C 51 % 0,0 l/m 2,7 km/h (1 Bft) N-NW 337 7,0 C 16,8 C 4,0 km/h (1 Bft)
03.05.2012 18:19 17,2 C 52 % 0,0 l/m 2,6 km/h (1 Bft) W-NW 292 7,3 C 16,8 C 2,6 km/h (1 Bft)
03.05.2012 18:20 17,2 C 52 % 0,0 l/m 2,6 km/h (1 Bft) W-NW 292 7,3 C 16,8 C 2,6 km/h (1 Bft)
03.05.2012 18:21 17,2 C 53 % 0,0 l/m 2,9 km/h (1 Bft) W 270 7,5 C 16,7 C 4,2 km/h (1 Bft)
03.05.2012 18:22 17,2 C 53 % 0,0 l/m 2,9 km/h (1 Bft) W 270 7,5 C 16,7 C 4,2 km/h (1 Bft)
03.05.2012 18:23 17,1 C 52 % 0,0 l/m 3,1 km/h (1 Bft) W-SW 247 7,2 C 16,6 C 4,3 km/h (1 Bft)
03.05.2012 18:24 17,1 C 52 % 0,0 l/m 3,1 km/h (1 Bft) W-SW 247 7,2 C 16,6 C 4,3 km/h (1 Bft)
03.05.2012 18:25 17,1 C 53 % 0,0 l/m 3,1 km/h (1 Bft) N 360 7,4 C 16,6 C 2,6 km/h (1 Bft)
03.05.2012 18:26 17,1 C 53 % 0,0 l/m 3,1 km/h (1 Bft) N 360 7,4 C 16,6 C 2,6 km/h (1 Bft)
03.05.2012 18:27 17,1 C 52 % 0,0 l/m 2,6 km/h (1 Bft) NO 45 7,2 C 16,4 C 2,3 km/h (1 Bft)
03.05.2012 18:28 17,1 C 52 % 0,0 l/m 2,6 km/h (1 Bft) NO 45 7,2 C 16,4 C 2,3 km/h (1 Bft)
03.05.2012 18:29 17,1 C 54 % 0,0 l/m 2,4 km/h (1 Bft) N-NW 337 7,7 C 16,4 C 2,3 km/h (1 Bft)
03.05.2012 18:30 17,1 C 54 % 0,0 l/m 2,4 km/h (1 Bft) N-NW 337 7,7 C 16,4 C 2,3 km/h (1 Bft)
03.05.2012 18:31 17,1 C 54 % 0,0 l/m 2,6 km/h (1 Bft) W-NW 292 7,7 C 16,4 C 5,3 km/h (1 Bft)
03.05.2012 18:32 17,1 C 54 % 0,0 l/m 2,6 km/h (1 Bft) W-NW 292 7,7 C 16,4 C 5,3 km/h (1 Bft)
03.05.2012 18:33 16,9 C 54 % 0,0 l/m 2,4 km/h (1 Bft) N 360 7,5 C 16,2 C 2,3 km/h (1 Bft)
03.05.2012 18:34 16,9 C 54 % 0,0 l/m 2,4 km/h (1 Bft) N 360 7,5 C 16,2 C 2,3 km/h (1 Bft)
03.05.2012 18:35 16,9 C 55 % 0,0 l/m 1,9 km/h (1 Bft) O-SO 112 7,8 C 16,2 C 0,0 km/h (0 Bft)
03.05.2012 18:36 16,9 C 55 % 0,0 l/m 1,9 km/h (1 Bft) O-SO 112 7,8 C 16,2 C 0,0 km/h (0 Bft)
03.05.2012 18:37 16,9 C 55 % 0,0 l/m 1,6 km/h (1 Bft) N-NO 22 7,8 C 16,1 C 0,0 km/h (0 Bft)
03.05.2012 18:38 16,9 C 55 % 0,0 l/m 1,6 km/h (1 Bft) N-NO 22 7,8 C 16,1 C 0,0 km/h (0 Bft)
03.05.2012 18:39 16,9 C 54 % 0,0 l/m 1,4 km/h (1 Bft) NO 45 7,5 C 16,1 C 0,0 km/h (0 Bft)
03.05.2012 18:40 16,9 C 54 % 0,0 l/m 1,4 km/h (1 Bft) NO 45 7,5 C 16,1 C 0,0 km/h (0 Bft)
03.05.2012 18:41 16,9 C 54 % 0,0 l/m 1,3 km/h (1 Bft) N 360 7,5 C 16,1 C 2,1 km/h (1 Bft)
03.05.2012 18:42 16,9 C 54 % 0,0 l/m 1,3 km/h (1 Bft) N 360 7,5 C 16,1 C 2,1 km/h (1 Bft)
03.05.2012 18:43 16,9 C 54 % 0,0 l/m 0,6 km/h (0 Bft) NO 45 7,5 C 16,1 C 1,6 km/h (1 Bft)
03.05.2012 18:44 16,9 C 54 % 0,0 l/m 0,6 km/h (0 Bft) NO 45 7,5 C 16,1 C 1,6 km/h (1 Bft)
03.05.2012 18:45 16,7 C 55 % 0,0 l/m 0,3 km/h (0 Bft) N 360 7,6 C 16,0 C 0,0 km/h (0 Bft)
03.05.2012 18:46 16,7 C 55 % 0,0 l/m 0,3 km/h (0 Bft) N 360 7,6 C 16,0 C 0,0 km/h (0 Bft)
03.05.2012 18:47 16,6 C 57 % 0,0 l/m 0,3 km/h (0 Bft) NO 45 8,0 C 16,0 C 0,0 km/h (0 Bft)
03.05.2012 18:48 16,6 C 57 % 0,0 l/m 0,3 km/h (0 Bft) NO 45 8,0 C 16,0 C 0,0 km/h (0 Bft)
03.05.2012 18:49 16,5 C 58 % 0,0 l/m 0,3 km/h (0 Bft) O 90 8,2 C 16,0 C 0,0 km/h (0 Bft)
03.05.2012 18:50 16,5 C 58 % 0,0 l/m 0,3 km/h (0 Bft) O 90 8,2 C 16,0 C 0,0 km/h (0 Bft)
03.05.2012 18:51 16,5 C 59 % 0,0 l/m 0,3 km/h (0 Bft) NO 45 8,5 C 16,0 C 0,0 km/h (0 Bft)
03.05.2012 18:52 16,5 C 59 % 0,0 l/m 0,3 km/h (0 Bft) NO 45 8,5 C 16,0 C 0,0 km/h (0 Bft)
03.05.2012 18:53 16,5 C 58 % 0,0 l/m 0,2 km/h (0 Bft) NO 45 8,2 C 16,0 C 0,0 km/h (0 Bft)
03.05.2012 18:54 16,5 C 58 % 0,0 l/m 0,2 km/h (0 Bft) NO 45 8,2 C 16,0 C 0,0 km/h (0 Bft)
03.05.2012 18:55 16,4 C 59 % 0,0 l/m 0,2 km/h (0 Bft) O 90 8,4 C 16,0 C 0,0 km/h (0 Bft)
03.05.2012 18:56 16,4 C 59 % 0,0 l/m 0,2 km/h (0 Bft) O 90 8,4 C 16,0 C 0,0 km/h (0 Bft)
03.05.2012 18:57 16,4 C 60 % 0,0 l/m 0,0 km/h (0 Bft) O 90 8,6 C 16,1 C 0,0 km/h (0 Bft)
03.05.2012 18:58 16,4 C 60 % 0,0 l/m 0,0 km/h (0 Bft) O 90 8,6 C 16,1 C 0,0 km/h (0 Bft)
03.05.2012 18:59 16,4 C 59 % 0,0 l/m 0,0 km/h (0 Bft) O-NO 67 8,4 C 16,2 C 0,0 km/h (0 Bft)
03.05.2012 19:00 16,4 C 59 % 0,0 l/m 0,0 km/h (0 Bft) O-NO 67 8,4 C 16,2 C 0,0 km/h (0 Bft)
03.05.2012 19:01 16,5 C 60 % 0,0 l/m 0,0 km/h (0 Bft) NO 45 8,7 C 16,4 C 0,0 km/h (0 Bft)
03.05.2012 19:02 16,5 C 60 % 0,0 l/m 0,0 km/h (0 Bft) NO 45 8,7 C 16,4 C 0,0 km/h (0 Bft)
03.05.2012 19:03 16,5 C 60 % 0,0 l/m 0,0 km/h (0 Bft) N-NO 22 8,7 C 16,5 C 0,0 km/h (0 Bft)
03.05.2012 19:04 16,5 C 60 % 0,0 l/m 0,0 km/h (0 Bft) N-NO 22 8,7 C 16,5 C 0,0 km/h (0 Bft)
03.05.2012 19:05 16,5 C 60 % 0,0 l/m 0,0 km/h (0 Bft) N-NO 22 8,7 C 16,5 C 0,0 km/h (0 Bft)
03.05.2012 19:06 16,5 C 60 % 0,0 l/m 0,0 km/h (0 Bft) N-NO 22 8,7 C 16,5 C 0,0 km/h (0 Bft)
03.05.2012 19:07 16,5 C 60 % 0,0 l/m 0,0 km/h (0 Bft) N 360 8,7 C 16,5 C 0,0 km/h (0 Bft)
03.05.2012 19:08 16,5 C 60 % 0,0 l/m 0,0 km/h (0 Bft) N 360 8,7 C 16,5 C 0,0 km/h (0 Bft)
03.05.2012 19:09 16,4 C 60 % 0,0 l/m 0,0 km/h (0 Bft) W-SW 247 8,6 C 16,4 C 2,3 km/h (1 Bft)
03.05.2012 19:10 16,4 C 60 % 0,0 l/m 0,0 km/h (0 Bft) W-SW 247 8,6 C 16,4 C 2,3 km/h (1 Bft)
03.05.2012 19:11 16,3 C 60 % 0,0 l/m 0,2 km/h (0 Bft) NW 315 8,5 C 16,2 C 1,9 km/h (1 Bft)
03.05.2012 19:12 16,3 C 60 % 0,0 l/m 0,2 km/h (0 Bft) NW 315 8,5 C 16,2 C 1,9 km/h (1 Bft)
03.05.2012 19:13 16,3 C 60 % 0,0 l/m 0,2 km/h (0 Bft) N-NO 22 8,5 C 16,0 C 1,8 km/h (1 Bft)
03.05.2012 19:14 16,3 C 60 % 0,0 l/m 0,2 km/h (0 Bft) N-NO 22 8,5 C 16,0 C 1,8 km/h (1 Bft)
03.05.2012 19:15 16,1 C 60 % 0,0 l/m 0,3 km/h (0 Bft) N-NO 22 8,3 C 15,8 C 0,0 km/h (0 Bft)
03.05.2012 19:16 16,1 C 60 % 0,0 l/m 0,3 km/h (0 Bft) N-NO 22 8,3 C 15,8 C 0,0 km/h (0 Bft)
03.05.2012 19:17 16,0 C 60 % 0,0 l/m 0,3 km/h (0 Bft) NO 45 8,2 C 15,6 C 0,0 km/h (0 Bft)
03.05.2012 19:18 16,0 C 60 % 0,0 l/m 0,3 km/h (0 Bft) NO 45 8,2 C 15,6 C 0,0 km/h (0 Bft)
03.05.2012 19:19 15,9 C 60 % 0,0 l/m 0,6 km/h (0 Bft) N 360 8,1 C 15,4 C 2,9 km/h (1 Bft)
03.05.2012 19:20 15,9 C 60 % 0,0 l/m 0,6 km/h (0 Bft) N 360 8,1 C 15,4 C 2,9 km/h (1 Bft)
03.05.2012 19:21 15,7 C 60 % 0,0 l/m 0,6 km/h (0 Bft) NO 45 8,0 C 15,3 C 0,0 km/h (0 Bft)
03.05.2012 19:22 15,7 C 60 % 0,0 l/m 0,6 km/h (0 Bft) NO 45 8,0 C 15,3 C 0,0 km/h (0 Bft)
03.05.2012 19:23 15,7 C 60 % 0,0 l/m 0,6 km/h (0 Bft) N-NO 22 8,0 C 15,1 C 0,0 km/h (0 Bft)
03.05.2012 19:24 15,7 C 60 % 0,0 l/m 0,6 km/h (0 Bft) N-NO 22 8,0 C 15,1 C 0,0 km/h (0 Bft)
03.05.2012 19:25 15,4 C 60 % 0,0 l/m 0,5 km/h (0 Bft) NO 45 7,7 C 15,0 C 0,0 km/h (0 Bft)
03.05.2012 19:26 15,4 C 60 % 0,0 l/m 0,5 km/h (0 Bft) NO 45 7,7 C 15,0 C 0,0 km/h (0 Bft)
03.05.2012 19:27 15,3 C 60 % 0,0 l/m 0,5 km/h (0 Bft) NO 45 7,6 C 14,8 C 0,0 km/h (0 Bft)
03.05.2012 19:28 15,3 C 60 % 0,0 l/m 0,5 km/h (0 Bft) NO 45 7,6 C 14,8 C 0,0 km/h (0 Bft)
03.05.2012 19:29 15,3 C 63 % 0,0 l/m 0,3 km/h (0 Bft) N-NW 337 8,3 C 14,6 C 0,0 km/h (0 Bft)
03.05.2012 19:30 15,3 C 63 % 0,0 l/m 0,3 km/h (0 Bft) N-NW 337 8,3 C 14,6 C 0,0 km/h (0 Bft)
03.05.2012 19:31 15,1 C 63 % 0,0 l/m 0,0 km/h (0 Bft) N-NO 22 8,1 C 14,4 C 0,0 km/h (0 Bft)
03.05.2012 19:32 15,1 C 63 % 0,0 l/m 0,0 km/h (0 Bft) N-NO 22 8,1 C 14,4 C 0,0 km/h (0 Bft)
03.05.2012 19:33 14,9 C 64 % 0,0 l/m 0,0 km/h (0 Bft) NO 45 8,2 C 14,2 C 0,0 km/h (0 Bft)
03.05.2012 19:34 14,9 C 64 % 0,0 l/m 0,0 km/h (0 Bft) NO 45 8,2 C 14,2 C 0,0 km/h (0 Bft)
03.05.2012 19:35 14,8 C 64 % 0,0 l/m 0,0 km/h (0 Bft) N-NO 22 8,1 C 13,9 C 0,0 km/h (0 Bft)
03.05.2012 19:36 14,8 C 64 % 0,0 l/m 0,0 km/h (0 Bft) N-NO 22 8,1 C 13,9 C 0,0 km/h (0 Bft)
03.05.2012 19:37 14,7 C 65 % 0,0 l/m 0,0 km/h (0 Bft) N 360 8,2 C 13,9 C 0,0 km/h (0 Bft)
03.05.2012 19:38 14,7 C 65 % 0,0 l/m 0,0 km/h (0 Bft) N 360 8,2 C 13,9 C 0,0 km/h (0 Bft)
03.05.2012 19:39 14,6 C 65 % 0,0 l/m 0,0 km/h (0 Bft) N 360 8,1 C 13,6 C 0,0 km/h (0 Bft)
03.05.2012 19:40 14,6 C 65 % 0,0 l/m 0,0 km/h (0 Bft) N 360 8,1 C 13,6 C 0,0 km/h (0 Bft)
03.05.2012 19:41 14,4 C 65 % 0,0 l/m 0,0 km/h (0 Bft) O 90 7,9 C 13,4 C 0,0 km/h (0 Bft)
03.05.2012 19:42 14,4 C 65 % 0,0 l/m 0,0 km/h (0 Bft) O 90 7,9 C 13,4 C 0,0 km/h (0 Bft)
03.05.2012 19:43 14,3 C 65 % 0,0 l/m 0,0 km/h (0 Bft) N 360 7,8 C 13,4 C 0,0 km/h (0 Bft)
03.05.2012 19:44 14,3 C 65 % 0,0 l/m 0,0 km/h (0 Bft) N 360 7,8 C 13,4 C 0,0 km/h (0 Bft)
03.05.2012 19:45 14,3 C 66 % 0,0 l/m 0,0 km/h (0 Bft) NO 45 8,0 C 13,3 C 0,0 km/h (0 Bft)
03.05.2012 19:46 14,3 C 66 % 0,0 l/m 0,0 km/h (0 Bft) NO 45 8,0 C 13,3 C 0,0 km/h (0 Bft)
03.05.2012 19:47 14,1 C 66 % 0,0 l/m 0,0 km/h (0 Bft) N-NO 22 7,8 C 13,2 C 0,0 km/h (0 Bft)
03.05.2012 19:48 14,1 C 66 % 0,0 l/m 0,0 km/h (0 Bft) N-NO 22 7,8 C 13,2 C 0,0 km/h (0 Bft)
03.05.2012 19:49 14,1 C 68 % 0,0 l/m 0,0 km/h (0 Bft) N-NW 337 8,3 C 13,2 C 0,0 km/h (0 Bft)
03.05.2012 19:50 14,1 C 68 % 0,0 l/m 0,0 km/h (0 Bft) N-NW 337 8,3 C 13,2 C 0,0 km/h (0 Bft)
03.05.2012 19:51 14,0 C 68 % 0,0 l/m 0,0 km/h (0 Bft) N-NO 22 8,2 C 13,1 C 0,0 km/h (0 Bft)
03.05.2012 19:52 14,0 C 68 % 0,0 l/m 0,0 km/h (0 Bft) N-NO 22 8,2 C 13,1 C 0,0 km/h (0 Bft)
03.05.2012 19:53 13,9 C 68 % 0,0 l/m 0,0 km/h (0 Bft) O 90 8,1 C 13,2 C 0,0 km/h (0 Bft)
03.05.2012 19:54 13,9 C 68 % 0,0 l/m 0,0 km/h (0 Bft) O 90 8,1 C 13,2 C 0,0 km/h (0 Bft)
03.05.2012 19:55 13,6 C 69 % 0,0 l/m 0,2 km/h (0 Bft) N-NO 22 8,0 C 13,2 C 0,0 km/h (0 Bft)
03.05.2012 19:56 13,6 C 69 % 0,0 l/m 0,2 km/h (0 Bft) N-NO 22 8,0 C 13,2 C 0,0 km/h (0 Bft)
03.05.2012 19:57 13,5 C 69 % 0,0 l/m 0,2 km/h (0 Bft) N 360 7,9 C 13,0 C 0,0 km/h (0 Bft)
03.05.2012 19:58 13,5 C 69 % 0,0 l/m 0,2 km/h (0 Bft) N 360 7,9 C 13,0 C 0,0 km/h (0 Bft)
03.05.2012 19:59 13,5 C 70 % 0,0 l/m 0,2 km/h (0 Bft) N-NO 22 8,1 C 12,8 C 0,0 km/h (0 Bft)
03.05.2012 20:00 13,5 C 70 % 0,0 l/m 0,2 km/h (0 Bft) N-NO 22 8,1 C 12,8 C 0,0 km/h (0 Bft)
03.05.2012 20:01 13,4 C 70 % 0,0 l/m 0,2 km/h (0 Bft) N-NO 22 8,0 C 12,6 C 1,6 km/h (1 Bft)
03.05.2012 20:02 13,4 C 70 % 0,0 l/m 0,2 km/h (0 Bft) N-NO 22 8,0 C 12,6 C 1,6 km/h (1 Bft)
03.05.2012 20:03 13,3 C 70 % 0,0 l/m 0,2 km/h (0 Bft) N-NO 22 7,9 C 12,4 C 0,0 km/h (0 Bft)
03.05.2012 20:04 13,3 C 70 % 0,0 l/m 0,2 km/h (0 Bft) N-NO 22 7,9 C 12,4 C 0,0 km/h (0 Bft)
03.05.2012 20:05 13,3 C 70 % 0,0 l/m 0,2 km/h (0 Bft) N-NO 22 7,9 C 12,3 C 0,0 km/h (0 Bft)
03.05.2012 20:06 13,3 C 70 % 0,0 l/m 0,2 km/h (0 Bft) N-NO 22 7,9 C 12,3 C 0,0 km/h (0 Bft)
03.05.2012 20:07 13,2 C 70 % 0,0 l/m 0,2 km/h (0 Bft) O 90 7,9 C 12,3 C 0,0 km/h (0 Bft)
03.05.2012 20:08 13,2 C 70 % 0,0 l/m 0,2 km/h (0 Bft) O 90 7,9 C 12,3 C 0,0 km/h (0 Bft)
03.05.2012 20:09 13,2 C 70 % 0,0 l/m 0,2 km/h (0 Bft) N-NO 22 7,9 C 12,3 C 0,0 km/h (0 Bft)
03.05.2012 20:10 13,2 C 70 % 0,0 l/m 0,2 km/h (0 Bft) N-NO 22 7,9 C 12,3 C 0,0 km/h (0 Bft)
03.05.2012 20:11 13,2 C 70 % 0,0 l/m 0,2 km/h (0 Bft) NO 45 7,9 C 12,3 C 0,0 km/h (0 Bft)
03.05.2012 20:12 13,2 C 70 % 0,0 l/m 0,2 km/h (0 Bft) NO 45 7,9 C 12,3 C 0,0 km/h (0 Bft)
03.05.2012 20:13 13,2 C 70 % 0,0 l/m 0,2 km/h (0 Bft) N-NO 22 7,9 C 12,3 C 0,0 km/h (0 Bft)
03.05.2012 20:14 13,2 C 70 % 0,0 l/m 0,2 km/h (0 Bft) N-NO 22 7,9 C 12,3 C 0,0 km/h (0 Bft)
03.05.2012 20:15 13,2 C 70 % 0,0 l/m 0,0 km/h (0 Bft) N 360 7,9 C 12,3 C 0,0 km/h (0 Bft)
03.05.2012 20:16 13,2 C 70 % 0,0 l/m 0,0 km/h (0 Bft) N 360 7,9 C 12,3 C 0,0 km/h (0 Bft)
03.05.2012 20:17 13,2 C 71 % 0,0 l/m 0,0 km/h (0 Bft) N-NO 22 8,1 C 12,2 C 0,0 km/h (0 Bft)
03.05.2012 20:18 13,2 C 71 % 0,0 l/m 0,0 km/h (0 Bft) N-NO 22 8,1 C 12,2 C 0,0 km/h (0 Bft)
03.05.2012 20:19 13,1 C 71 % 0,0 l/m 0,0 km/h (0 Bft) N-NO 22 8,0 C 12,1 C 0,0 km/h (0 Bft)
03.05.2012 20:20 13,1 C 71 % 0,0 l/m 0,0 km/h (0 Bft) N-NO 22 8,0 C 12,1 C 0,0 km/h (0 Bft)
03.05.2012 20:21 13,1 C 72 % 0,0 l/m 0,0 km/h (0 Bft) N-NO 22 8,2 C 12,0 C 0,0 km/h (0 Bft)
03.05.2012 20:22 13,1 C 72 % 0,0 l/m 0,0 km/h (0 Bft) N-NO 22 8,2 C 12,0 C 0,0 km/h (0 Bft)
03.05.2012 20:23 12,9 C 72 % 0,0 l/m 0,0 km/h (0 Bft) NO 45 8,0 C 11,9 C 0,0 km/h (0 Bft)
03.05.2012 20:24 12,9 C 72 % 0,0 l/m 0,0 km/h (0 Bft) NO 45 8,0 C 11,9 C 0,0 km/h (0 Bft)
03.05.2012 20:25 12,9 C 73 % 0,0 l/m 0,0 km/h (0 Bft) N-NO 22 8,2 C 11,7 C 0,0 km/h (0 Bft)
03.05.2012 20:26 12,9 C 73 % 0,0 l/m 0,0 km/h (0 Bft) N-NO 22 8,2 C 11,7 C 0,0 km/h (0 Bft)
03.05.2012 20:27 12,8 C 73 % 0,0 l/m 0,0 km/h (0 Bft) N-NO 22 8,1 C 11,7 C 0,0 km/h (0 Bft)
03.05.2012 20:28 12,8 C 73 % 0,0 l/m 0,0 km/h (0 Bft) N-NO 22 8,1 C 11,7 C 0,0 km/h (0 Bft)
03.05.2012 20:29 12,8 C 73 % 0,0 l/m 0,2 km/h (0 Bft) NO 45 8,1 C 11,6 C 3,2 km/h (1 Bft)
03.05.2012 20:30 12,8 C 73 % 0,0 l/m 0,2 km/h (0 Bft) NO 45 8,1 C 11,6 C 3,2 km/h (1 Bft)
03.05.2012 20:31 12,9 C 73 % 0,0 l/m 0,5 km/h (0 Bft) O-NO 67 8,2 C 11,5 C 2,3 km/h (1 Bft)
03.05.2012 20:32 12,9 C 73 % 0,0 l/m 0,5 km/h (0 Bft) O-NO 67 8,2 C 11,5 C 2,3 km/h (1 Bft)
03.05.2012 20:33 12,8 C 73 % 0,0 l/m 0,8 km/h (0 Bft) N-NO 22 8,1 C 11,5 C 2,6 km/h (1 Bft)
03.05.2012 20:34 12,8 C 73 % 0,0 l/m 0,8 km/h (0 Bft) N-NO 22 8,1 C 11,5 C 2,6 km/h (1 Bft)
03.05.2012 20:35 12,8 C 73 % 0,0 l/m 1,0 km/h (0 Bft) N-NO 22 8,1 C 11,4 C 1,6 km/h (1 Bft)
03.05.2012 20:36 12,8 C 73 % 0,0 l/m 1,0 km/h (0 Bft) N-NO 22 8,1 C 11,4 C 1,6 km/h (1 Bft)
03.05.2012 20:37 12,8 C 73 % 0,0 l/m 1,0 km/h (0 Bft) N 360 8,1 C 11,3 C 1,8 km/h (1 Bft)
03.05.2012 20:38 12,8 C 73 % 0,0 l/m 1,0 km/h (0 Bft) N 360 8,1 C 11,3 C 1,8 km/h (1 Bft)
03.05.2012 20:39 12,8 C 73 % 0,0 l/m 1,1 km/h (1 Bft) N 360 8,1 C 11,3 C 2,3 km/h (1 Bft)
03.05.2012 20:40 12,8 C 73 % 0,0 l/m 1,1 km/h (1 Bft) N 360 8,1 C 11,3 C 2,3 km/h (1 Bft)
03.05.2012 20:41 12,8 C 73 % 0,0 l/m 0,8 km/h (0 Bft) W-NW 292 8,1 C 11,2 C 0,0 km/h (0 Bft)
03.05.2012 20:42 12,8 C 73 % 0,0 l/m 0,8 km/h (0 Bft) W-NW 292 8,1 C 11,2 C 0,0 km/h (0 Bft)
03.05.2012 20:43 12,7 C 73 % 0,0 l/m 0,6 km/h (0 Bft) N-NO 22 8,0 C 11,1 C 1,6 km/h (1 Bft)
03.05.2012 20:44 12,7 C 73 % 0,0 l/m 0,6 km/h (0 Bft) N-NO 22 8,0 C 11,1 C 1,6 km/h (1 Bft)
03.05.2012 20:45 12,7 C 72 % 0,0 l/m 0,6 km/h (0 Bft) N 360 7,8 C 11,0 C 0,0 km/h (0 Bft)
03.05.2012 20:46 12,7 C 72 % 0,0 l/m 0,6 km/h (0 Bft) N 360 7,8 C 11,0 C 0,0 km/h (0 Bft)
03.05.2012 20:47 12,6 C 73 % 0,0 l/m 0,6 km/h (0 Bft) N 360 7,9 C 10,9 C 1,8 km/h (1 Bft)
03.05.2012 20:48 12,6 C 73 % 0,0 l/m 0,6 km/h (0 Bft) N 360 7,9 C 10,9 C 1,8 km/h (1 Bft)
03.05.2012 20:49 12,5 C 73 % 0,0 l/m 0,5 km/h (0 Bft) N-NO 22 7,8 C 10,8 C 0,0 km/h (0 Bft)
03.05.2012 20:50 12,5 C 73 % 0,0 l/m 0,5 km/h (0 Bft) N-NO 22 7,8 C 10,8 C 0,0 km/h (0 Bft)
03.05.2012 20:51 12,5 C 73 % 0,0 l/m 0,3 km/h (0 Bft) N-NO 22 7,8 C 10,6 C 0,0 km/h (0 Bft)
03.05.2012 20:52 12,5 C 73 % 0,0 l/m 0,3 km/h (0 Bft) N-NO 22 7,8 C 10,6 C 0,0 km/h (0 Bft)
03.05.2012 20:53 12,2 C 73 % 0,0 l/m 0,3 km/h (0 Bft) N-NO 22 7,5 C 10,5 C 0,0 km/h (0 Bft)
03.05.2012 20:54 12,2 C 73 % 0,0 l/m 0,3 km/h (0 Bft) N-NO 22 7,5 C 10,5 C 0,0 km/h (0 Bft)
03.05.2012 20:55 12,1 C 74 % 0,0 l/m 0,2 km/h (0 Bft) NO 45 7,6 C 10,4 C 0,0 km/h (0 Bft)
03.05.2012 20:56 12,1 C 74 % 0,0 l/m 0,2 km/h (0 Bft) NO 45 7,6 C 10,4 C 0,0 km/h (0 Bft)
03.05.2012 20:57 12,1 C 74 % 0,0 l/m 0,0 km/h (0 Bft) N 360 7,6 C 10,2 C 0,0 km/h (0 Bft)
03.05.2012 20:58 12,1 C 74 % 0,0 l/m 0,0 km/h (0 Bft) N 360 7,6 C 10,2 C 0,0 km/h (0 Bft)
03.05.2012 20:59 11,9 C 74 % 0,0 l/m 0,0 km/h (0 Bft) N-NW 337 7,4 C 10,1 C 0,0 km/h (0 Bft)
03.05.2012 21:00 11,9 C 74 % 0,0 l/m 0,0 km/h (0 Bft) N-NW 337 7,4 C 10,1 C 0,0 km/h (0 Bft)
03.05.2012 21:01 11,9 C 74 % 0,0 l/m 0,0 km/h (0 Bft) N-NO 22 7,4 C 10,1 C 0,0 km/h (0 Bft)
03.05.2012 21:02 11,9 C 74 % 0,0 l/m 0,0 km/h (0 Bft) N-NO 22 7,4 C 10,1 C 0,0 km/h (0 Bft)
03.05.2012 21:03 11,7 C 75 % 0,0 l/m 0,2 km/h (0 Bft) N-NO 22 7,4 C 10,1 C 0,0 km/h (0 Bft)
03.05.2012 21:04 11,7 C 75 % 0,0 l/m 0,2 km/h (0 Bft) N-NO 22 7,4 C 10,1 C 0,0 km/h (0 Bft)
03.05.2012 21:05 11,6 C 75 % 0,0 l/m 0,2 km/h (0 Bft) N 360 7,3 C 10,0 C 0,0 km/h (0 Bft)
03.05.2012 21:06 11,6 C 75 % 0,0 l/m 0,2 km/h (0 Bft) N 360 7,3 C 10,0 C 0,0 km/h (0 Bft)
03.05.2012 21:07 11,6 C 75 % 0,0 l/m 0,2 km/h (0 Bft) NO 45 7,3 C 10,0 C 0,0 km/h (0 Bft)
03.05.2012 21:08 11,6 C 75 % 0,0 l/m 0,2 km/h (0 Bft) NO 45 7,3 C 10,0 C 0,0 km/h (0 Bft)
03.05.2012 21:09 11,6 C 76 % 0,0 l/m 0,3 km/h (0 Bft) S-SO 157 7,5 C 9,9 C 1,8 km/h (1 Bft)
03.05.2012 21:10 11,6 C 76 % 0,0 l/m 0,3 km/h (0 Bft) S-SO 157 7,5 C 9,9 C 1,8 km/h (1 Bft)
03.05.2012 21:11 11,5 C 76 % 0,0 l/m 0,3 km/h (0 Bft) NO 45 7,4 C 9,9 C 0,0 km/h (0 Bft)
03.05.2012 21:12 11,5 C 76 % 0,0 l/m 0,3 km/h (0 Bft) NO 45 7,4 C 9,9 C 0,0 km/h (0 Bft)
03.05.2012 21:13 11,5 C 76 % 0,0 l/m 0,3 km/h (0 Bft) N-NO 22 7,4 C 9,9 C 1,6 km/h (1 Bft)
03.05.2012 21:14 11,5 C 76 % 0,0 l/m 0,3 km/h (0 Bft) N-NO 22 7,4 C 9,9 C 1,6 km/h (1 Bft)
03.05.2012 21:15 11,4 C 76 % 0,0 l/m 0,3 km/h (0 Bft) N 360 7,3 C 9,9 C 0,0 km/h (0 Bft)
03.05.2012 21:16 11,4 C 76 % 0,0 l/m 0,3 km/h (0 Bft) N 360 7,3 C 9,9 C 0,0 km/h (0 Bft)
03.05.2012 21:17 11,5 C 76 % 0,0 l/m 0,3 km/h (0 Bft) NO 45 7,4 C 9,9 C 1,6 km/h (1 Bft)
03.05.2012 21:18 11,5 C 76 % 0,0 l/m 0,3 km/h (0 Bft) NO 45 7,4 C 9,9 C 1,6 km/h (1 Bft)
03.05.2012 21:19 11,5 C 77 % 0,0 l/m 0,5 km/h (0 Bft) N-NO 22 7,6 C 9,9 C 0,0 km/h (0 Bft)
03.05.2012 21:20 11,5 C 77 % 0,0 l/m 0,5 km/h (0 Bft) N-NO 22 7,6 C 9,9 C 0,0 km/h (0 Bft)
03.05.2012 21:21 11,3 C 76 % 0,0 l/m 0,3 km/h (0 Bft) N-NO 22 7,2 C 9,9 C 0,0 km/h (0 Bft)
03.05.2012 21:22 11,3 C 76 % 0,0 l/m 0,3 km/h (0 Bft) N-NO 22 7,2 C 9,9 C 0,0 km/h (0 Bft)
03.05.2012 21:23 11,3 C 76 % 0,0 l/m 0,3 km/h (0 Bft) N-NO 22 7,2 C 9,9 C 1,8 km/h (1 Bft)
03.05.2012 21:24 11,3 C 76 % 0,0 l/m 0,3 km/h (0 Bft) N-NO 22 7,2 C 9,9 C 1,8 km/h (1 Bft)
03.05.2012 21:25 11,3 C 76 % 0,0 l/m 0,8 km/h (0 Bft) NO 45 7,2 C 9,9 C 3,5 km/h (1 Bft)
03.05.2012 21:26 11,3 C 76 % 0,0 l/m 0,8 km/h (0 Bft) NO 45 7,2 C 9,9 C 3,5 km/h (1 Bft)
03.05.2012 21:27 11,3 C 76 % 0,0 l/m 1,1 km/h (1 Bft) NO 45 7,2 C 9,8 C 2,7 km/h (1 Bft)
03.05.2012 21:28 11,3 C 76 % 0,0 l/m 1,1 km/h (1 Bft) NO 45 7,2 C 9,8 C 2,7 km/h (1 Bft)
03.05.2012 21:29 11,2 C 76 % 0,0 l/m 1,4 km/h (1 Bft) O-NO 67 7,1 C 9,7 C 2,1 km/h (1 Bft)
03.05.2012 21:30 11,2 C 76 % 0,0 l/m 1,4 km/h (1 Bft) O-NO 67 7,1 C 9,7 C 2,1 km/h (1 Bft)
03.05.2012 21:31 11,3 C 76 % 0,0 l/m 1,4 km/h (1 Bft) N-NO 22 7,2 C 9,6 C 0,0 km/h (0 Bft)
03.05.2012 21:32 11,3 C 76 % 0,0 l/m 1,4 km/h (1 Bft) N-NO 22 7,2 C 9,6 C 0,0 km/h (0 Bft)
03.05.2012 21:33 11,2 C 76 % 0,0 l/m 1,4 km/h (1 Bft) N-NO 22 7,1 C 9,6 C 0,0 km/h (0 Bft)
03.05.2012 21:34 11,2 C 76 % 0,0 l/m 1,4 km/h (1 Bft) N-NO 22 7,1 C 9,6 C 0,0 km/h (0 Bft)
03.05.2012 21:35 11,2 C 76 % 0,0 l/m 1,3 km/h (1 Bft) N-NO 22 7,1 C 9,6 C 0,0 km/h (0 Bft)
03.05.2012 21:36 11,2 C 76 % 0,0 l/m 1,3 km/h (1 Bft) N-NO 22 7,1 C 9,6 C 0,0 km/h (0 Bft)
03.05.2012 21:37 11,2 C 76 % 0,0 l/m 0,8 km/h (0 Bft) N-NO 22 7,1 C 9,6 C 0,0 km/h (0 Bft)
03.05.2012 21:38 11,2 C 76 % 0,0 l/m 0,8 km/h (0 Bft) N-NO 22 7,1 C 9,6 C 0,0 km/h (0 Bft)
03.05.2012 21:39 11,3 C 76 % 0,0 l/m 0,3 km/h (0 Bft) N-NO 22 7,2 C 9,5 C 0,0 km/h (0 Bft)
03.05.2012 21:40 11,3 C 76 % 0,0 l/m 0,3 km/h (0 Bft) N-NO 22 7,2 C 9,5 C 0,0 km/h (0 Bft)
03.05.2012 21:41 11,3 C 76 % 0,0 l/m 0,0 km/h (0 Bft) N-NO 22 7,2 C 9,5 C 0,0 km/h (0 Bft)
03.05.2012 21:42 11,3 C 76 % 0,0 l/m 0,0 km/h (0 Bft) N-NO 22 7,2 C 9,5 C 0,0 km/h (0 Bft)
03.05.2012 21:43 11,4 C 76 % 0,0 l/m 0,0 km/h (0 Bft) N-NO 22 7,3 C 9,5 C 0,0 km/h (0 Bft)
03.05.2012 21:44 11,4 C 76 % 0,0 l/m 0,0 km/h (0 Bft) N-NO 22 7,3 C 9,5 C 0,0 km/h (0 Bft)
03.05.2012 21:45 11,5 C 76 % 0,0 l/m 0,0 km/h (0 Bft) N-NO 22 7,4 C 9,5 C 0,0 km/h (0 Bft)
03.05.2012 21:46 11,5 C 76 % 0,0 l/m 0,0 km/h (0 Bft) N-NO 22 7,4 C 9,5 C 0,0 km/h (0 Bft)
03.05.2012 21:47 11,5 C 76 % 0,0 l/m 0,0 km/h (0 Bft) N-NO 22 7,4 C 9,5 C 0,0 km/h (0 Bft)
03.05.2012 21:48 11,5 C 76 % 0,0 l/m 0,0 km/h (0 Bft) N-NO 22 7,4 C 9,5 C 0,0 km/h (0 Bft)
03.05.2012 21:49 11,5 C 76 % 0,0 l/m 0,0 km/h (0 Bft) N-NO 22 7,4 C 9,5 C 0,0 km/h (0 Bft)
03.05.2012 21:50 11,5 C 76 % 0,0 l/m 0,0 km/h (0 Bft) N-NO 22 7,4 C 9,5 C 0,0 km/h (0 Bft)
03.05.2012 21:51 11,5 C 76 % 0,0 l/m 0,0 km/h (0 Bft) N-NO 22 7,4 C 9,5 C 0,0 km/h (0 Bft)
03.05.2012 21:52 11,5 C 76 % 0,0 l/m 0,0 km/h (0 Bft) N-NO 22 7,4 C 9,5 C 0,0 km/h (0 Bft)
03.05.2012 21:53 11,5 C 76 % 0,0 l/m 0,0 km/h (0 Bft) NO 45 7,4 C 9,5 C 0,0 km/h (0 Bft)
03.05.2012 21:54 11,5 C 76 % 0,0 l/m 0,0 km/h (0 Bft) NO 45 7,4 C 9,5 C 0,0 km/h (0 Bft)
03.05.2012 21:55 11,5 C 76 % 0,0 l/m 0,0 km/h (0 Bft) NO 45 7,4 C 9,5 C 0,0 km/h (0 Bft)
03.05.2012 21:56 11,5 C 76 % 0,0 l/m 0,0 km/h (0 Bft) NO 45 7,4 C 9,5 C 0,0 km/h (0 Bft)
03.05.2012 21:57 11,4 C 76 % 0,0 l/m 0,0 km/h (0 Bft) O-NO 67 7,3 C 9,5 C 0,0 km/h (0 Bft)
03.05.2012 21:58 11,4 C 76 % 0,0 l/m 0,0 km/h (0 Bft) O-NO 67 7,3 C 9,5 C 0,0 km/h (0 Bft)
03.05.2012 21:59 11,4 C 76 % 0,0 l/m 0,0 km/h (0 Bft) O 90 7,3 C 9,5 C 0,0 km/h (0 Bft)
03.05.2012 22:00 11,4 C 76 % 0,0 l/m 0,0 km/h (0 Bft) O 90 7,3 C 9,5 C 0,0 km/h (0 Bft)
03.05.2012 22:01 11,3 C 76 % 0,0 l/m 0,0 km/h (0 Bft) O-NO 67 7,2 C 9,5 C 0,0 km/h (0 Bft)
03.05.2012 22:02 11,3 C 76 % 0,0 l/m 0,0 km/h (0 Bft) O-NO 67 7,2 C 9,5 C 0,0 km/h (0 Bft)
03.05.2012 22:03 11,3 C 76 % 0,0 l/m 0,0 km/h (0 Bft) NO 45 7,2 C 9,5 C 0,0 km/h (0 Bft)
03.05.2012 22:04 11,3 C 76 % 0,0 l/m 0,0 km/h (0 Bft) NO 45 7,2 C 9,5 C 0,0 km/h (0 Bft)
03.05.2012 22:05 11,4 C 76 % 0,0 l/m 0,0 km/h (0 Bft) SO 135 7,3 C 9,6 C 0,0 km/h (0 Bft)
03.05.2012 22:06 11,4 C 76 % 0,0 l/m 0,0 km/h (0 Bft) SO 135 7,3 C 9,6 C 0,0 km/h (0 Bft)
03.05.2012 22:07 11,5 C 76 % 0,0 l/m 0,0 km/h (0 Bft) SO 135 7,4 C 9,6 C 0,0 km/h (0 Bft)
03.05.2012 22:08 11,5 C 76 % 0,0 l/m 0,0 km/h (0 Bft) SO 135 7,4 C 9,6 C 0,0 km/h (0 Bft)
03.05.2012 22:09 11,4 C 76 % 0,0 l/m 0,0 km/h (0 Bft) NO 45 7,3 C 9,6 C 0,0 km/h (0 Bft)
03.05.2012 22:10 11,4 C 76 % 0,0 l/m 0,0 km/h (0 Bft) NO 45 7,3 C 9,6 C 0,0 km/h (0 Bft)
03.05.2012 22:11 11,5 C 76 % 0,0 l/m 0,0 km/h (0 Bft) NO 45 7,4 C 9,7 C 0,0 km/h (0 Bft)
03.05.2012 22:12 11,5 C 76 % 0,0 l/m 0,0 km/h (0 Bft) NO 45 7,4 C 9,7 C 0,0 km/h (0 Bft)
03.05.2012 22:13 11,5 C 76 % 0,0 l/m 0,0 km/h (0 Bft) N 360 7,4 C 9,8 C 0,0 km/h (0 Bft)
03.05.2012 22:14 11,5 C 76 % 0,0 l/m 0,0 km/h (0 Bft) N 360 7,4 C 9,8 C 0,0 km/h (0 Bft)
03.05.2012 22:15 11,4 C 76 % 0,0 l/m 0,2 km/h (0 Bft) NO 45 7,3 C 9,8 C 1,6 km/h (1 Bft)
03.05.2012 22:16 11,4 C 76 % 0,0 l/m 0,2 km/h (0 Bft) NO 45 7,3 C 9,8 C 1,6 km/h (1 Bft)
03.05.2012 22:17 11,5 C 76 % 0,0 l/m 0,2 km/h (0 Bft) O-SO 112 7,4 C 9,9 C 0,0 km/h (0 Bft)
03.05.2012 22:18 11,5 C 76 % 0,0 l/m 0,2 km/h (0 Bft) O-SO 112 7,4 C 9,9 C 0,0 km/h (0 Bft)
03.05.2012 22:19 11,5 C 76 % 0,0 l/m 0,2 km/h (0 Bft) S-SO 157 7,4 C 9,9 C 0,0 km/h (0 Bft)
03.05.2012 22:20 11,5 C 76 % 0,0 l/m 0,2 km/h (0 Bft) S-SO 157 7,4 C 9,9 C 0,0 km/h (0 Bft)
03.05.2012 22:21 11,5 C 76 % 0,0 l/m 0,3 km/h (0 Bft) S-SW 202 7,4 C 9,9 C 2,6 km/h (1 Bft)
03.05.2012 22:22 11,5 C 76 % 0,0 l/m 0,3 km/h (0 Bft) S-SW 202 7,4 C 9,9 C 2,6 km/h (1 Bft)
03.05.2012 22:23 11,5 C 76 % 0,0 l/m 0,3 km/h (0 Bft) N-NO 22 7,4 C 10,1 C 1,6 km/h (1 Bft)
03.05.2012 22:24 11,5 C 76 % 0,0 l/m 0,3 km/h (0 Bft) N-NO 22 7,4 C 10,1 C 1,6 km/h (1 Bft)
03.05.2012 22:25 11,5 C 76 % 0,0 l/m 0,5 km/h (0 Bft) SO 135 7,4 C 10,1 C 0,0 km/h (0 Bft)
03.05.2012 22:26 11,5 C 76 % 0,0 l/m 0,5 km/h (0 Bft) SO 135 7,4 C 10,1 C 0,0 km/h (0 Bft)
03.05.2012 22:27 11,6 C 76 % 0,0 l/m 0,5 km/h (0 Bft) O-SO 112 7,5 C 10,3 C 3,2 km/h (1 Bft)
03.05.2012 22:28 11,6 C 76 % 0,0 l/m 0,5 km/h (0 Bft) O-SO 112 7,5 C 10,3 C 3,2 km/h (1 Bft)
03.05.2012 22:29 11,7 C 76 % 0,0 l/m 1,1 km/h (1 Bft) O-NO 67 7,6 C 10,4 C 3,7 km/h (1 Bft)
03.05.2012 22:30 11,7 C 76 % 0,0 l/m 1,1 km/h (1 Bft) O-NO 67 7,6 C 10,4 C 3,7 km/h (1 Bft)
03.05.2012 22:31 11,7 C 76 % 0,0 l/m 1,3 km/h (1 Bft) W-NW 292 7,6 C 10,5 C 0,0 km/h (0 Bft)
03.05.2012 22:32 11,7 C 76 % 0,0 l/m 1,3 km/h (1 Bft) W-NW 292 7,6 C 10,5 C 0,0 km/h (0 Bft)
03.05.2012 22:33 11,6 C 76 % 0,0 l/m 1,1 km/h (1 Bft) N-NO 22 7,5 C 10,6 C 0,0 km/h (0 Bft)
03.05.2012 22:34 11,6 C 76 % 0,0 l/m 1,1 km/h (1 Bft) N-NO 22 7,5 C 10,6 C 0,0 km/h (0 Bft)
03.05.2012 22:35 11,7 C 76 % 0,0 l/m 1,0 km/h (0 Bft) N 360 7,6 C 10,6 C 0,0 km/h (0 Bft)
03.05.2012 22:36 11,7 C 76 % 0,0 l/m 1,0 km/h (0 Bft) N 360 7,6 C 10,6 C 0,0 km/h (0 Bft)
03.05.2012 22:37 11,7 C 76 % 0,0 l/m 1,0 km/h (0 Bft) S 180 7,6 C 10,6 C 0,0 km/h (0 Bft)
03.05.2012 22:38 11,7 C 76 % 0,0 l/m 1,0 km/h (0 Bft) S 180 7,6 C 10,6 C 0,0 km/h (0 Bft)
03.05.2012 22:39 11,7 C 76 % 0,0 l/m 0,5 km/h (0 Bft) SO 135 7,6 C 10,6 C 0,0 km/h (0 Bft)
03.05.2012 22:40 11,7 C 76 % 0,0 l/m 0,5 km/h (0 Bft) SO 135 7,6 C 10,6 C 0,0 km/h (0 Bft)
03.05.2012 22:41 11,7 C 76 % 0,0 l/m 0,0 km/h (0 Bft) SO 135 7,6 C 10,6 C 0,0 km/h (0 Bft)
03.05.2012 22:42 11,7 C 76 % 0,0 l/m 0,0 km/h (0 Bft) SO 135 7,6 C 10,6 C 0,0 km/h (0 Bft)
03.05.2012 22:43 11,7 C 76 % 0,0 l/m 0,3 km/h (0 Bft) O-SO 112 7,6 C 10,6 C 2,6 km/h (1 Bft)
03.05.2012 22:44 11,7 C 76 % 0,0 l/m 0,3 km/h (0 Bft) O-SO 112 7,6 C 10,6 C 2,6 km/h (1 Bft)
03.05.2012 22:45 11,8 C 76 % 0,0 l/m 0,6 km/h (0 Bft) SO 135 7,7 C 10,6 C 2,6 km/h (1 Bft)
03.05.2012 22:46 11,8 C 76 % 0,0 l/m 0,6 km/h (0 Bft) SO 135 7,7 C 10,6 C 2,6 km/h (1 Bft)
03.05.2012 22:47 11,9 C 76 % 0,0 l/m 1,4 km/h (1 Bft) O-SO 112 7,8 C 10,7 C 2,7 km/h (1 Bft)
03.05.2012 22:48 11,9 C 76 % 0,0 l/m 1,4 km/h (1 Bft) O-SO 112 7,8 C 10,7 C 2,7 km/h (1 Bft)
03.05.2012 22:49 11,8 C 76 % 0,0 l/m 1,8 km/h (1 Bft) O-SO 112 7,7 C 10,7 C 2,9 km/h (1 Bft)
03.05.2012 22:50 11,8 C 76 % 0,0 l/m 1,8 km/h (1 Bft) O-SO 112 7,7 C 10,7 C 2,9 km/h (1 Bft)
03.05.2012 22:51 11,9 C 76 % 0,0 l/m 2,1 km/h (1 Bft) O-NO 67 7,8 C 10,7 C 1,6 km/h (1 Bft)
03.05.2012 22:52 11,9 C 76 % 0,0 l/m 2,1 km/h (1 Bft) O-NO 67 7,8 C 10,7 C 1,6 km/h (1 Bft)
03.05.2012 22:53 11,7 C 76 % 0,0 l/m 2,3 km/h (1 Bft) NO 45 7,6 C 10,7 C 2,4 km/h (1 Bft)
03.05.2012 22:54 11,7 C 76 % 0,0 l/m 2,3 km/h (1 Bft) NO 45 7,6 C 10,7 C 2,4 km/h (1 Bft)
03.05.2012 22:55 11,8 C 76 % 0,0 l/m 2,1 km/h (1 Bft) NO 45 7,7 C 10,6 C 0,0 km/h (0 Bft)
03.05.2012 22:56 11,8 C 76 % 0,0 l/m 2,1 km/h (1 Bft) NO 45 7,7 C 10,6 C 0,0 km/h (0 Bft)
03.05.2012 22:57 11,7 C 76 % 0,0 l/m 1,8 km/h (1 Bft) N-NO 22 7,6 C 10,6 C 1,6 km/h (1 Bft)
03.05.2012 22:58 11,7 C 76 % 0,0 l/m 1,8 km/h (1 Bft) N-NO 22 7,6 C 10,6 C 1,6 km/h (1 Bft)
03.05.2012 22:59 11,7 C 77 % 0,0 l/m 1,4 km/h (1 Bft) N-NO 22 7,8 C 10,5 C 2,6 km/h (1 Bft)
03.05.2012 23:00 11,7 C 77 % 0,0 l/m 1,4 km/h (1 Bft) N-NO 22 7,8 C 10,5 C 2,6 km/h (1 Bft)
03.05.2012 23:01 11,7 C 76 % 0,0 l/m 1,6 km/h (1 Bft) N-NO 22 7,6 C 10,5 C 5,6 km/h (1 Bft)
03.05.2012 23:02 11,7 C 76 % 0,0 l/m 1,6 km/h (1 Bft) N-NO 22 7,6 C 10,5 C 5,6 km/h (1 Bft)
03.05.2012 23:03 11,7 C 76 % 0,0 l/m 1,9 km/h (1 Bft) N 360 7,6 C 10,6 C 4,8 km/h (1 Bft)
03.05.2012 23:04 11,7 C 76 % 0,0 l/m 1,9 km/h (1 Bft) N 360 7,6 C 10,6 C 4,8 km/h (1 Bft)
03.05.2012 23:05 11,7 C 75 % 0,0 l/m 2,1 km/h (1 Bft) NO 45 7,4 C 10,7 C 4,7 km/h (1 Bft)
03.05.2012 23:06 11,7 C 75 % 0,0 l/m 2,1 km/h (1 Bft) NO 45 7,4 C 10,7 C 4,7 km/h (1 Bft)
03.05.2012 23:07 11,8 C 75 % 0,0 l/m 2,3 km/h (1 Bft) SO 135 7,5 C 10,8 C 2,7 km/h (1 Bft)
03.05.2012 23:08 11,8 C 75 % 0,0 l/m 2,3 km/h (1 Bft) SO 135 7,5 C 10,8 C 2,7 km/h (1 Bft)
03.05.2012 23:09 11,9 C 75 % 0,0 l/m 2,1 km/h (1 Bft) W-SW 247 7,6 C 10,9 C 0,0 km/h (0 Bft)
03.05.2012 23:10 11,9 C 75 % 0,0 l/m 2,1 km/h (1 Bft) W-SW 247 7,6 C 10,9 C 0,0 km/h (0 Bft)
03.05.2012 23:11 11,9 C 75 % 0,0 l/m 1,9 km/h (1 Bft) W 270 7,6 C 10,9 C 0,0 km/h (0 Bft)
03.05.2012 23:12 11,9 C 75 % 0,0 l/m 1,9 km/h (1 Bft) W 270 7,6 C 10,9 C 0,0 km/h (0 Bft)
03.05.2012 23:13 11,8 C 75 % 0,0 l/m 1,4 km/h (1 Bft) S-SW 202 7,5 C 10,9 C 2,9 km/h (1 Bft)
03.05.2012 23:14 11,8 C 75 % 0,0 l/m 1,4 km/h (1 Bft) S-SW 202 7,5 C 10,9 C 2,9 km/h (1 Bft)
03.05.2012 23:15 11,9 C 76 % 0,0 l/m 1,0 km/h (0 Bft) N 360 7,8 C 10,8 C 0,0 km/h (0 Bft)
03.05.2012 23:16 11,9 C 76 % 0,0 l/m 1,0 km/h (0 Bft) N 360 7,8 C 10,8 C 0,0 km/h (0 Bft)
03.05.2012 23:17 11,8 C 75 % 0,0 l/m 0,8 km/h (0 Bft) N 360 7,5 C 10,8 C 0,0 km/h (0 Bft)
03.05.2012 23:18 11,8 C 75 % 0,0 l/m 0,8 km/h (0 Bft) N 360 7,5 C 10,8 C 0,0 km/h (0 Bft)
03.05.2012 23:19 11,8 C 76 % 0,0 l/m 0,5 km/h (0 Bft) N 360 7,7 C 10,8 C 3,1 km/h (1 Bft)
03.05.2012 23:20 11,8 C 76 % 0,0 l/m 0,5 km/h (0 Bft) N 360 7,7 C 10,8 C 3,1 km/h (1 Bft)
03.05.2012 23:21 11,7 C 75 % 0,0 l/m 1,0 km/h (0 Bft) N 360 7,4 C 10,7 C 3,4 km/h (1 Bft)
03.05.2012 23:22 11,7 C 75 % 0,0 l/m 1,0 km/h (0 Bft) N 360 7,4 C 10,7 C 3,4 km/h (1 Bft)
03.05.2012 23:23 11,7 C 75 % 0,0 l/m 1,3 km/h (1 Bft) O-NO 67 7,4 C 10,7 C 1,8 km/h (1 Bft)
03.05.2012 23:24 11,7 C 75 % 0,0 l/m 1,3 km/h (1 Bft) O-NO 67 7,4 C 10,7 C 1,8 km/h (1 Bft)
03.05.2012 23:25 11,6 C 75 % 0,0 l/m 1,0 km/h (0 Bft) N-NO 22 7,3 C 10,6 C 0,0 km/h (0 Bft)
03.05.2012 23:26 11,6 C 75 % 0,0 l/m 1,0 km/h (0 Bft) N-NO 22 7,3 C 10,6 C 0,0 km/h (0 Bft)
03.05.2012 23:27 11,7 C 76 % 0,0 l/m 1,0 km/h (0 Bft) N 360 7,6 C 10,6 C 0,0 km/h (0 Bft)
03.05.2012 23:28 11,7 C 76 % 0,0 l/m 1,0 km/h (0 Bft) N 360 7,6 C 10,6 C 0,0 km/h (0 Bft)
03.05.2012 23:29 11,7 C 76 % 0,0 l/m 1,0 km/h (0 Bft) NO 45 7,6 C 10,5 C 0,0 km/h (0 Bft)
03.05.2012 23:30 11,7 C 76 % 0,0 l/m 1,0 km/h (0 Bft) NO 45 7,6 C 10,5 C 0,0 km/h (0 Bft)
03.05.2012 23:31 11,6 C 76 % 0,0 l/m 0,6 km/h (0 Bft) SO 135 7,5 C 10,5 C 0,0 km/h (0 Bft)
03.05.2012 23:32 11,6 C 76 % 0,0 l/m 0,6 km/h (0 Bft) SO 135 7,5 C 10,5 C 0,0 km/h (0 Bft)
03.05.2012 23:33 11,6 C 76 % 0,0 l/m 0,3 km/h (0 Bft) SO 135 7,5 C 10,4 C 0,0 km/h (0 Bft)
03.05.2012 23:34 11,6 C 76 % 0,0 l/m 0,3 km/h (0 Bft) SO 135 7,5 C 10,4 C 0,0 km/h (0 Bft)
03.05.2012 23:35 11,6 C 76 % 0,0 l/m 0,0 km/h (0 Bft) N 360 7,5 C 10,4 C 0,0 km/h (0 Bft)
03.05.2012 23:36 11,6 C 76 % 0,0 l/m 0,0 km/h (0 Bft) N 360 7,5 C 10,4 C 0,0 km/h (0 Bft)
03.05.2012 23:37 11,6 C 76 % 0,0 l/m 0,0 km/h (0 Bft) N 360 7,5 C 10,4 C 0,0 km/h (0 Bft)
03.05.2012 23:38 11,6 C 76 % 0,0 l/m 0,0 km/h (0 Bft) N 360 7,5 C 10,4 C 0,0 km/h (0 Bft)
03.05.2012 23:39 11,6 C 76 % 0,0 l/m 0,0 km/h (0 Bft) N-NO 22 7,5 C 10,4 C 0,0 km/h (0 Bft)
03.05.2012 23:40 11,6 C 76 % 0,0 l/m 0,0 km/h (0 Bft) N-NO 22 7,5 C 10,4 C 0,0 km/h (0 Bft)
03.05.2012 23:41 11,6 C 76 % 0,0 l/m 0,0 km/h (0 Bft) N-NO 22 7,5 C 10,4 C 0,0 km/h (0 Bft)
03.05.2012 23:42 11,6 C 76 % 0,0 l/m 0,0 km/h (0 Bft) N-NO 22 7,5 C 10,4 C 0,0 km/h (0 Bft)
03.05.2012 23:43 11,6 C 76 % 0,0 l/m 0,0 km/h (0 Bft) S-SO 157 7,5 C 10,3 C 2,1 km/h (1 Bft)
03.05.2012 23:44 11,6 C 76 % 0,0 l/m 0,0 km/h (0 Bft) S-SO 157 7,5 C 10,3 C 2,1 km/h (1 Bft)
03.05.2012 23:45 11,6 C 76 % 0,0 l/m 0,3 km/h (0 Bft) O-SO 112 7,5 C 10,3 C 2,1 km/h (1 Bft)
03.05.2012 23:46 11,6 C 76 % 0,0 l/m 0,3 km/h (0 Bft) O-SO 112 7,5 C 10,3 C 2,1 km/h (1 Bft)
03.05.2012 23:47 11,6 C 76 % 0,0 l/m 0,3 km/h (0 Bft) SO 135 7,5 C 10,3 C 0,0 km/h (0 Bft)
03.05.2012 23:48 11,6 C 76 % 0,0 l/m 0,3 km/h (0 Bft) SO 135 7,5 C 10,3 C 0,0 km/h (0 Bft)
03.05.2012 23:49 11,6 C 76 % 0,0 l/m 0,6 km/h (0 Bft) SO 135 7,5 C 10,3 C 3,1 km/h (1 Bft)
03.05.2012 23:50 11,6 C 76 % 0,0 l/m 0,6 km/h (0 Bft) SO 135 7,5 C 10,3 C 3,1 km/h (1 Bft)
03.05.2012 23:51 11,6 C 76 % 0,0 l/m 0,6 km/h (0 Bft) SO 135 7,5 C 10,3 C 0,0 km/h (0 Bft)
03.05.2012 23:52 11,6 C 76 % 0,0 l/m 0,6 km/h (0 Bft) SO 135 7,5 C 10,3 C 0,0 km/h (0 Bft)
03.05.2012 23:53 11,6 C 76 % 0,0 l/m 0,6 km/h (0 Bft) S 180 7,5 C 10,3 C 0,0 km/h (0 Bft)
03.05.2012 23:54 11,6 C 76 % 0,0 l/m 0,6 km/h (0 Bft) S 180 7,5 C 10,3 C 0,0 km/h (0 Bft)
03.05.2012 23:55 11,6 C 76 % 0,0 l/m 0,5 km/h (0 Bft) SO 135 7,5 C 10,2 C 0,0 km/h (0 Bft)
03.05.2012 23:56 11,6 C 76 % 0,0 l/m 0,5 km/h (0 Bft) SO 135 7,5 C 10,2 C 0,0 km/h (0 Bft)
03.05.2012 23:57 11,5 C 76 % 0,0 l/m 0,3 km/h (0 Bft) S-SO 157 7,4 C 10,1 C 0,0 km/h (0 Bft)
03.05.2012 23:58 11,5 C 76 % 0,0 l/m 0,3 km/h (0 Bft) S-SO 157 7,4 C 10,1 C 0,0 km/h (0 Bft)
03.05.2012 23:59 11,5 C 76 % 0,0 l/m 0,2 km/h (0 Bft) S 180 7,4 C 10,1 C 0,0 km/h (0 Bft)
_ Min-Zeit 06:03 16:11 - 04:01 - - 12:01 06:07 00:05
Minimum _ 9,0 C 40 % - 0,0 km/h (0 Bft) - - 5,1 C 7,6 C 0,0 km/h (0 Bft)
_ Max-Zeit 13:57 04:01 00:11 00:37 - - 13:39 16:05 16:40
Maximum _ 21,5 C 84 % 0,7 l/m 6,1 km/h
O-SO (2 Bft)
- - 8,8 C 23,1 C 12,1 km/h
W-SW (2 Bft)
Durchschnitt _ 13,7 C 67 % #1,4 l/m 1,5 km/h (1 Bft) O-SO - 7,2 C 13,1 C 2,0 km/h (1 Bft)